<?xml version="1.0" encoding="UTF-8" standalone="no" ?>
<gpx xmlns="http://www.topografix.com/GPX/1/1" xmlns:xsi="http://www.w3.org/2001/XMLSchema-instance" xsi:schemaLocation="http://www.topografix.com/GPX/1/1 http://www.topografix.com/GPX/1/1/gpx.xsd" version="1.1" creator="VisuGPX - https://www.visugpx.com">
  <metadata>
    <name>130511ROBDolmenCyriac</name>
    <desc><![CDATA[Beaucoup de rochers et de sinuosité pour ces 280 de dénivelé]]></desc>
  </metadata>
  <trk>
    <name><![CDATA[130511ROBDolmenCyriac]]></name>
    <trkseg>
      <trkpt lat="43.40444" lon="6.06486">
        <ele>231.39999389648</ele>
        <time>2013-05-11T12:07:58Z</time>
      </trkpt>
      <trkpt lat="43.40446" lon="6.06486">
        <ele>231.39999389648</ele>
        <time>2013-05-11T12:07:59Z</time>
      </trkpt>
      <trkpt lat="43.40456" lon="6.06489">
        <ele>231.60000610352</ele>
        <time>2013-05-11T12:08:02Z</time>
      </trkpt>
      <trkpt lat="43.40465" lon="6.0649">
        <ele>231.60000610352</ele>
        <time>2013-05-11T12:08:04Z</time>
      </trkpt>
      <trkpt lat="43.40491" lon="6.06499">
        <ele>231.60000610352</ele>
        <time>2013-05-11T12:08:10Z</time>
      </trkpt>
      <trkpt lat="43.40504" lon="6.06507">
        <ele>231.60000610352</ele>
        <time>2013-05-11T12:08:15Z</time>
      </trkpt>
      <trkpt lat="43.40524" lon="6.06513">
        <ele>231.60000610352</ele>
        <time>2013-05-11T12:08:20Z</time>
      </trkpt>
      <trkpt lat="43.40537" lon="6.06517">
        <ele>231.60000610352</ele>
        <time>2013-05-11T12:08:23Z</time>
      </trkpt>
      <trkpt lat="43.40541" lon="6.06518">
        <ele>231.19999694824</ele>
        <time>2013-05-11T12:08:24Z</time>
      </trkpt>
      <trkpt lat="43.40546" lon="6.06519">
        <ele>230.80000305176</ele>
        <time>2013-05-11T12:08:25Z</time>
      </trkpt>
      <trkpt lat="43.40551" lon="6.06521">
        <ele>230.39999389648</ele>
        <time>2013-05-11T12:08:26Z</time>
      </trkpt>
      <trkpt lat="43.40556" lon="6.06523">
        <ele>229.80000305176</ele>
        <time>2013-05-11T12:08:27Z</time>
      </trkpt>
      <trkpt lat="43.40561" lon="6.06524">
        <ele>229.39999389648</ele>
        <time>2013-05-11T12:08:28Z</time>
      </trkpt>
      <trkpt lat="43.40581" lon="6.0653">
        <ele>229.39999389648</ele>
        <time>2013-05-11T12:08:32Z</time>
      </trkpt>
      <trkpt lat="43.40591" lon="6.06531">
        <ele>229</ele>
        <time>2013-05-11T12:08:34Z</time>
      </trkpt>
      <trkpt lat="43.40596" lon="6.06532">
        <ele>228.60000610352</ele>
        <time>2013-05-11T12:08:35Z</time>
      </trkpt>
      <trkpt lat="43.40609" lon="6.06536">
        <ele>227</ele>
        <time>2013-05-11T12:08:38Z</time>
      </trkpt>
      <trkpt lat="43.40612" lon="6.06536">
        <ele>226.39999389648</ele>
        <time>2013-05-11T12:08:39Z</time>
      </trkpt>
      <trkpt lat="43.40613" lon="6.06537">
        <ele>225.80000305176</ele>
        <time>2013-05-11T12:08:40Z</time>
      </trkpt>
      <trkpt lat="43.40615" lon="6.06538">
        <ele>225.19999694824</ele>
        <time>2013-05-11T12:08:41Z</time>
      </trkpt>
      <trkpt lat="43.40617" lon="6.06538">
        <ele>224.60000610352</ele>
        <time>2013-05-11T12:08:42Z</time>
      </trkpt>
      <trkpt lat="43.4062" lon="6.06536">
        <ele>224.60000610352</ele>
        <time>2013-05-11T12:08:43Z</time>
      </trkpt>
      <trkpt lat="43.40623" lon="6.06528">
        <ele>224.60000610352</ele>
        <time>2013-05-11T12:08:45Z</time>
      </trkpt>
      <trkpt lat="43.40629" lon="6.06511">
        <ele>224.60000610352</ele>
        <time>2013-05-11T12:08:49Z</time>
      </trkpt>
      <trkpt lat="43.40636" lon="6.06497">
        <ele>224.60000610352</ele>
        <time>2013-05-11T12:08:52Z</time>
      </trkpt>
      <trkpt lat="43.40644" lon="6.06488">
        <ele>224.60000610352</ele>
        <time>2013-05-11T12:08:54Z</time>
      </trkpt>
      <trkpt lat="43.40654" lon="6.06479">
        <ele>224</ele>
        <time>2013-05-11T12:08:56Z</time>
      </trkpt>
      <trkpt lat="43.40667" lon="6.06464">
        <ele>222.80000305176</ele>
        <time>2013-05-11T12:08:59Z</time>
      </trkpt>
      <trkpt lat="43.40676" lon="6.06453">
        <ele>222.39999389648</ele>
        <time>2013-05-11T12:09:01Z</time>
      </trkpt>
      <trkpt lat="43.40687" lon="6.06444">
        <ele>221.60000610352</ele>
        <time>2013-05-11T12:09:03Z</time>
      </trkpt>
      <trkpt lat="43.40693" lon="6.06441">
        <ele>221.19999694824</ele>
        <time>2013-05-11T12:09:04Z</time>
      </trkpt>
      <trkpt lat="43.40704" lon="6.06435">
        <ele>220.19999694824</ele>
        <time>2013-05-11T12:09:06Z</time>
      </trkpt>
      <trkpt lat="43.40718" lon="6.06434">
        <ele>220.19999694824</ele>
        <time>2013-05-11T12:09:08Z</time>
      </trkpt>
      <trkpt lat="43.40731" lon="6.06431">
        <ele>219.39999389648</ele>
        <time>2013-05-11T12:09:10Z</time>
      </trkpt>
      <trkpt lat="43.40768" lon="6.06425">
        <ele>218.19999694824</ele>
        <time>2013-05-11T12:09:16Z</time>
      </trkpt>
      <trkpt lat="43.40783" lon="6.06419">
        <ele>217.80000305176</ele>
        <time>2013-05-11T12:09:19Z</time>
      </trkpt>
      <trkpt lat="43.40796" lon="6.06414">
        <ele>216.80000305176</ele>
        <time>2013-05-11T12:09:21Z</time>
      </trkpt>
      <trkpt lat="43.40813" lon="6.06421">
        <ele>216</ele>
        <time>2013-05-11T12:09:24Z</time>
      </trkpt>
      <trkpt lat="43.40835" lon="6.06422">
        <ele>216</ele>
        <time>2013-05-11T12:09:28Z</time>
      </trkpt>
      <trkpt lat="43.40858" lon="6.06408">
        <ele>216</ele>
        <time>2013-05-11T12:09:33Z</time>
      </trkpt>
      <trkpt lat="43.40866" lon="6.064">
        <ele>216</ele>
        <time>2013-05-11T12:09:35Z</time>
      </trkpt>
      <trkpt lat="43.40878" lon="6.06388">
        <ele>216</ele>
        <time>2013-05-11T12:09:38Z</time>
      </trkpt>
      <trkpt lat="43.40899" lon="6.06362">
        <ele>217.19999694824</ele>
        <time>2013-05-11T12:09:44Z</time>
      </trkpt>
      <trkpt lat="43.40902" lon="6.06358">
        <ele>217.60000610352</ele>
        <time>2013-05-11T12:09:45Z</time>
      </trkpt>
      <trkpt lat="43.40908" lon="6.06349">
        <ele>218</ele>
        <time>2013-05-11T12:09:47Z</time>
      </trkpt>
      <trkpt lat="43.40928" lon="6.06324">
        <ele>218</ele>
        <time>2013-05-11T12:09:53Z</time>
      </trkpt>
      <trkpt lat="43.40931" lon="6.06321">
        <ele>218</ele>
        <time>2013-05-11T12:09:54Z</time>
      </trkpt>
      <trkpt lat="43.40946" lon="6.06306">
        <ele>218</ele>
        <time>2013-05-11T12:10:00Z</time>
      </trkpt>
      <trkpt lat="43.40957" lon="6.06302">
        <ele>218</ele>
        <time>2013-05-11T12:10:05Z</time>
      </trkpt>
      <trkpt lat="43.40962" lon="6.06312">
        <ele>218</ele>
        <time>2013-05-11T12:10:08Z</time>
      </trkpt>
      <trkpt lat="43.40964" lon="6.06312">
        <ele>218</ele>
        <time>2013-05-11T12:10:09Z</time>
      </trkpt>
      <trkpt lat="43.40966" lon="6.0631">
        <ele>218</ele>
        <time>2013-05-11T12:10:11Z</time>
      </trkpt>
      <trkpt lat="43.40975" lon="6.06303">
        <ele>218</ele>
        <time>2013-05-11T12:10:15Z</time>
      </trkpt>
      <trkpt lat="43.4098" lon="6.06295">
        <ele>218</ele>
        <time>2013-05-11T12:10:18Z</time>
      </trkpt>
      <trkpt lat="43.40982" lon="6.06289">
        <ele>218</ele>
        <time>2013-05-11T12:10:20Z</time>
      </trkpt>
      <trkpt lat="43.40989" lon="6.06283">
        <ele>218</ele>
        <time>2013-05-11T12:10:23Z</time>
      </trkpt>
      <trkpt lat="43.40994" lon="6.06281">
        <ele>218</ele>
        <time>2013-05-11T12:10:25Z</time>
      </trkpt>
      <trkpt lat="43.4102" lon="6.06273">
        <ele>218</ele>
        <time>2013-05-11T12:10:33Z</time>
      </trkpt>
      <trkpt lat="43.41044" lon="6.06265">
        <ele>218</ele>
        <time>2013-05-11T12:10:40Z</time>
      </trkpt>
      <trkpt lat="43.41061" lon="6.0626">
        <ele>218</ele>
        <time>2013-05-11T12:10:45Z</time>
      </trkpt>
      <trkpt lat="43.41071" lon="6.06256">
        <ele>218</ele>
        <time>2013-05-11T12:10:48Z</time>
      </trkpt>
      <trkpt lat="43.41094" lon="6.06248">
        <ele>218</ele>
        <time>2013-05-11T12:10:55Z</time>
      </trkpt>
      <trkpt lat="43.41123" lon="6.06238">
        <ele>218</ele>
        <time>2013-05-11T12:11:03Z</time>
      </trkpt>
      <trkpt lat="43.41127" lon="6.0623">
        <ele>218</ele>
        <time>2013-05-11T12:11:05Z</time>
      </trkpt>
      <trkpt lat="43.41132" lon="6.06222">
        <ele>218.60000610352</ele>
        <time>2013-05-11T12:11:07Z</time>
      </trkpt>
      <trkpt lat="43.41134" lon="6.0622">
        <ele>219</ele>
        <time>2013-05-11T12:11:08Z</time>
      </trkpt>
      <trkpt lat="43.4115" lon="6.06216">
        <ele>220.39999389648</ele>
        <time>2013-05-11T12:11:13Z</time>
      </trkpt>
      <trkpt lat="43.41162" lon="6.06212">
        <ele>220.39999389648</ele>
        <time>2013-05-11T12:11:17Z</time>
      </trkpt>
      <trkpt lat="43.4118" lon="6.06206">
        <ele>220.39999389648</ele>
        <time>2013-05-11T12:11:23Z</time>
      </trkpt>
      <trkpt lat="43.41196" lon="6.06201">
        <ele>220.39999389648</ele>
        <time>2013-05-11T12:11:28Z</time>
      </trkpt>
      <trkpt lat="43.41203" lon="6.06192">
        <ele>220.39999389648</ele>
        <time>2013-05-11T12:11:32Z</time>
      </trkpt>
      <trkpt lat="43.41205" lon="6.06191">
        <ele>220.39999389648</ele>
        <time>2013-05-11T12:11:33Z</time>
      </trkpt>
      <trkpt lat="43.41208" lon="6.06186">
        <ele>220.39999389648</ele>
        <time>2013-05-11T12:11:35Z</time>
      </trkpt>
      <trkpt lat="43.41208" lon="6.06179">
        <ele>220.39999389648</ele>
        <time>2013-05-11T12:11:37Z</time>
      </trkpt>
      <trkpt lat="43.41204" lon="6.06157">
        <ele>220.39999389648</ele>
        <time>2013-05-11T12:11:42Z</time>
      </trkpt>
      <trkpt lat="43.41205" lon="6.06125">
        <ele>220.39999389648</ele>
        <time>2013-05-11T12:11:49Z</time>
      </trkpt>
      <trkpt lat="43.41224" lon="6.06107">
        <ele>220.39999389648</ele>
        <time>2013-05-11T12:11:56Z</time>
      </trkpt>
      <trkpt lat="43.41242" lon="6.06097">
        <ele>220.39999389648</ele>
        <time>2013-05-11T12:12:02Z</time>
      </trkpt>
      <trkpt lat="43.4128" lon="6.06075">
        <ele>222.60000610352</ele>
        <time>2013-05-11T12:12:14Z</time>
      </trkpt>
      <trkpt lat="43.41301" lon="6.06064">
        <ele>222.60000610352</ele>
        <time>2013-05-11T12:12:21Z</time>
      </trkpt>
      <trkpt lat="43.41308" lon="6.06065">
        <ele>222.60000610352</ele>
        <time>2013-05-11T12:12:23Z</time>
      </trkpt>
      <trkpt lat="43.41314" lon="6.06069">
        <ele>222.60000610352</ele>
        <time>2013-05-11T12:12:25Z</time>
      </trkpt>
      <trkpt lat="43.4132" lon="6.06075">
        <ele>222.60000610352</ele>
        <time>2013-05-11T12:12:27Z</time>
      </trkpt>
      <trkpt lat="43.41329" lon="6.06084">
        <ele>222.60000610352</ele>
        <time>2013-05-11T12:12:30Z</time>
      </trkpt>
      <trkpt lat="43.41338" lon="6.06093">
        <ele>223.80000305176</ele>
        <time>2013-05-11T12:12:33Z</time>
      </trkpt>
      <trkpt lat="43.41343" lon="6.06099">
        <ele>224.60000610352</ele>
        <time>2013-05-11T12:12:35Z</time>
      </trkpt>
      <trkpt lat="43.41363" lon="6.0612">
        <ele>225</ele>
        <time>2013-05-11T12:12:43Z</time>
      </trkpt>
      <trkpt lat="43.4137" lon="6.06127">
        <ele>226.19999694824</ele>
        <time>2013-05-11T12:12:46Z</time>
      </trkpt>
      <trkpt lat="43.41375" lon="6.06132">
        <ele>226.60000610352</ele>
        <time>2013-05-11T12:12:48Z</time>
      </trkpt>
      <trkpt lat="43.41399" lon="6.06158">
        <ele>227</ele>
        <time>2013-05-11T12:12:59Z</time>
      </trkpt>
      <trkpt lat="43.41409" lon="6.06166">
        <ele>228.60000610352</ele>
        <time>2013-05-11T12:13:03Z</time>
      </trkpt>
      <trkpt lat="43.41419" lon="6.0617">
        <ele>228.60000610352</ele>
        <time>2013-05-11T12:13:07Z</time>
      </trkpt>
      <trkpt lat="43.4143" lon="6.06174">
        <ele>229.19999694824</ele>
        <time>2013-05-11T12:13:11Z</time>
      </trkpt>
      <trkpt lat="43.41435" lon="6.06177">
        <ele>230</ele>
        <time>2013-05-11T12:13:13Z</time>
      </trkpt>
      <trkpt lat="43.41458" lon="6.06182">
        <ele>230.80000305176</ele>
        <time>2013-05-11T12:13:21Z</time>
      </trkpt>
      <trkpt lat="43.41481" lon="6.06188">
        <ele>230.80000305176</ele>
        <time>2013-05-11T12:13:29Z</time>
      </trkpt>
      <trkpt lat="43.41503" lon="6.0619">
        <ele>230.80000305176</ele>
        <time>2013-05-11T12:13:36Z</time>
      </trkpt>
      <trkpt lat="43.41522" lon="6.06189">
        <ele>230.80000305176</ele>
        <time>2013-05-11T12:13:43Z</time>
      </trkpt>
      <trkpt lat="43.41535" lon="6.06184">
        <ele>232.39999389648</ele>
        <time>2013-05-11T12:13:48Z</time>
      </trkpt>
      <trkpt lat="43.4154" lon="6.06183">
        <ele>232.80000305176</ele>
        <time>2013-05-11T12:13:50Z</time>
      </trkpt>
      <trkpt lat="43.41552" lon="6.06176">
        <ele>232.80000305176</ele>
        <time>2013-05-11T12:13:55Z</time>
      </trkpt>
      <trkpt lat="43.41558" lon="6.06173">
        <ele>233.39999389648</ele>
        <time>2013-05-11T12:13:58Z</time>
      </trkpt>
      <trkpt lat="43.41562" lon="6.06173">
        <ele>234.19999694824</ele>
        <time>2013-05-11T12:14:00Z</time>
      </trkpt>
      <trkpt lat="43.41563" lon="6.06173">
        <ele>234.60000610352</ele>
        <time>2013-05-11T12:14:01Z</time>
      </trkpt>
      <trkpt lat="43.41564" lon="6.06173">
        <ele>235.19999694824</ele>
        <time>2013-05-11T12:14:02Z</time>
      </trkpt>
      <trkpt lat="43.41564" lon="6.06173">
        <ele>235.19999694824</ele>
        <time>2013-05-11T12:14:06Z</time>
      </trkpt>
      <trkpt lat="43.41565" lon="6.06174">
        <ele>235.19999694824</ele>
        <time>2013-05-11T12:14:07Z</time>
      </trkpt>
      <trkpt lat="43.41573" lon="6.06177">
        <ele>235.19999694824</ele>
        <time>2013-05-11T12:14:12Z</time>
      </trkpt>
      <trkpt lat="43.41579" lon="6.06184">
        <ele>235.19999694824</ele>
        <time>2013-05-11T12:14:16Z</time>
      </trkpt>
      <trkpt lat="43.41589" lon="6.06201">
        <ele>235.60000610352</ele>
        <time>2013-05-11T12:14:22Z</time>
      </trkpt>
      <trkpt lat="43.41591" lon="6.06203">
        <ele>236</ele>
        <time>2013-05-11T12:14:23Z</time>
      </trkpt>
      <trkpt lat="43.41597" lon="6.06201">
        <ele>237.19999694824</ele>
        <time>2013-05-11T12:14:26Z</time>
      </trkpt>
      <trkpt lat="43.41599" lon="6.062">
        <ele>237.19999694824</ele>
        <time>2013-05-11T12:14:27Z</time>
      </trkpt>
      <trkpt lat="43.41605" lon="6.06204">
        <ele>237.19999694824</ele>
        <time>2013-05-11T12:14:30Z</time>
      </trkpt>
      <trkpt lat="43.41607" lon="6.06206">
        <ele>237.19999694824</ele>
        <time>2013-05-11T12:14:31Z</time>
      </trkpt>
      <trkpt lat="43.4162" lon="6.0622">
        <ele>237.19999694824</ele>
        <time>2013-05-11T12:14:38Z</time>
      </trkpt>
      <trkpt lat="43.41632" lon="6.06232">
        <ele>237.19999694824</ele>
        <time>2013-05-11T12:14:44Z</time>
      </trkpt>
      <trkpt lat="43.41636" lon="6.06235">
        <ele>237.19999694824</ele>
        <time>2013-05-11T12:14:46Z</time>
      </trkpt>
      <trkpt lat="43.4165" lon="6.06243">
        <ele>237.19999694824</ele>
        <time>2013-05-11T12:14:53Z</time>
      </trkpt>
      <trkpt lat="43.41665" lon="6.06249">
        <ele>237.19999694824</ele>
        <time>2013-05-11T12:15:00Z</time>
      </trkpt>
      <trkpt lat="43.41684" lon="6.06251">
        <ele>237.19999694824</ele>
        <time>2013-05-11T12:15:07Z</time>
      </trkpt>
      <trkpt lat="43.41701" lon="6.06253">
        <ele>237.19999694824</ele>
        <time>2013-05-11T12:15:14Z</time>
      </trkpt>
      <trkpt lat="43.4172" lon="6.06252">
        <ele>237.19999694824</ele>
        <time>2013-05-11T12:15:21Z</time>
      </trkpt>
      <trkpt lat="43.41739" lon="6.06253">
        <ele>237.80000305176</ele>
        <time>2013-05-11T12:15:28Z</time>
      </trkpt>
      <trkpt lat="43.41748" lon="6.06255">
        <ele>239.39999389648</ele>
        <time>2013-05-11T12:15:32Z</time>
      </trkpt>
      <trkpt lat="43.41755" lon="6.06257">
        <ele>239.39999389648</ele>
        <time>2013-05-11T12:15:35Z</time>
      </trkpt>
      <trkpt lat="43.41767" lon="6.06261">
        <ele>239.80000305176</ele>
        <time>2013-05-11T12:15:40Z</time>
      </trkpt>
      <trkpt lat="43.41769" lon="6.06263">
        <ele>240.19999694824</ele>
        <time>2013-05-11T12:15:41Z</time>
      </trkpt>
      <trkpt lat="43.41782" lon="6.06272">
        <ele>241.60000610352</ele>
        <time>2013-05-11T12:15:47Z</time>
      </trkpt>
      <trkpt lat="43.41801" lon="6.06288">
        <ele>242.39999389648</ele>
        <time>2013-05-11T12:15:56Z</time>
      </trkpt>
      <trkpt lat="43.41809" lon="6.06291">
        <ele>243.60000610352</ele>
        <time>2013-05-11T12:15:59Z</time>
      </trkpt>
      <trkpt lat="43.41814" lon="6.06293">
        <ele>243.60000610352</ele>
        <time>2013-05-11T12:16:01Z</time>
      </trkpt>
      <trkpt lat="43.41827" lon="6.06294">
        <ele>243.60000610352</ele>
        <time>2013-05-11T12:16:06Z</time>
      </trkpt>
      <trkpt lat="43.41844" lon="6.0629">
        <ele>244</ele>
        <time>2013-05-11T12:16:13Z</time>
      </trkpt>
      <trkpt lat="43.41847" lon="6.0629">
        <ele>244.39999389648</ele>
        <time>2013-05-11T12:16:14Z</time>
      </trkpt>
      <trkpt lat="43.41859" lon="6.06293">
        <ele>245.80000305176</ele>
        <time>2013-05-11T12:16:19Z</time>
      </trkpt>
      <trkpt lat="43.41868" lon="6.06293">
        <ele>245.80000305176</ele>
        <time>2013-05-11T12:16:23Z</time>
      </trkpt>
      <trkpt lat="43.41889" lon="6.06296">
        <ele>247</ele>
        <time>2013-05-11T12:16:32Z</time>
      </trkpt>
      <trkpt lat="43.41919" lon="6.06294">
        <ele>247.80000305176</ele>
        <time>2013-05-11T12:16:45Z</time>
      </trkpt>
      <trkpt lat="43.41925" lon="6.06293">
        <ele>249</ele>
        <time>2013-05-11T12:16:48Z</time>
      </trkpt>
      <trkpt lat="43.4193" lon="6.06292">
        <ele>249.80000305176</ele>
        <time>2013-05-11T12:16:50Z</time>
      </trkpt>
      <trkpt lat="43.41934" lon="6.06291">
        <ele>249.80000305176</ele>
        <time>2013-05-11T12:16:52Z</time>
      </trkpt>
      <trkpt lat="43.41952" lon="6.06284">
        <ele>249.80000305176</ele>
        <time>2013-05-11T12:16:59Z</time>
      </trkpt>
      <trkpt lat="43.41969" lon="6.0628">
        <ele>250.19999694824</ele>
        <time>2013-05-11T12:17:07Z</time>
      </trkpt>
      <trkpt lat="43.41977" lon="6.06277">
        <ele>252</ele>
        <time>2013-05-11T12:17:11Z</time>
      </trkpt>
      <trkpt lat="43.41984" lon="6.06276">
        <ele>252</ele>
        <time>2013-05-11T12:17:15Z</time>
      </trkpt>
      <trkpt lat="43.41991" lon="6.06272">
        <ele>252.39999389648</ele>
        <time>2013-05-11T12:17:19Z</time>
      </trkpt>
      <trkpt lat="43.42004" lon="6.06266">
        <ele>254.80000305176</ele>
        <time>2013-05-11T12:17:26Z</time>
      </trkpt>
      <trkpt lat="43.42005" lon="6.06266">
        <ele>255.19999694824</ele>
        <time>2013-05-11T12:17:27Z</time>
      </trkpt>
      <trkpt lat="43.42016" lon="6.06263">
        <ele>256.20001220703</ele>
        <time>2013-05-11T12:17:33Z</time>
      </trkpt>
      <trkpt lat="43.42025" lon="6.06261">
        <ele>256.60000610352</ele>
        <time>2013-05-11T12:17:39Z</time>
      </trkpt>
      <trkpt lat="43.42033" lon="6.06259">
        <ele>258.39999389648</ele>
        <time>2013-05-11T12:17:43Z</time>
      </trkpt>
      <trkpt lat="43.42041" lon="6.06256">
        <ele>259.20001220703</ele>
        <time>2013-05-11T12:17:48Z</time>
      </trkpt>
      <trkpt lat="43.42042" lon="6.06256">
        <ele>259.79998779297</ele>
        <time>2013-05-11T12:17:49Z</time>
      </trkpt>
      <trkpt lat="43.42052" lon="6.06251">
        <ele>260.60000610352</ele>
        <time>2013-05-11T12:17:55Z</time>
      </trkpt>
      <trkpt lat="43.42058" lon="6.06248">
        <ele>262.20001220703</ele>
        <time>2013-05-11T12:17:59Z</time>
      </trkpt>
      <trkpt lat="43.42059" lon="6.06248">
        <ele>262.60000610352</ele>
        <time>2013-05-11T12:18:00Z</time>
      </trkpt>
      <trkpt lat="43.42067" lon="6.06246">
        <ele>263</ele>
        <time>2013-05-11T12:18:05Z</time>
      </trkpt>
      <trkpt lat="43.42071" lon="6.06244">
        <ele>264.39999389648</ele>
        <time>2013-05-11T12:18:08Z</time>
      </trkpt>
      <trkpt lat="43.42075" lon="6.06243">
        <ele>264.79998779297</ele>
        <time>2013-05-11T12:18:11Z</time>
      </trkpt>
      <trkpt lat="43.4209" lon="6.06238">
        <ele>267</ele>
        <time>2013-05-11T12:18:21Z</time>
      </trkpt>
      <trkpt lat="43.42094" lon="6.06238">
        <ele>267</ele>
        <time>2013-05-11T12:18:23Z</time>
      </trkpt>
      <trkpt lat="43.42104" lon="6.06234">
        <ele>267</ele>
        <time>2013-05-11T12:18:29Z</time>
      </trkpt>
      <trkpt lat="43.42107" lon="6.06232">
        <ele>267.39999389648</ele>
        <time>2013-05-11T12:18:31Z</time>
      </trkpt>
      <trkpt lat="43.42114" lon="6.0623">
        <ele>269.20001220703</ele>
        <time>2013-05-11T12:18:35Z</time>
      </trkpt>
      <trkpt lat="43.42123" lon="6.06226">
        <ele>269.20001220703</ele>
        <time>2013-05-11T12:18:41Z</time>
      </trkpt>
      <trkpt lat="43.42134" lon="6.06224">
        <ele>270</ele>
        <time>2013-05-11T12:18:48Z</time>
      </trkpt>
      <trkpt lat="43.42138" lon="6.06222">
        <ele>271</ele>
        <time>2013-05-11T12:18:50Z</time>
      </trkpt>
      <trkpt lat="43.42139" lon="6.06221">
        <ele>271.39999389648</ele>
        <time>2013-05-11T12:18:51Z</time>
      </trkpt>
      <trkpt lat="43.42143" lon="6.06219">
        <ele>271.39999389648</ele>
        <time>2013-05-11T12:18:54Z</time>
      </trkpt>
      <trkpt lat="43.42148" lon="6.06212">
        <ele>271.39999389648</ele>
        <time>2013-05-11T12:19:00Z</time>
      </trkpt>
      <trkpt lat="43.42149" lon="6.06207">
        <ele>271.39999389648</ele>
        <time>2013-05-11T12:19:03Z</time>
      </trkpt>
      <trkpt lat="43.42148" lon="6.06204">
        <ele>271.39999389648</ele>
        <time>2013-05-11T12:19:06Z</time>
      </trkpt>
      <trkpt lat="43.42147" lon="6.06199">
        <ele>271.39999389648</ele>
        <time>2013-05-11T12:19:09Z</time>
      </trkpt>
      <trkpt lat="43.42141" lon="6.06178">
        <ele>271.39999389648</ele>
        <time>2013-05-11T12:19:18Z</time>
      </trkpt>
      <trkpt lat="43.42137" lon="6.06169">
        <ele>271.39999389648</ele>
        <time>2013-05-11T12:19:21Z</time>
      </trkpt>
      <trkpt lat="43.42136" lon="6.06165">
        <ele>271.39999389648</ele>
        <time>2013-05-11T12:19:22Z</time>
      </trkpt>
      <trkpt lat="43.42134" lon="6.06157">
        <ele>271.39999389648</ele>
        <time>2013-05-11T12:19:24Z</time>
      </trkpt>
      <trkpt lat="43.42131" lon="6.06148">
        <ele>271.39999389648</ele>
        <time>2013-05-11T12:19:26Z</time>
      </trkpt>
      <trkpt lat="43.42128" lon="6.06135">
        <ele>271.39999389648</ele>
        <time>2013-05-11T12:19:29Z</time>
      </trkpt>
      <trkpt lat="43.42125" lon="6.06124">
        <ele>271.39999389648</ele>
        <time>2013-05-11T12:19:32Z</time>
      </trkpt>
      <trkpt lat="43.42123" lon="6.06113">
        <ele>271.39999389648</ele>
        <time>2013-05-11T12:19:35Z</time>
      </trkpt>
      <trkpt lat="43.42121" lon="6.06103">
        <ele>271.39999389648</ele>
        <time>2013-05-11T12:19:38Z</time>
      </trkpt>
      <trkpt lat="43.4212" lon="6.06088">
        <ele>271.39999389648</ele>
        <time>2013-05-11T12:19:43Z</time>
      </trkpt>
      <trkpt lat="43.42119" lon="6.06083">
        <ele>271.39999389648</ele>
        <time>2013-05-11T12:19:45Z</time>
      </trkpt>
      <trkpt lat="43.42117" lon="6.06074">
        <ele>271.39999389648</ele>
        <time>2013-05-11T12:19:48Z</time>
      </trkpt>
      <trkpt lat="43.42115" lon="6.06066">
        <ele>271.39999389648</ele>
        <time>2013-05-11T12:19:51Z</time>
      </trkpt>
      <trkpt lat="43.42115" lon="6.06063">
        <ele>271.39999389648</ele>
        <time>2013-05-11T12:19:52Z</time>
      </trkpt>
      <trkpt lat="43.42111" lon="6.06042">
        <ele>271.39999389648</ele>
        <time>2013-05-11T12:19:59Z</time>
      </trkpt>
      <trkpt lat="43.4211" lon="6.06036">
        <ele>271.79998779297</ele>
        <time>2013-05-11T12:20:01Z</time>
      </trkpt>
      <trkpt lat="43.42106" lon="6.0602">
        <ele>273.39999389648</ele>
        <time>2013-05-11T12:20:06Z</time>
      </trkpt>
      <trkpt lat="43.42102" lon="6.06004">
        <ele>273.39999389648</ele>
        <time>2013-05-11T12:20:11Z</time>
      </trkpt>
      <trkpt lat="43.42099" lon="6.05993">
        <ele>273.39999389648</ele>
        <time>2013-05-11T12:20:14Z</time>
      </trkpt>
      <trkpt lat="43.42096" lon="6.05972">
        <ele>273.39999389648</ele>
        <time>2013-05-11T12:20:19Z</time>
      </trkpt>
      <trkpt lat="43.42096" lon="6.05968">
        <ele>273.39999389648</ele>
        <time>2013-05-11T12:20:20Z</time>
      </trkpt>
      <trkpt lat="43.42089" lon="6.0594">
        <ele>273.39999389648</ele>
        <time>2013-05-11T12:20:26Z</time>
      </trkpt>
      <trkpt lat="43.42087" lon="6.0593">
        <ele>273.39999389648</ele>
        <time>2013-05-11T12:20:29Z</time>
      </trkpt>
      <trkpt lat="43.42087" lon="6.05928">
        <ele>273.39999389648</ele>
        <time>2013-05-11T12:20:30Z</time>
      </trkpt>
      <trkpt lat="43.42083" lon="6.0591">
        <ele>273.39999389648</ele>
        <time>2013-05-11T12:20:35Z</time>
      </trkpt>
      <trkpt lat="43.42075" lon="6.05882">
        <ele>273.39999389648</ele>
        <time>2013-05-11T12:20:41Z</time>
      </trkpt>
      <trkpt lat="43.42072" lon="6.0587">
        <ele>273</ele>
        <time>2013-05-11T12:20:44Z</time>
      </trkpt>
      <trkpt lat="43.42071" lon="6.05865">
        <ele>272.39999389648</ele>
        <time>2013-05-11T12:20:45Z</time>
      </trkpt>
      <trkpt lat="43.4207" lon="6.05861">
        <ele>272</ele>
        <time>2013-05-11T12:20:46Z</time>
      </trkpt>
      <trkpt lat="43.42068" lon="6.05855">
        <ele>271.60000610352</ele>
        <time>2013-05-11T12:20:47Z</time>
      </trkpt>
      <trkpt lat="43.42067" lon="6.05849">
        <ele>271.20001220703</ele>
        <time>2013-05-11T12:20:48Z</time>
      </trkpt>
      <trkpt lat="43.42059" lon="6.05815">
        <ele>271.20001220703</ele>
        <time>2013-05-11T12:20:52Z</time>
      </trkpt>
      <trkpt lat="43.42053" lon="6.05789">
        <ele>271.20001220703</ele>
        <time>2013-05-11T12:20:55Z</time>
      </trkpt>
      <trkpt lat="43.42051" lon="6.05773">
        <ele>271.20001220703</ele>
        <time>2013-05-11T12:20:57Z</time>
      </trkpt>
      <trkpt lat="43.42046" lon="6.05743">
        <ele>271.20001220703</ele>
        <time>2013-05-11T12:21:01Z</time>
      </trkpt>
      <trkpt lat="43.42043" lon="6.05729">
        <ele>270.79998779297</ele>
        <time>2013-05-11T12:21:03Z</time>
      </trkpt>
      <trkpt lat="43.42034" lon="6.05682">
        <ele>269</ele>
        <time>2013-05-11T12:21:10Z</time>
      </trkpt>
      <trkpt lat="43.42031" lon="6.05663">
        <ele>269</ele>
        <time>2013-05-11T12:21:13Z</time>
      </trkpt>
      <trkpt lat="43.42029" lon="6.05651">
        <ele>269</ele>
        <time>2013-05-11T12:21:15Z</time>
      </trkpt>
      <trkpt lat="43.42027" lon="6.0564">
        <ele>269</ele>
        <time>2013-05-11T12:21:17Z</time>
      </trkpt>
      <trkpt lat="43.42024" lon="6.0563">
        <ele>269.39999389648</ele>
        <time>2013-05-11T12:21:19Z</time>
      </trkpt>
      <trkpt lat="43.42019" lon="6.05604">
        <ele>271.20001220703</ele>
        <time>2013-05-11T12:21:25Z</time>
      </trkpt>
      <trkpt lat="43.42016" lon="6.05584">
        <ele>271.20001220703</ele>
        <time>2013-05-11T12:21:31Z</time>
      </trkpt>
      <trkpt lat="43.42014" lon="6.05566">
        <ele>271.60000610352</ele>
        <time>2013-05-11T12:21:36Z</time>
      </trkpt>
      <trkpt lat="43.42009" lon="6.05529">
        <ele>273.60000610352</ele>
        <time>2013-05-11T12:21:46Z</time>
      </trkpt>
      <trkpt lat="43.42007" lon="6.05518">
        <ele>275</ele>
        <time>2013-05-11T12:21:49Z</time>
      </trkpt>
      <trkpt lat="43.42007" lon="6.05514">
        <ele>275.39999389648</ele>
        <time>2013-05-11T12:21:50Z</time>
      </trkpt>
      <trkpt lat="43.42006" lon="6.05507">
        <ele>275.39999389648</ele>
        <time>2013-05-11T12:21:52Z</time>
      </trkpt>
      <trkpt lat="43.42001" lon="6.05483">
        <ele>275.79998779297</ele>
        <time>2013-05-11T12:21:58Z</time>
      </trkpt>
      <trkpt lat="43.41999" lon="6.05479">
        <ele>276.20001220703</ele>
        <time>2013-05-11T12:21:59Z</time>
      </trkpt>
      <trkpt lat="43.41996" lon="6.05464">
        <ele>277.60000610352</ele>
        <time>2013-05-11T12:22:02Z</time>
      </trkpt>
      <trkpt lat="43.41993" lon="6.05452">
        <ele>277.60000610352</ele>
        <time>2013-05-11T12:22:04Z</time>
      </trkpt>
      <trkpt lat="43.41987" lon="6.05432">
        <ele>277.60000610352</ele>
        <time>2013-05-11T12:22:07Z</time>
      </trkpt>
      <trkpt lat="43.4198" lon="6.05408">
        <ele>277.60000610352</ele>
        <time>2013-05-11T12:22:10Z</time>
      </trkpt>
      <trkpt lat="43.41976" lon="6.05392">
        <ele>276.60000610352</ele>
        <time>2013-05-11T12:22:12Z</time>
      </trkpt>
      <trkpt lat="43.41973" lon="6.05383">
        <ele>276.20001220703</ele>
        <time>2013-05-11T12:22:13Z</time>
      </trkpt>
      <trkpt lat="43.41972" lon="6.05375">
        <ele>275.79998779297</ele>
        <time>2013-05-11T12:22:14Z</time>
      </trkpt>
      <trkpt lat="43.41969" lon="6.05367">
        <ele>275.20001220703</ele>
        <time>2013-05-11T12:22:15Z</time>
      </trkpt>
      <trkpt lat="43.41965" lon="6.05349">
        <ele>275.20001220703</ele>
        <time>2013-05-11T12:22:17Z</time>
      </trkpt>
      <trkpt lat="43.41959" lon="6.05321">
        <ele>274.79998779297</ele>
        <time>2013-05-11T12:22:20Z</time>
      </trkpt>
      <trkpt lat="43.41955" lon="6.05303">
        <ele>273.39999389648</ele>
        <time>2013-05-11T12:22:22Z</time>
      </trkpt>
      <trkpt lat="43.41949" lon="6.05276">
        <ele>272.60000610352</ele>
        <time>2013-05-11T12:22:25Z</time>
      </trkpt>
      <trkpt lat="43.41948" lon="6.05268">
        <ele>272.20001220703</ele>
        <time>2013-05-11T12:22:26Z</time>
      </trkpt>
      <trkpt lat="43.41946" lon="6.05259">
        <ele>271.79998779297</ele>
        <time>2013-05-11T12:22:27Z</time>
      </trkpt>
      <trkpt lat="43.41944" lon="6.05241">
        <ele>270.39999389648</ele>
        <time>2013-05-11T12:22:29Z</time>
      </trkpt>
      <trkpt lat="43.41943" lon="6.05224">
        <ele>269</ele>
        <time>2013-05-11T12:22:31Z</time>
      </trkpt>
      <trkpt lat="43.41942" lon="6.05206">
        <ele>267.60000610352</ele>
        <time>2013-05-11T12:22:33Z</time>
      </trkpt>
      <trkpt lat="43.41942" lon="6.05197">
        <ele>267</ele>
        <time>2013-05-11T12:22:34Z</time>
      </trkpt>
      <trkpt lat="43.41942" lon="6.05188">
        <ele>266.20001220703</ele>
        <time>2013-05-11T12:22:35Z</time>
      </trkpt>
      <trkpt lat="43.41942" lon="6.0518">
        <ele>266.20001220703</ele>
        <time>2013-05-11T12:22:36Z</time>
      </trkpt>
      <trkpt lat="43.41941" lon="6.05163">
        <ele>265.60000610352</ele>
        <time>2013-05-11T12:22:38Z</time>
      </trkpt>
      <trkpt lat="43.41943" lon="6.05155">
        <ele>265.20001220703</ele>
        <time>2013-05-11T12:22:39Z</time>
      </trkpt>
      <trkpt lat="43.41946" lon="6.0515">
        <ele>264.60000610352</ele>
        <time>2013-05-11T12:22:40Z</time>
      </trkpt>
      <trkpt lat="43.41951" lon="6.05146">
        <ele>264</ele>
        <time>2013-05-11T12:22:41Z</time>
      </trkpt>
      <trkpt lat="43.41959" lon="6.0514">
        <ele>262.79998779297</ele>
        <time>2013-05-11T12:22:43Z</time>
      </trkpt>
      <trkpt lat="43.41963" lon="6.05139">
        <ele>262</ele>
        <time>2013-05-11T12:22:44Z</time>
      </trkpt>
      <trkpt lat="43.41966" lon="6.05138">
        <ele>261.39999389648</ele>
        <time>2013-05-11T12:22:45Z</time>
      </trkpt>
      <trkpt lat="43.41972" lon="6.05136">
        <ele>261.39999389648</ele>
        <time>2013-05-11T12:22:47Z</time>
      </trkpt>
      <trkpt lat="43.41991" lon="6.05132">
        <ele>261.39999389648</ele>
        <time>2013-05-11T12:22:54Z</time>
      </trkpt>
      <trkpt lat="43.42006" lon="6.05129">
        <ele>261.39999389648</ele>
        <time>2013-05-11T12:23:00Z</time>
      </trkpt>
      <trkpt lat="43.4202" lon="6.05125">
        <ele>263.79998779297</ele>
        <time>2013-05-11T12:23:05Z</time>
      </trkpt>
      <trkpt lat="43.42026" lon="6.05124">
        <ele>263.79998779297</ele>
        <time>2013-05-11T12:23:07Z</time>
      </trkpt>
      <trkpt lat="43.42039" lon="6.0512">
        <ele>263.79998779297</ele>
        <time>2013-05-11T12:23:12Z</time>
      </trkpt>
      <trkpt lat="43.42051" lon="6.05117">
        <ele>263.79998779297</ele>
        <time>2013-05-11T12:23:17Z</time>
      </trkpt>
      <trkpt lat="43.42068" lon="6.05114">
        <ele>264.20001220703</ele>
        <time>2013-05-11T12:23:24Z</time>
      </trkpt>
      <trkpt lat="43.42073" lon="6.05113">
        <ele>265</ele>
        <time>2013-05-11T12:23:26Z</time>
      </trkpt>
      <trkpt lat="43.42077" lon="6.05114">
        <ele>265.79998779297</ele>
        <time>2013-05-11T12:23:28Z</time>
      </trkpt>
      <trkpt lat="43.42091" lon="6.05115">
        <ele>265.79998779297</ele>
        <time>2013-05-11T12:23:34Z</time>
      </trkpt>
      <trkpt lat="43.42098" lon="6.05116">
        <ele>265.79998779297</ele>
        <time>2013-05-11T12:23:37Z</time>
      </trkpt>
      <trkpt lat="43.42115" lon="6.05116">
        <ele>265.79998779297</ele>
        <time>2013-05-11T12:23:44Z</time>
      </trkpt>
      <trkpt lat="43.42121" lon="6.05119">
        <ele>266.20001220703</ele>
        <time>2013-05-11T12:23:46Z</time>
      </trkpt>
      <trkpt lat="43.42123" lon="6.05122">
        <ele>266.60000610352</ele>
        <time>2013-05-11T12:23:47Z</time>
      </trkpt>
      <trkpt lat="43.42127" lon="6.05126">
        <ele>267.39999389648</ele>
        <time>2013-05-11T12:23:49Z</time>
      </trkpt>
      <trkpt lat="43.42132" lon="6.05129">
        <ele>267.79998779297</ele>
        <time>2013-05-11T12:23:51Z</time>
      </trkpt>
      <trkpt lat="43.42142" lon="6.05143">
        <ele>268.39999389648</ele>
        <time>2013-05-11T12:23:57Z</time>
      </trkpt>
      <trkpt lat="43.42155" lon="6.05158">
        <ele>270.20001220703</ele>
        <time>2013-05-11T12:24:04Z</time>
      </trkpt>
      <trkpt lat="43.42165" lon="6.05165">
        <ele>270.20001220703</ele>
        <time>2013-05-11T12:24:09Z</time>
      </trkpt>
      <trkpt lat="43.42175" lon="6.05171">
        <ele>270.20001220703</ele>
        <time>2013-05-11T12:24:14Z</time>
      </trkpt>
      <trkpt lat="43.42189" lon="6.0518">
        <ele>270.20001220703</ele>
        <time>2013-05-11T12:24:21Z</time>
      </trkpt>
      <trkpt lat="43.422" lon="6.05185">
        <ele>270.60000610352</ele>
        <time>2013-05-11T12:24:26Z</time>
      </trkpt>
      <trkpt lat="43.42205" lon="6.05187">
        <ele>271.39999389648</ele>
        <time>2013-05-11T12:24:28Z</time>
      </trkpt>
      <trkpt lat="43.42216" lon="6.05193">
        <ele>272.20001220703</ele>
        <time>2013-05-11T12:24:33Z</time>
      </trkpt>
      <trkpt lat="43.4224" lon="6.05213">
        <ele>272.20001220703</ele>
        <time>2013-05-11T12:24:45Z</time>
      </trkpt>
      <trkpt lat="43.42256" lon="6.05217">
        <ele>273.39999389648</ele>
        <time>2013-05-11T12:24:51Z</time>
      </trkpt>
      <trkpt lat="43.42259" lon="6.05217">
        <ele>273.79998779297</ele>
        <time>2013-05-11T12:24:52Z</time>
      </trkpt>
      <trkpt lat="43.42269" lon="6.05217">
        <ele>274.20001220703</ele>
        <time>2013-05-11T12:24:56Z</time>
      </trkpt>
      <trkpt lat="43.42288" lon="6.0522">
        <ele>274.20001220703</ele>
        <time>2013-05-11T12:25:03Z</time>
      </trkpt>
      <trkpt lat="43.42304" lon="6.05224">
        <ele>274.20001220703</ele>
        <time>2013-05-11T12:25:10Z</time>
      </trkpt>
      <trkpt lat="43.42317" lon="6.05226">
        <ele>275.79998779297</ele>
        <time>2013-05-11T12:25:17Z</time>
      </trkpt>
      <trkpt lat="43.42321" lon="6.05227">
        <ele>276.60000610352</ele>
        <time>2013-05-11T12:25:19Z</time>
      </trkpt>
      <trkpt lat="43.42324" lon="6.05227">
        <ele>276.60000610352</ele>
        <time>2013-05-11T12:25:20Z</time>
      </trkpt>
      <trkpt lat="43.42338" lon="6.05232">
        <ele>278.39999389648</ele>
        <time>2013-05-11T12:25:27Z</time>
      </trkpt>
      <trkpt lat="43.42348" lon="6.05234">
        <ele>279.20001220703</ele>
        <time>2013-05-11T12:25:32Z</time>
      </trkpt>
      <trkpt lat="43.4235" lon="6.05234">
        <ele>279.60000610352</ele>
        <time>2013-05-11T12:25:33Z</time>
      </trkpt>
      <trkpt lat="43.42361" lon="6.05232">
        <ele>280.79998779297</ele>
        <time>2013-05-11T12:25:38Z</time>
      </trkpt>
      <trkpt lat="43.42374" lon="6.05229">
        <ele>280.79998779297</ele>
        <time>2013-05-11T12:25:44Z</time>
      </trkpt>
      <trkpt lat="43.42386" lon="6.05229">
        <ele>281.20001220703</ele>
        <time>2013-05-11T12:25:51Z</time>
      </trkpt>
      <trkpt lat="43.42388" lon="6.05228">
        <ele>282.20001220703</ele>
        <time>2013-05-11T12:25:53Z</time>
      </trkpt>
      <trkpt lat="43.42391" lon="6.05228">
        <ele>283</ele>
        <time>2013-05-11T12:25:55Z</time>
      </trkpt>
      <trkpt lat="43.42393" lon="6.05226">
        <ele>283</ele>
        <time>2013-05-11T12:25:57Z</time>
      </trkpt>
      <trkpt lat="43.424" lon="6.05224">
        <ele>283</ele>
        <time>2013-05-11T12:26:03Z</time>
      </trkpt>
      <trkpt lat="43.42401" lon="6.05223">
        <ele>283</ele>
        <time>2013-05-11T12:26:04Z</time>
      </trkpt>
      <trkpt lat="43.42405" lon="6.05222">
        <ele>283</ele>
        <time>2013-05-11T12:26:08Z</time>
      </trkpt>
      <trkpt lat="43.42414" lon="6.05223">
        <ele>283</ele>
        <time>2013-05-11T12:26:17Z</time>
      </trkpt>
      <trkpt lat="43.42419" lon="6.05224">
        <ele>283</ele>
        <time>2013-05-11T12:26:21Z</time>
      </trkpt>
      <trkpt lat="43.42422" lon="6.05224">
        <ele>283</ele>
        <time>2013-05-11T12:26:23Z</time>
      </trkpt>
      <trkpt lat="43.42435" lon="6.05223">
        <ele>283</ele>
        <time>2013-05-11T12:26:32Z</time>
      </trkpt>
      <trkpt lat="43.42438" lon="6.05222">
        <ele>283</ele>
        <time>2013-05-11T12:26:34Z</time>
      </trkpt>
      <trkpt lat="43.4244" lon="6.05221">
        <ele>283</ele>
        <time>2013-05-11T12:26:35Z</time>
      </trkpt>
      <trkpt lat="43.42443" lon="6.0522">
        <ele>283.39999389648</ele>
        <time>2013-05-11T12:26:37Z</time>
      </trkpt>
      <trkpt lat="43.42446" lon="6.05218">
        <ele>284.20001220703</ele>
        <time>2013-05-11T12:26:39Z</time>
      </trkpt>
      <trkpt lat="43.42458" lon="6.05213">
        <ele>285.20001220703</ele>
        <time>2013-05-11T12:26:45Z</time>
      </trkpt>
      <trkpt lat="43.42459" lon="6.05213">
        <ele>285.20001220703</ele>
        <time>2013-05-11T12:26:46Z</time>
      </trkpt>
      <trkpt lat="43.42461" lon="6.05212">
        <ele>285.60000610352</ele>
        <time>2013-05-11T12:26:48Z</time>
      </trkpt>
      <trkpt lat="43.42464" lon="6.05213">
        <ele>286.39999389648</ele>
        <time>2013-05-11T12:26:50Z</time>
      </trkpt>
      <trkpt lat="43.42465" lon="6.05213">
        <ele>286.79998779297</ele>
        <time>2013-05-11T12:26:51Z</time>
      </trkpt>
      <trkpt lat="43.42467" lon="6.05213">
        <ele>287.20001220703</ele>
        <time>2013-05-11T12:26:52Z</time>
      </trkpt>
      <trkpt lat="43.42471" lon="6.05214">
        <ele>288.20001220703</ele>
        <time>2013-05-11T12:26:55Z</time>
      </trkpt>
      <trkpt lat="43.42471" lon="6.05214">
        <ele>288.60000610352</ele>
        <time>2013-05-11T12:26:56Z</time>
      </trkpt>
      <trkpt lat="43.42471" lon="6.05214">
        <ele>289.39999389648</ele>
        <time>2013-05-11T12:27:20Z</time>
      </trkpt>
      <trkpt lat="43.42472" lon="6.05214">
        <ele>289.39999389648</ele>
        <time>2013-05-11T12:27:44Z</time>
      </trkpt>
      <trkpt lat="43.42472" lon="6.05214">
        <ele>289.39999389648</ele>
        <time>2013-05-11T12:27:59Z</time>
      </trkpt>
      <trkpt lat="43.42472" lon="6.05214">
        <ele>289.39999389648</ele>
        <time>2013-05-11T12:28:26Z</time>
      </trkpt>
      <trkpt lat="43.42472" lon="6.05214">
        <ele>289.39999389648</ele>
        <time>2013-05-11T12:28:46Z</time>
      </trkpt>
      <trkpt lat="43.42476" lon="6.05215">
        <ele>289.39999389648</ele>
        <time>2013-05-11T12:28:53Z</time>
      </trkpt>
      <trkpt lat="43.42482" lon="6.05217">
        <ele>289.39999389648</ele>
        <time>2013-05-11T12:28:57Z</time>
      </trkpt>
      <trkpt lat="43.42484" lon="6.05218">
        <ele>289.39999389648</ele>
        <time>2013-05-11T12:28:58Z</time>
      </trkpt>
      <trkpt lat="43.42494" lon="6.05223">
        <ele>289.39999389648</ele>
        <time>2013-05-11T12:29:03Z</time>
      </trkpt>
      <trkpt lat="43.42505" lon="6.05227">
        <ele>289.39999389648</ele>
        <time>2013-05-11T12:29:08Z</time>
      </trkpt>
      <trkpt lat="43.42516" lon="6.05228">
        <ele>289.39999389648</ele>
        <time>2013-05-11T12:29:13Z</time>
      </trkpt>
      <trkpt lat="43.42525" lon="6.05227">
        <ele>289.39999389648</ele>
        <time>2013-05-11T12:29:18Z</time>
      </trkpt>
      <trkpt lat="43.42533" lon="6.05225">
        <ele>289.39999389648</ele>
        <time>2013-05-11T12:29:22Z</time>
      </trkpt>
      <trkpt lat="43.42538" lon="6.05224">
        <ele>289.39999389648</ele>
        <time>2013-05-11T12:29:24Z</time>
      </trkpt>
      <trkpt lat="43.42544" lon="6.05222">
        <ele>289.39999389648</ele>
        <time>2013-05-11T12:29:26Z</time>
      </trkpt>
      <trkpt lat="43.4255" lon="6.0522">
        <ele>289.39999389648</ele>
        <time>2013-05-11T12:29:29Z</time>
      </trkpt>
      <trkpt lat="43.42551" lon="6.05219">
        <ele>289.39999389648</ele>
        <time>2013-05-11T12:29:30Z</time>
      </trkpt>
      <trkpt lat="43.42554" lon="6.05217">
        <ele>289.39999389648</ele>
        <time>2013-05-11T12:29:32Z</time>
      </trkpt>
      <trkpt lat="43.4256" lon="6.05219">
        <ele>290.20001220703</ele>
        <time>2013-05-11T12:29:35Z</time>
      </trkpt>
      <trkpt lat="43.42564" lon="6.05221">
        <ele>291</ele>
        <time>2013-05-11T12:29:37Z</time>
      </trkpt>
      <trkpt lat="43.42566" lon="6.05221">
        <ele>291.39999389648</ele>
        <time>2013-05-11T12:29:38Z</time>
      </trkpt>
      <trkpt lat="43.42578" lon="6.05224">
        <ele>291.39999389648</ele>
        <time>2013-05-11T12:29:44Z</time>
      </trkpt>
      <trkpt lat="43.4259" lon="6.05235">
        <ele>291.39999389648</ele>
        <time>2013-05-11T12:29:50Z</time>
      </trkpt>
      <trkpt lat="43.42603" lon="6.05246">
        <ele>291.39999389648</ele>
        <time>2013-05-11T12:29:58Z</time>
      </trkpt>
      <trkpt lat="43.4261" lon="6.05253">
        <ele>291.39999389648</ele>
        <time>2013-05-11T12:30:03Z</time>
      </trkpt>
      <trkpt lat="43.42619" lon="6.05259">
        <ele>291.39999389648</ele>
        <time>2013-05-11T12:30:08Z</time>
      </trkpt>
      <trkpt lat="43.42624" lon="6.05263">
        <ele>291.79998779297</ele>
        <time>2013-05-11T12:30:13Z</time>
      </trkpt>
      <trkpt lat="43.42627" lon="6.05267">
        <ele>293.20001220703</ele>
        <time>2013-05-11T12:30:16Z</time>
      </trkpt>
      <trkpt lat="43.42632" lon="6.05271">
        <ele>293.60000610352</ele>
        <time>2013-05-11T12:30:20Z</time>
      </trkpt>
      <trkpt lat="43.42636" lon="6.05274">
        <ele>293.60000610352</ele>
        <time>2013-05-11T12:30:24Z</time>
      </trkpt>
      <trkpt lat="43.42636" lon="6.05274">
        <ele>293.60000610352</ele>
        <time>2013-05-11T12:30:44Z</time>
      </trkpt>
      <trkpt lat="43.42636" lon="6.05274">
        <ele>293.60000610352</ele>
        <time>2013-05-11T12:31:03Z</time>
      </trkpt>
      <trkpt lat="43.42636" lon="6.05274">
        <ele>293.60000610352</ele>
        <time>2013-05-11T12:31:06Z</time>
      </trkpt>
      <trkpt lat="43.42636" lon="6.05274">
        <ele>293.60000610352</ele>
        <time>2013-05-11T12:31:13Z</time>
      </trkpt>
      <trkpt lat="43.42636" lon="6.05274">
        <ele>293.60000610352</ele>
        <time>2013-05-11T12:31:26Z</time>
      </trkpt>
      <trkpt lat="43.42638" lon="6.05275">
        <ele>293.60000610352</ele>
        <time>2013-05-11T12:31:32Z</time>
      </trkpt>
      <trkpt lat="43.42648" lon="6.05285">
        <ele>293.60000610352</ele>
        <time>2013-05-11T12:31:40Z</time>
      </trkpt>
      <trkpt lat="43.42653" lon="6.05293">
        <ele>293.60000610352</ele>
        <time>2013-05-11T12:31:45Z</time>
      </trkpt>
      <trkpt lat="43.42658" lon="6.05303">
        <ele>294</ele>
        <time>2013-05-11T12:31:51Z</time>
      </trkpt>
      <trkpt lat="43.42661" lon="6.05306">
        <ele>294.79998779297</ele>
        <time>2013-05-11T12:31:53Z</time>
      </trkpt>
      <trkpt lat="43.42662" lon="6.05308">
        <ele>295.39999389648</ele>
        <time>2013-05-11T12:31:54Z</time>
      </trkpt>
      <trkpt lat="43.42664" lon="6.05313">
        <ele>295.79998779297</ele>
        <time>2013-05-11T12:31:57Z</time>
      </trkpt>
      <trkpt lat="43.42666" lon="6.05315">
        <ele>295.79998779297</ele>
        <time>2013-05-11T12:31:58Z</time>
      </trkpt>
      <trkpt lat="43.4267" lon="6.05321">
        <ele>295.79998779297</ele>
        <time>2013-05-11T12:32:01Z</time>
      </trkpt>
      <trkpt lat="43.42671" lon="6.05323">
        <ele>295.79998779297</ele>
        <time>2013-05-11T12:32:02Z</time>
      </trkpt>
      <trkpt lat="43.42675" lon="6.05328">
        <ele>295.79998779297</ele>
        <time>2013-05-11T12:32:04Z</time>
      </trkpt>
      <trkpt lat="43.42678" lon="6.05332">
        <ele>296.20001220703</ele>
        <time>2013-05-11T12:32:06Z</time>
      </trkpt>
      <trkpt lat="43.42679" lon="6.05334">
        <ele>296.60000610352</ele>
        <time>2013-05-11T12:32:07Z</time>
      </trkpt>
      <trkpt lat="43.4268" lon="6.05336">
        <ele>297</ele>
        <time>2013-05-11T12:32:08Z</time>
      </trkpt>
      <trkpt lat="43.42682" lon="6.05337">
        <ele>297.39999389648</ele>
        <time>2013-05-11T12:32:09Z</time>
      </trkpt>
      <trkpt lat="43.42682" lon="6.05338">
        <ele>297.79998779297</ele>
        <time>2013-05-11T12:32:10Z</time>
      </trkpt>
      <trkpt lat="43.42683" lon="6.05339">
        <ele>297.79998779297</ele>
        <time>2013-05-11T12:32:11Z</time>
      </trkpt>
      <trkpt lat="43.42683" lon="6.05339">
        <ele>297.79998779297</ele>
        <time>2013-05-11T12:32:17Z</time>
      </trkpt>
      <trkpt lat="43.42683" lon="6.05339">
        <ele>300</ele>
        <time>2013-05-11T12:32:31Z</time>
      </trkpt>
      <trkpt lat="43.42683" lon="6.05339">
        <ele>300</ele>
        <time>2013-05-11T12:32:47Z</time>
      </trkpt>
      <trkpt lat="43.42683" lon="6.0534">
        <ele>300</ele>
        <time>2013-05-11T12:32:49Z</time>
      </trkpt>
      <trkpt lat="43.42686" lon="6.05341">
        <ele>300</ele>
        <time>2013-05-11T12:32:51Z</time>
      </trkpt>
      <trkpt lat="43.42694" lon="6.05344">
        <ele>300</ele>
        <time>2013-05-11T12:32:57Z</time>
      </trkpt>
      <trkpt lat="43.42696" lon="6.05344">
        <ele>300</ele>
        <time>2013-05-11T12:32:58Z</time>
      </trkpt>
      <trkpt lat="43.42704" lon="6.05342">
        <ele>300</ele>
        <time>2013-05-11T12:33:02Z</time>
      </trkpt>
      <trkpt lat="43.42709" lon="6.05342">
        <ele>300</ele>
        <time>2013-05-11T12:33:04Z</time>
      </trkpt>
      <trkpt lat="43.42715" lon="6.05344">
        <ele>300.79998779297</ele>
        <time>2013-05-11T12:33:07Z</time>
      </trkpt>
      <trkpt lat="43.42719" lon="6.05347">
        <ele>301.79998779297</ele>
        <time>2013-05-11T12:33:09Z</time>
      </trkpt>
      <trkpt lat="43.42719" lon="6.0535">
        <ele>302.20001220703</ele>
        <time>2013-05-11T12:33:10Z</time>
      </trkpt>
      <trkpt lat="43.4272" lon="6.05359">
        <ele>302.20001220703</ele>
        <time>2013-05-11T12:33:15Z</time>
      </trkpt>
      <trkpt lat="43.42719" lon="6.05363">
        <ele>302.20001220703</ele>
        <time>2013-05-11T12:33:17Z</time>
      </trkpt>
      <trkpt lat="43.42718" lon="6.05379">
        <ele>302.20001220703</ele>
        <time>2013-05-11T12:33:24Z</time>
      </trkpt>
      <trkpt lat="43.42717" lon="6.05385">
        <ele>303.39999389648</ele>
        <time>2013-05-11T12:33:27Z</time>
      </trkpt>
      <trkpt lat="43.42721" lon="6.05391">
        <ele>304.20001220703</ele>
        <time>2013-05-11T12:33:30Z</time>
      </trkpt>
      <trkpt lat="43.42725" lon="6.05404">
        <ele>304.20001220703</ele>
        <time>2013-05-11T12:33:37Z</time>
      </trkpt>
      <trkpt lat="43.42727" lon="6.05411">
        <ele>304.20001220703</ele>
        <time>2013-05-11T12:33:41Z</time>
      </trkpt>
      <trkpt lat="43.42728" lon="6.05413">
        <ele>304.60000610352</ele>
        <time>2013-05-11T12:33:42Z</time>
      </trkpt>
      <trkpt lat="43.42728" lon="6.05414">
        <ele>305.20001220703</ele>
        <time>2013-05-11T12:33:43Z</time>
      </trkpt>
      <trkpt lat="43.42728" lon="6.05417">
        <ele>305.60000610352</ele>
        <time>2013-05-11T12:33:44Z</time>
      </trkpt>
      <trkpt lat="43.42729" lon="6.0542">
        <ele>306.60000610352</ele>
        <time>2013-05-11T12:33:46Z</time>
      </trkpt>
      <trkpt lat="43.42732" lon="6.05437">
        <ele>306.60000610352</ele>
        <time>2013-05-11T12:33:54Z</time>
      </trkpt>
      <trkpt lat="43.4273" lon="6.0545">
        <ele>307.79998779297</ele>
        <time>2013-05-11T12:34:00Z</time>
      </trkpt>
      <trkpt lat="43.4273" lon="6.05454">
        <ele>308.60000610352</ele>
        <time>2013-05-11T12:34:02Z</time>
      </trkpt>
      <trkpt lat="43.42729" lon="6.05456">
        <ele>308.60000610352</ele>
        <time>2013-05-11T12:34:03Z</time>
      </trkpt>
      <trkpt lat="43.42723" lon="6.05468">
        <ele>308.60000610352</ele>
        <time>2013-05-11T12:34:10Z</time>
      </trkpt>
      <trkpt lat="43.42724" lon="6.05483">
        <ele>308.60000610352</ele>
        <time>2013-05-11T12:34:17Z</time>
      </trkpt>
      <trkpt lat="43.42727" lon="6.05506">
        <ele>310.79998779297</ele>
        <time>2013-05-11T12:34:27Z</time>
      </trkpt>
      <trkpt lat="43.42728" lon="6.05513">
        <ele>310.79998779297</ele>
        <time>2013-05-11T12:34:30Z</time>
      </trkpt>
      <trkpt lat="43.4273" lon="6.05527">
        <ele>310.79998779297</ele>
        <time>2013-05-11T12:34:36Z</time>
      </trkpt>
      <trkpt lat="43.42731" lon="6.05539">
        <ele>310.79998779297</ele>
        <time>2013-05-11T12:34:42Z</time>
      </trkpt>
      <trkpt lat="43.42735" lon="6.05554">
        <ele>312.79998779297</ele>
        <time>2013-05-11T12:34:49Z</time>
      </trkpt>
      <trkpt lat="43.42738" lon="6.05567">
        <ele>312.79998779297</ele>
        <time>2013-05-11T12:34:55Z</time>
      </trkpt>
      <trkpt lat="43.42739" lon="6.05568">
        <ele>312.79998779297</ele>
        <time>2013-05-11T12:34:56Z</time>
      </trkpt>
      <trkpt lat="43.42751" lon="6.05581">
        <ele>314.79998779297</ele>
        <time>2013-05-11T12:35:06Z</time>
      </trkpt>
      <trkpt lat="43.42754" lon="6.0559">
        <ele>315.20001220703</ele>
        <time>2013-05-11T12:35:11Z</time>
      </trkpt>
      <trkpt lat="43.42755" lon="6.05594">
        <ele>316.20001220703</ele>
        <time>2013-05-11T12:35:13Z</time>
      </trkpt>
      <trkpt lat="43.42755" lon="6.05597">
        <ele>317</ele>
        <time>2013-05-11T12:35:15Z</time>
      </trkpt>
      <trkpt lat="43.42755" lon="6.05601">
        <ele>317</ele>
        <time>2013-05-11T12:35:17Z</time>
      </trkpt>
      <trkpt lat="43.42754" lon="6.05609">
        <ele>317</ele>
        <time>2013-05-11T12:35:21Z</time>
      </trkpt>
      <trkpt lat="43.42752" lon="6.05613">
        <ele>317.39999389648</ele>
        <time>2013-05-11T12:35:23Z</time>
      </trkpt>
      <trkpt lat="43.42751" lon="6.05617">
        <ele>318.79998779297</ele>
        <time>2013-05-11T12:35:26Z</time>
      </trkpt>
      <trkpt lat="43.42751" lon="6.05619">
        <ele>319.20001220703</ele>
        <time>2013-05-11T12:35:27Z</time>
      </trkpt>
      <trkpt lat="43.42751" lon="6.0562">
        <ele>319.20001220703</ele>
        <time>2013-05-11T12:35:32Z</time>
      </trkpt>
      <trkpt lat="43.42751" lon="6.0562">
        <ele>319.20001220703</ele>
        <time>2013-05-11T12:35:38Z</time>
      </trkpt>
      <trkpt lat="43.42751" lon="6.05622">
        <ele>319.20001220703</ele>
        <time>2013-05-11T12:35:39Z</time>
      </trkpt>
      <trkpt lat="43.42749" lon="6.05624">
        <ele>319.20001220703</ele>
        <time>2013-05-11T12:35:40Z</time>
      </trkpt>
      <trkpt lat="43.42743" lon="6.05636">
        <ele>319.20001220703</ele>
        <time>2013-05-11T12:35:48Z</time>
      </trkpt>
      <trkpt lat="43.42736" lon="6.05641">
        <ele>319.20001220703</ele>
        <time>2013-05-11T12:35:53Z</time>
      </trkpt>
      <trkpt lat="43.42733" lon="6.05646">
        <ele>320.39999389648</ele>
        <time>2013-05-11T12:35:56Z</time>
      </trkpt>
      <trkpt lat="43.4273" lon="6.05651">
        <ele>321.39999389648</ele>
        <time>2013-05-11T12:35:59Z</time>
      </trkpt>
      <trkpt lat="43.42725" lon="6.05662">
        <ele>321.39999389648</ele>
        <time>2013-05-11T12:36:05Z</time>
      </trkpt>
      <trkpt lat="43.4272" lon="6.05673">
        <ele>321.39999389648</ele>
        <time>2013-05-11T12:36:11Z</time>
      </trkpt>
      <trkpt lat="43.42719" lon="6.05676">
        <ele>321.79998779297</ele>
        <time>2013-05-11T12:36:13Z</time>
      </trkpt>
      <trkpt lat="43.42716" lon="6.05677">
        <ele>322.60000610352</ele>
        <time>2013-05-11T12:36:15Z</time>
      </trkpt>
      <trkpt lat="43.42713" lon="6.05679">
        <ele>323.39999389648</ele>
        <time>2013-05-11T12:36:17Z</time>
      </trkpt>
      <trkpt lat="43.42708" lon="6.05687">
        <ele>323.39999389648</ele>
        <time>2013-05-11T12:36:23Z</time>
      </trkpt>
      <trkpt lat="43.42705" lon="6.05699">
        <ele>323.39999389648</ele>
        <time>2013-05-11T12:36:28Z</time>
      </trkpt>
      <trkpt lat="43.42705" lon="6.05701">
        <ele>323.79998779297</ele>
        <time>2013-05-11T12:36:29Z</time>
      </trkpt>
      <trkpt lat="43.42705" lon="6.05702">
        <ele>324.39999389648</ele>
        <time>2013-05-11T12:36:30Z</time>
      </trkpt>
      <trkpt lat="43.42705" lon="6.05703">
        <ele>324.79998779297</ele>
        <time>2013-05-11T12:36:31Z</time>
      </trkpt>
      <trkpt lat="43.42704" lon="6.05704">
        <ele>325.20001220703</ele>
        <time>2013-05-11T12:36:32Z</time>
      </trkpt>
      <trkpt lat="43.42704" lon="6.05706">
        <ele>325.60000610352</ele>
        <time>2013-05-11T12:36:33Z</time>
      </trkpt>
      <trkpt lat="43.42702" lon="6.05708">
        <ele>325.60000610352</ele>
        <time>2013-05-11T12:36:37Z</time>
      </trkpt>
      <trkpt lat="43.42702" lon="6.05709">
        <ele>325.60000610352</ele>
        <time>2013-05-11T12:36:39Z</time>
      </trkpt>
      <trkpt lat="43.42702" lon="6.05709">
        <ele>325.60000610352</ele>
        <time>2013-05-11T12:36:45Z</time>
      </trkpt>
      <trkpt lat="43.42701" lon="6.05712">
        <ele>325.60000610352</ele>
        <time>2013-05-11T12:36:47Z</time>
      </trkpt>
      <trkpt lat="43.427" lon="6.05719">
        <ele>325.60000610352</ele>
        <time>2013-05-11T12:36:50Z</time>
      </trkpt>
      <trkpt lat="43.42698" lon="6.05726">
        <ele>326</ele>
        <time>2013-05-11T12:36:55Z</time>
      </trkpt>
      <trkpt lat="43.42698" lon="6.05728">
        <ele>326.39999389648</ele>
        <time>2013-05-11T12:36:56Z</time>
      </trkpt>
      <trkpt lat="43.42698" lon="6.0573">
        <ele>326.79998779297</ele>
        <time>2013-05-11T12:36:57Z</time>
      </trkpt>
      <trkpt lat="43.42698" lon="6.05732">
        <ele>327.20001220703</ele>
        <time>2013-05-11T12:36:58Z</time>
      </trkpt>
      <trkpt lat="43.42698" lon="6.05734">
        <ele>327.79998779297</ele>
        <time>2013-05-11T12:36:59Z</time>
      </trkpt>
      <trkpt lat="43.42699" lon="6.05736">
        <ele>327.79998779297</ele>
        <time>2013-05-11T12:37:01Z</time>
      </trkpt>
      <trkpt lat="43.42702" lon="6.05737">
        <ele>327.79998779297</ele>
        <time>2013-05-11T12:37:06Z</time>
      </trkpt>
      <trkpt lat="43.42702" lon="6.05737">
        <ele>329.79998779297</ele>
        <time>2013-05-11T12:37:23Z</time>
      </trkpt>
      <trkpt lat="43.42702" lon="6.05737">
        <ele>329.79998779297</ele>
        <time>2013-05-11T12:37:35Z</time>
      </trkpt>
      <trkpt lat="43.42701" lon="6.05738">
        <ele>329.79998779297</ele>
        <time>2013-05-11T12:37:40Z</time>
      </trkpt>
      <trkpt lat="43.42701" lon="6.05738">
        <ele>329.79998779297</ele>
        <time>2013-05-11T12:37:42Z</time>
      </trkpt>
      <trkpt lat="43.427" lon="6.05738">
        <ele>329.79998779297</ele>
        <time>2013-05-11T12:37:47Z</time>
      </trkpt>
      <trkpt lat="43.427" lon="6.05738">
        <ele>329.79998779297</ele>
        <time>2013-05-11T12:38:02Z</time>
      </trkpt>
      <trkpt lat="43.427" lon="6.05737">
        <ele>329.79998779297</ele>
        <time>2013-05-11T12:38:15Z</time>
      </trkpt>
      <trkpt lat="43.42702" lon="6.05737">
        <ele>329.79998779297</ele>
        <time>2013-05-11T12:38:18Z</time>
      </trkpt>
      <trkpt lat="43.42706" lon="6.05738">
        <ele>329.79998779297</ele>
        <time>2013-05-11T12:38:21Z</time>
      </trkpt>
      <trkpt lat="43.42711" lon="6.05738">
        <ele>329.79998779297</ele>
        <time>2013-05-11T12:38:24Z</time>
      </trkpt>
      <trkpt lat="43.42715" lon="6.05738">
        <ele>329.79998779297</ele>
        <time>2013-05-11T12:38:26Z</time>
      </trkpt>
      <trkpt lat="43.42733" lon="6.0574">
        <ele>329.79998779297</ele>
        <time>2013-05-11T12:38:34Z</time>
      </trkpt>
      <trkpt lat="43.42744" lon="6.05741">
        <ele>329.79998779297</ele>
        <time>2013-05-11T12:38:40Z</time>
      </trkpt>
      <trkpt lat="43.42754" lon="6.05741">
        <ele>329.79998779297</ele>
        <time>2013-05-11T12:38:45Z</time>
      </trkpt>
      <trkpt lat="43.42756" lon="6.05739">
        <ele>329.79998779297</ele>
        <time>2013-05-11T12:38:46Z</time>
      </trkpt>
      <trkpt lat="43.42759" lon="6.05735">
        <ele>330.60000610352</ele>
        <time>2013-05-11T12:38:48Z</time>
      </trkpt>
      <trkpt lat="43.42764" lon="6.05731">
        <ele>331.79998779297</ele>
        <time>2013-05-11T12:38:50Z</time>
      </trkpt>
      <trkpt lat="43.42768" lon="6.05729">
        <ele>331.79998779297</ele>
        <time>2013-05-11T12:38:52Z</time>
      </trkpt>
      <trkpt lat="43.42775" lon="6.0573">
        <ele>331.79998779297</ele>
        <time>2013-05-11T12:38:57Z</time>
      </trkpt>
      <trkpt lat="43.4278" lon="6.05734">
        <ele>331.79998779297</ele>
        <time>2013-05-11T12:39:02Z</time>
      </trkpt>
      <trkpt lat="43.42781" lon="6.05734">
        <ele>331.79998779297</ele>
        <time>2013-05-11T12:39:03Z</time>
      </trkpt>
      <trkpt lat="43.42786" lon="6.05736">
        <ele>331.79998779297</ele>
        <time>2013-05-11T12:39:06Z</time>
      </trkpt>
      <trkpt lat="43.4279" lon="6.05739">
        <ele>331.79998779297</ele>
        <time>2013-05-11T12:39:09Z</time>
      </trkpt>
      <trkpt lat="43.42792" lon="6.05741">
        <ele>331.79998779297</ele>
        <time>2013-05-11T12:39:11Z</time>
      </trkpt>
      <trkpt lat="43.42801" lon="6.05743">
        <ele>331.79998779297</ele>
        <time>2013-05-11T12:39:17Z</time>
      </trkpt>
      <trkpt lat="43.42806" lon="6.05736">
        <ele>331.79998779297</ele>
        <time>2013-05-11T12:39:21Z</time>
      </trkpt>
      <trkpt lat="43.42817" lon="6.05737">
        <ele>331.79998779297</ele>
        <time>2013-05-11T12:39:24Z</time>
      </trkpt>
      <trkpt lat="43.42824" lon="6.05736">
        <ele>331.79998779297</ele>
        <time>2013-05-11T12:39:27Z</time>
      </trkpt>
      <trkpt lat="43.42826" lon="6.05737">
        <ele>331.79998779297</ele>
        <time>2013-05-11T12:39:28Z</time>
      </trkpt>
      <trkpt lat="43.42829" lon="6.05744">
        <ele>331.79998779297</ele>
        <time>2013-05-11T12:39:32Z</time>
      </trkpt>
      <trkpt lat="43.42829" lon="6.05745">
        <ele>331.79998779297</ele>
        <time>2013-05-11T12:39:33Z</time>
      </trkpt>
      <trkpt lat="43.4283" lon="6.05755">
        <ele>331.79998779297</ele>
        <time>2013-05-11T12:39:38Z</time>
      </trkpt>
      <trkpt lat="43.42829" lon="6.05757">
        <ele>331.79998779297</ele>
        <time>2013-05-11T12:39:39Z</time>
      </trkpt>
      <trkpt lat="43.42828" lon="6.05764">
        <ele>332.39999389648</ele>
        <time>2013-05-11T12:39:42Z</time>
      </trkpt>
      <trkpt lat="43.42828" lon="6.05771">
        <ele>333.20001220703</ele>
        <time>2013-05-11T12:39:44Z</time>
      </trkpt>
      <trkpt lat="43.42826" lon="6.05774">
        <ele>333.60000610352</ele>
        <time>2013-05-11T12:39:45Z</time>
      </trkpt>
      <trkpt lat="43.42825" lon="6.05778">
        <ele>334</ele>
        <time>2013-05-11T12:39:46Z</time>
      </trkpt>
      <trkpt lat="43.42825" lon="6.05793">
        <ele>334</ele>
        <time>2013-05-11T12:39:50Z</time>
      </trkpt>
      <trkpt lat="43.42823" lon="6.05803">
        <ele>334</ele>
        <time>2013-05-11T12:39:53Z</time>
      </trkpt>
      <trkpt lat="43.42822" lon="6.05811">
        <ele>334</ele>
        <time>2013-05-11T12:39:56Z</time>
      </trkpt>
      <trkpt lat="43.42819" lon="6.0583">
        <ele>334</ele>
        <time>2013-05-11T12:40:01Z</time>
      </trkpt>
      <trkpt lat="43.42815" lon="6.05841">
        <ele>335</ele>
        <time>2013-05-11T12:40:06Z</time>
      </trkpt>
      <trkpt lat="43.42814" lon="6.05845">
        <ele>335.79998779297</ele>
        <time>2013-05-11T12:40:08Z</time>
      </trkpt>
      <trkpt lat="43.42813" lon="6.05847">
        <ele>336.20001220703</ele>
        <time>2013-05-11T12:40:09Z</time>
      </trkpt>
      <trkpt lat="43.42812" lon="6.05853">
        <ele>336.20001220703</ele>
        <time>2013-05-11T12:40:11Z</time>
      </trkpt>
      <trkpt lat="43.4281" lon="6.0586">
        <ele>336.60000610352</ele>
        <time>2013-05-11T12:40:14Z</time>
      </trkpt>
      <trkpt lat="43.42805" lon="6.0587">
        <ele>338.39999389648</ele>
        <time>2013-05-11T12:40:18Z</time>
      </trkpt>
      <trkpt lat="43.42804" lon="6.05876">
        <ele>338.39999389648</ele>
        <time>2013-05-11T12:40:21Z</time>
      </trkpt>
      <trkpt lat="43.42799" lon="6.0589">
        <ele>340.39999389648</ele>
        <time>2013-05-11T12:40:27Z</time>
      </trkpt>
      <trkpt lat="43.42795" lon="6.05898">
        <ele>342.20001220703</ele>
        <time>2013-05-11T12:40:32Z</time>
      </trkpt>
      <trkpt lat="43.42793" lon="6.05903">
        <ele>342.60000610352</ele>
        <time>2013-05-11T12:40:35Z</time>
      </trkpt>
      <trkpt lat="43.42788" lon="6.05915">
        <ele>342.60000610352</ele>
        <time>2013-05-11T12:40:42Z</time>
      </trkpt>
      <trkpt lat="43.42787" lon="6.0592">
        <ele>343.39999389648</ele>
        <time>2013-05-11T12:40:44Z</time>
      </trkpt>
      <trkpt lat="43.42785" lon="6.05927">
        <ele>344.60000610352</ele>
        <time>2013-05-11T12:40:47Z</time>
      </trkpt>
      <trkpt lat="43.42785" lon="6.05934">
        <ele>345.20001220703</ele>
        <time>2013-05-11T12:40:50Z</time>
      </trkpt>
      <trkpt lat="43.42783" lon="6.05945">
        <ele>347.79998779297</ele>
        <time>2013-05-11T12:40:54Z</time>
      </trkpt>
      <trkpt lat="43.4278" lon="6.05963">
        <ele>347.79998779297</ele>
        <time>2013-05-11T12:41:02Z</time>
      </trkpt>
      <trkpt lat="43.42777" lon="6.05977">
        <ele>347.79998779297</ele>
        <time>2013-05-11T12:41:08Z</time>
      </trkpt>
      <trkpt lat="43.42776" lon="6.05987">
        <ele>347.79998779297</ele>
        <time>2013-05-11T12:41:12Z</time>
      </trkpt>
      <trkpt lat="43.42776" lon="6.05989">
        <ele>347.79998779297</ele>
        <time>2013-05-11T12:41:13Z</time>
      </trkpt>
      <trkpt lat="43.42776" lon="6.0599">
        <ele>347.79998779297</ele>
        <time>2013-05-11T12:41:14Z</time>
      </trkpt>
      <trkpt lat="43.42776" lon="6.0599">
        <ele>347.79998779297</ele>
        <time>2013-05-11T12:41:17Z</time>
      </trkpt>
      <trkpt lat="43.42776" lon="6.0599">
        <ele>347.79998779297</ele>
        <time>2013-05-11T12:41:28Z</time>
      </trkpt>
      <trkpt lat="43.42776" lon="6.0599">
        <ele>347.79998779297</ele>
        <time>2013-05-11T12:41:44Z</time>
      </trkpt>
      <trkpt lat="43.42775" lon="6.0599">
        <ele>347.79998779297</ele>
        <time>2013-05-11T12:41:47Z</time>
      </trkpt>
      <trkpt lat="43.42775" lon="6.0599">
        <ele>347.79998779297</ele>
        <time>2013-05-11T12:41:55Z</time>
      </trkpt>
      <trkpt lat="43.42775" lon="6.0599">
        <ele>347.79998779297</ele>
        <time>2013-05-11T12:42:03Z</time>
      </trkpt>
      <trkpt lat="43.42775" lon="6.0599">
        <ele>347.79998779297</ele>
        <time>2013-05-11T12:42:09Z</time>
      </trkpt>
      <trkpt lat="43.42776" lon="6.05991">
        <ele>347.79998779297</ele>
        <time>2013-05-11T12:42:12Z</time>
      </trkpt>
      <trkpt lat="43.42776" lon="6.05991">
        <ele>347.79998779297</ele>
        <time>2013-05-11T12:42:13Z</time>
      </trkpt>
      <trkpt lat="43.42779" lon="6.05992">
        <ele>347.79998779297</ele>
        <time>2013-05-11T12:42:19Z</time>
      </trkpt>
      <trkpt lat="43.42781" lon="6.05993">
        <ele>347.79998779297</ele>
        <time>2013-05-11T12:42:20Z</time>
      </trkpt>
      <trkpt lat="43.42791" lon="6.05992">
        <ele>347.20001220703</ele>
        <time>2013-05-11T12:42:23Z</time>
      </trkpt>
      <trkpt lat="43.42795" lon="6.05991">
        <ele>346.79998779297</ele>
        <time>2013-05-11T12:42:24Z</time>
      </trkpt>
      <trkpt lat="43.42805" lon="6.05992">
        <ele>345.60000610352</ele>
        <time>2013-05-11T12:42:26Z</time>
      </trkpt>
      <trkpt lat="43.42809" lon="6.05993">
        <ele>345</ele>
        <time>2013-05-11T12:42:27Z</time>
      </trkpt>
      <trkpt lat="43.42813" lon="6.05994">
        <ele>344.20001220703</ele>
        <time>2013-05-11T12:42:28Z</time>
      </trkpt>
      <trkpt lat="43.42815" lon="6.05994">
        <ele>343.60000610352</ele>
        <time>2013-05-11T12:42:29Z</time>
      </trkpt>
      <trkpt lat="43.42817" lon="6.05995">
        <ele>343</ele>
        <time>2013-05-11T12:42:30Z</time>
      </trkpt>
      <trkpt lat="43.42822" lon="6.05998">
        <ele>343</ele>
        <time>2013-05-11T12:42:32Z</time>
      </trkpt>
      <trkpt lat="43.42826" lon="6.06002">
        <ele>342.39999389648</ele>
        <time>2013-05-11T12:42:34Z</time>
      </trkpt>
      <trkpt lat="43.4284" lon="6.06019">
        <ele>340.79998779297</ele>
        <time>2013-05-11T12:42:37Z</time>
      </trkpt>
      <trkpt lat="43.42846" lon="6.06032">
        <ele>339.60000610352</ele>
        <time>2013-05-11T12:42:39Z</time>
      </trkpt>
      <trkpt lat="43.4285" lon="6.06038">
        <ele>339</ele>
        <time>2013-05-11T12:42:40Z</time>
      </trkpt>
      <trkpt lat="43.42854" lon="6.06043">
        <ele>338.20001220703</ele>
        <time>2013-05-11T12:42:41Z</time>
      </trkpt>
      <trkpt lat="43.42858" lon="6.06046">
        <ele>337.60000610352</ele>
        <time>2013-05-11T12:42:42Z</time>
      </trkpt>
      <trkpt lat="43.42862" lon="6.06049">
        <ele>336.79998779297</ele>
        <time>2013-05-11T12:42:43Z</time>
      </trkpt>
      <trkpt lat="43.42865" lon="6.06052">
        <ele>336</ele>
        <time>2013-05-11T12:42:44Z</time>
      </trkpt>
      <trkpt lat="43.42867" lon="6.06057">
        <ele>335.20001220703</ele>
        <time>2013-05-11T12:42:45Z</time>
      </trkpt>
      <trkpt lat="43.4287" lon="6.06065">
        <ele>333.60000610352</ele>
        <time>2013-05-11T12:42:47Z</time>
      </trkpt>
      <trkpt lat="43.42871" lon="6.06074">
        <ele>332</ele>
        <time>2013-05-11T12:42:49Z</time>
      </trkpt>
      <trkpt lat="43.4287" lon="6.06077">
        <ele>331.20001220703</ele>
        <time>2013-05-11T12:42:50Z</time>
      </trkpt>
      <trkpt lat="43.4287" lon="6.0608">
        <ele>330.39999389648</ele>
        <time>2013-05-11T12:42:51Z</time>
      </trkpt>
      <trkpt lat="43.42868" lon="6.06083">
        <ele>329.79998779297</ele>
        <time>2013-05-11T12:42:52Z</time>
      </trkpt>
      <trkpt lat="43.42868" lon="6.06087">
        <ele>329</ele>
        <time>2013-05-11T12:42:53Z</time>
      </trkpt>
      <trkpt lat="43.42867" lon="6.06097">
        <ele>328.60000610352</ele>
        <time>2013-05-11T12:42:55Z</time>
      </trkpt>
      <trkpt lat="43.42867" lon="6.06103">
        <ele>328.20001220703</ele>
        <time>2013-05-11T12:42:56Z</time>
      </trkpt>
      <trkpt lat="43.42868" lon="6.06113">
        <ele>327</ele>
        <time>2013-05-11T12:42:58Z</time>
      </trkpt>
      <trkpt lat="43.42866" lon="6.06118">
        <ele>326.39999389648</ele>
        <time>2013-05-11T12:42:59Z</time>
      </trkpt>
      <trkpt lat="43.42865" lon="6.06125">
        <ele>325.79998779297</ele>
        <time>2013-05-11T12:43:00Z</time>
      </trkpt>
      <trkpt lat="43.42867" lon="6.0613">
        <ele>325.20001220703</ele>
        <time>2013-05-11T12:43:01Z</time>
      </trkpt>
      <trkpt lat="43.42869" lon="6.06136">
        <ele>324.60000610352</ele>
        <time>2013-05-11T12:43:02Z</time>
      </trkpt>
      <trkpt lat="43.4287" lon="6.06141">
        <ele>324.20001220703</ele>
        <time>2013-05-11T12:43:03Z</time>
      </trkpt>
      <trkpt lat="43.42871" lon="6.06147">
        <ele>323.60000610352</ele>
        <time>2013-05-11T12:43:04Z</time>
      </trkpt>
      <trkpt lat="43.42871" lon="6.06159">
        <ele>322.39999389648</ele>
        <time>2013-05-11T12:43:06Z</time>
      </trkpt>
      <trkpt lat="43.42873" lon="6.0617">
        <ele>321.39999389648</ele>
        <time>2013-05-11T12:43:08Z</time>
      </trkpt>
      <trkpt lat="43.42875" lon="6.06179">
        <ele>320.20001220703</ele>
        <time>2013-05-11T12:43:10Z</time>
      </trkpt>
      <trkpt lat="43.42876" lon="6.06184">
        <ele>319.60000610352</ele>
        <time>2013-05-11T12:43:11Z</time>
      </trkpt>
      <trkpt lat="43.42876" lon="6.06187">
        <ele>319</ele>
        <time>2013-05-11T12:43:12Z</time>
      </trkpt>
      <trkpt lat="43.42877" lon="6.06189">
        <ele>318.39999389648</ele>
        <time>2013-05-11T12:43:13Z</time>
      </trkpt>
      <trkpt lat="43.42878" lon="6.06193">
        <ele>317.79998779297</ele>
        <time>2013-05-11T12:43:14Z</time>
      </trkpt>
      <trkpt lat="43.42876" lon="6.06201">
        <ele>316.60000610352</ele>
        <time>2013-05-11T12:43:16Z</time>
      </trkpt>
      <trkpt lat="43.42875" lon="6.06209">
        <ele>315.39999389648</ele>
        <time>2013-05-11T12:43:18Z</time>
      </trkpt>
      <trkpt lat="43.42874" lon="6.06215">
        <ele>315</ele>
        <time>2013-05-11T12:43:21Z</time>
      </trkpt>
      <trkpt lat="43.42873" lon="6.06215">
        <ele>314.20001220703</ele>
        <time>2013-05-11T12:43:22Z</time>
      </trkpt>
      <trkpt lat="43.42873" lon="6.06215">
        <ele>313.60000610352</ele>
        <time>2013-05-11T12:43:23Z</time>
      </trkpt>
      <trkpt lat="43.42873" lon="6.06215">
        <ele>313.20001220703</ele>
        <time>2013-05-11T12:43:24Z</time>
      </trkpt>
      <trkpt lat="43.42873" lon="6.06215">
        <ele>313.20001220703</ele>
        <time>2013-05-11T12:43:29Z</time>
      </trkpt>
      <trkpt lat="43.42871" lon="6.06219">
        <ele>313.20001220703</ele>
        <time>2013-05-11T12:43:37Z</time>
      </trkpt>
      <trkpt lat="43.42867" lon="6.06221">
        <ele>313.20001220703</ele>
        <time>2013-05-11T12:43:39Z</time>
      </trkpt>
      <trkpt lat="43.42862" lon="6.06225">
        <ele>313.20001220703</ele>
        <time>2013-05-11T12:43:42Z</time>
      </trkpt>
      <trkpt lat="43.42857" lon="6.06239">
        <ele>312.79998779297</ele>
        <time>2013-05-11T12:43:46Z</time>
      </trkpt>
      <trkpt lat="43.42858" lon="6.06241">
        <ele>312</ele>
        <time>2013-05-11T12:43:47Z</time>
      </trkpt>
      <trkpt lat="43.4286" lon="6.06244">
        <ele>311.39999389648</ele>
        <time>2013-05-11T12:43:48Z</time>
      </trkpt>
      <trkpt lat="43.4286" lon="6.06248">
        <ele>311</ele>
        <time>2013-05-11T12:43:49Z</time>
      </trkpt>
      <trkpt lat="43.42862" lon="6.06254">
        <ele>310.20001220703</ele>
        <time>2013-05-11T12:43:51Z</time>
      </trkpt>
      <trkpt lat="43.42867" lon="6.06261">
        <ele>308.79998779297</ele>
        <time>2013-05-11T12:43:54Z</time>
      </trkpt>
      <trkpt lat="43.42875" lon="6.06263">
        <ele>307.39999389648</ele>
        <time>2013-05-11T12:43:57Z</time>
      </trkpt>
      <trkpt lat="43.42877" lon="6.06263">
        <ele>306.79998779297</ele>
        <time>2013-05-11T12:43:58Z</time>
      </trkpt>
      <trkpt lat="43.4288" lon="6.06264">
        <ele>306.39999389648</ele>
        <time>2013-05-11T12:43:59Z</time>
      </trkpt>
      <trkpt lat="43.42882" lon="6.06265">
        <ele>305.79998779297</ele>
        <time>2013-05-11T12:44:00Z</time>
      </trkpt>
      <trkpt lat="43.42886" lon="6.06268">
        <ele>305</ele>
        <time>2013-05-11T12:44:02Z</time>
      </trkpt>
      <trkpt lat="43.42891" lon="6.06271">
        <ele>304.20001220703</ele>
        <time>2013-05-11T12:44:04Z</time>
      </trkpt>
      <trkpt lat="43.42896" lon="6.06273">
        <ele>303.60000610352</ele>
        <time>2013-05-11T12:44:06Z</time>
      </trkpt>
      <trkpt lat="43.42898" lon="6.06274">
        <ele>303.20001220703</ele>
        <time>2013-05-11T12:44:07Z</time>
      </trkpt>
      <trkpt lat="43.42901" lon="6.06276">
        <ele>302.60000610352</ele>
        <time>2013-05-11T12:44:08Z</time>
      </trkpt>
      <trkpt lat="43.42905" lon="6.06279">
        <ele>301.79998779297</ele>
        <time>2013-05-11T12:44:09Z</time>
      </trkpt>
      <trkpt lat="43.42914" lon="6.06286">
        <ele>299.39999389648</ele>
        <time>2013-05-11T12:44:11Z</time>
      </trkpt>
      <trkpt lat="43.42916" lon="6.06287">
        <ele>298.60000610352</ele>
        <time>2013-05-11T12:44:12Z</time>
      </trkpt>
      <trkpt lat="43.42918" lon="6.06288">
        <ele>297.79998779297</ele>
        <time>2013-05-11T12:44:13Z</time>
      </trkpt>
      <trkpt lat="43.4292" lon="6.0629">
        <ele>297</ele>
        <time>2013-05-11T12:44:14Z</time>
      </trkpt>
      <trkpt lat="43.4292" lon="6.06289">
        <ele>296.20001220703</ele>
        <time>2013-05-11T12:44:15Z</time>
      </trkpt>
      <trkpt lat="43.4292" lon="6.06289">
        <ele>295.39999389648</ele>
        <time>2013-05-11T12:44:16Z</time>
      </trkpt>
      <trkpt lat="43.4292" lon="6.06289">
        <ele>293.79998779297</ele>
        <time>2013-05-11T12:44:31Z</time>
      </trkpt>
      <trkpt lat="43.42919" lon="6.06288">
        <ele>293.79998779297</ele>
        <time>2013-05-11T12:44:41Z</time>
      </trkpt>
      <trkpt lat="43.42914" lon="6.06285">
        <ele>293.79998779297</ele>
        <time>2013-05-11T12:44:45Z</time>
      </trkpt>
      <trkpt lat="43.42913" lon="6.06283">
        <ele>293.79998779297</ele>
        <time>2013-05-11T12:44:51Z</time>
      </trkpt>
      <trkpt lat="43.42907" lon="6.0628">
        <ele>293.79998779297</ele>
        <time>2013-05-11T12:44:54Z</time>
      </trkpt>
      <trkpt lat="43.42906" lon="6.06282">
        <ele>293.79998779297</ele>
        <time>2013-05-11T12:44:58Z</time>
      </trkpt>
      <trkpt lat="43.42906" lon="6.06283">
        <ele>294.39999389648</ele>
        <time>2013-05-11T12:45:00Z</time>
      </trkpt>
      <trkpt lat="43.42904" lon="6.06281">
        <ele>295.20001220703</ele>
        <time>2013-05-11T12:45:01Z</time>
      </trkpt>
      <trkpt lat="43.42902" lon="6.06279">
        <ele>296</ele>
        <time>2013-05-11T12:45:03Z</time>
      </trkpt>
      <trkpt lat="43.42901" lon="6.06277">
        <ele>296</ele>
        <time>2013-05-11T12:45:07Z</time>
      </trkpt>
      <trkpt lat="43.42901" lon="6.06277">
        <ele>296.39999389648</ele>
        <time>2013-05-11T12:45:10Z</time>
      </trkpt>
      <trkpt lat="43.42901" lon="6.06277">
        <ele>296.79998779297</ele>
        <time>2013-05-11T12:45:11Z</time>
      </trkpt>
      <trkpt lat="43.42901" lon="6.06277">
        <ele>297.39999389648</ele>
        <time>2013-05-11T12:45:12Z</time>
      </trkpt>
      <trkpt lat="43.42899" lon="6.06277">
        <ele>298.20001220703</ele>
        <time>2013-05-11T12:45:14Z</time>
      </trkpt>
      <trkpt lat="43.42899" lon="6.06277">
        <ele>298.20001220703</ele>
        <time>2013-05-11T12:45:16Z</time>
      </trkpt>
      <trkpt lat="43.42899" lon="6.06277">
        <ele>298.20001220703</ele>
        <time>2013-05-11T12:45:23Z</time>
      </trkpt>
      <trkpt lat="43.42899" lon="6.06277">
        <ele>298.20001220703</ele>
        <time>2013-05-11T12:45:42Z</time>
      </trkpt>
      <trkpt lat="43.42899" lon="6.06277">
        <ele>298.20001220703</ele>
        <time>2013-05-11T12:45:56Z</time>
      </trkpt>
      <trkpt lat="43.42899" lon="6.06277">
        <ele>298.20001220703</ele>
        <time>2013-05-11T12:46:01Z</time>
      </trkpt>
      <trkpt lat="43.42899" lon="6.06277">
        <ele>298.20001220703</ele>
        <time>2013-05-11T12:46:27Z</time>
      </trkpt>
      <trkpt lat="43.42899" lon="6.06276">
        <ele>298.20001220703</ele>
        <time>2013-05-11T12:47:07Z</time>
      </trkpt>
      <trkpt lat="43.42898" lon="6.06276">
        <ele>298.20001220703</ele>
        <time>2013-05-11T12:47:31Z</time>
      </trkpt>
      <trkpt lat="43.42898" lon="6.06276">
        <ele>298.20001220703</ele>
        <time>2013-05-11T12:47:48Z</time>
      </trkpt>
      <trkpt lat="43.42898" lon="6.06276">
        <ele>296.20001220703</ele>
        <time>2013-05-11T12:48:43Z</time>
      </trkpt>
      <trkpt lat="43.42898" lon="6.06276">
        <ele>296.20001220703</ele>
        <time>2013-05-11T12:49:03Z</time>
      </trkpt>
      <trkpt lat="43.42898" lon="6.06276">
        <ele>296.20001220703</ele>
        <time>2013-05-11T12:49:18Z</time>
      </trkpt>
      <trkpt lat="43.42898" lon="6.06276">
        <ele>296.20001220703</ele>
        <time>2013-05-11T12:49:27Z</time>
      </trkpt>
      <trkpt lat="43.429" lon="6.06276">
        <ele>296.20001220703</ele>
        <time>2013-05-11T12:49:30Z</time>
      </trkpt>
      <trkpt lat="43.42906" lon="6.06279">
        <ele>296.20001220703</ele>
        <time>2013-05-11T12:49:34Z</time>
      </trkpt>
      <trkpt lat="43.42911" lon="6.06283">
        <ele>296.20001220703</ele>
        <time>2013-05-11T12:49:38Z</time>
      </trkpt>
      <trkpt lat="43.42912" lon="6.06285">
        <ele>295.60000610352</ele>
        <time>2013-05-11T12:49:40Z</time>
      </trkpt>
      <trkpt lat="43.42912" lon="6.06285">
        <ele>294.39999389648</ele>
        <time>2013-05-11T12:49:43Z</time>
      </trkpt>
      <trkpt lat="43.42914" lon="6.06287">
        <ele>294</ele>
        <time>2013-05-11T12:49:44Z</time>
      </trkpt>
      <trkpt lat="43.42917" lon="6.06289">
        <ele>294</ele>
        <time>2013-05-11T12:49:47Z</time>
      </trkpt>
      <trkpt lat="43.42917" lon="6.06289">
        <ele>294</ele>
        <time>2013-05-11T12:49:51Z</time>
      </trkpt>
      <trkpt lat="43.42918" lon="6.0629">
        <ele>294</ele>
        <time>2013-05-11T12:49:58Z</time>
      </trkpt>
      <trkpt lat="43.42919" lon="6.06291">
        <ele>294</ele>
        <time>2013-05-11T12:50:03Z</time>
      </trkpt>
      <trkpt lat="43.42919" lon="6.06291">
        <ele>292</ele>
        <time>2013-05-11T12:50:18Z</time>
      </trkpt>
      <trkpt lat="43.42919" lon="6.06291">
        <ele>292</ele>
        <time>2013-05-11T12:50:21Z</time>
      </trkpt>
      <trkpt lat="43.42919" lon="6.06291">
        <ele>292</ele>
        <time>2013-05-11T12:50:30Z</time>
      </trkpt>
      <trkpt lat="43.4292" lon="6.06291">
        <ele>292</ele>
        <time>2013-05-11T12:50:32Z</time>
      </trkpt>
      <trkpt lat="43.42924" lon="6.0629">
        <ele>292</ele>
        <time>2013-05-11T12:50:35Z</time>
      </trkpt>
      <trkpt lat="43.42934" lon="6.06285">
        <ele>292</ele>
        <time>2013-05-11T12:50:41Z</time>
      </trkpt>
      <trkpt lat="43.42938" lon="6.06288">
        <ele>292</ele>
        <time>2013-05-11T12:50:43Z</time>
      </trkpt>
      <trkpt lat="43.42941" lon="6.06291">
        <ele>292</ele>
        <time>2013-05-11T12:50:46Z</time>
      </trkpt>
      <trkpt lat="43.42943" lon="6.06294">
        <ele>291</ele>
        <time>2013-05-11T12:50:47Z</time>
      </trkpt>
      <trkpt lat="43.4295" lon="6.06304">
        <ele>289.79998779297</ele>
        <time>2013-05-11T12:50:50Z</time>
      </trkpt>
      <trkpt lat="43.42953" lon="6.06306">
        <ele>289.79998779297</ele>
        <time>2013-05-11T12:50:51Z</time>
      </trkpt>
      <trkpt lat="43.42968" lon="6.06307">
        <ele>289.79998779297</ele>
        <time>2013-05-11T12:50:56Z</time>
      </trkpt>
      <trkpt lat="43.42972" lon="6.06306">
        <ele>289.39999389648</ele>
        <time>2013-05-11T12:50:57Z</time>
      </trkpt>
      <trkpt lat="43.42976" lon="6.06307">
        <ele>289</ele>
        <time>2013-05-11T12:50:58Z</time>
      </trkpt>
      <trkpt lat="43.42983" lon="6.06311">
        <ele>288.20001220703</ele>
        <time>2013-05-11T12:51:00Z</time>
      </trkpt>
      <trkpt lat="43.42986" lon="6.06312">
        <ele>287.79998779297</ele>
        <time>2013-05-11T12:51:01Z</time>
      </trkpt>
      <trkpt lat="43.42992" lon="6.06315">
        <ele>287.79998779297</ele>
        <time>2013-05-11T12:51:03Z</time>
      </trkpt>
      <trkpt lat="43.43003" lon="6.06312">
        <ele>287.79998779297</ele>
        <time>2013-05-11T12:51:07Z</time>
      </trkpt>
      <trkpt lat="43.43008" lon="6.06313">
        <ele>286.79998779297</ele>
        <time>2013-05-11T12:51:09Z</time>
      </trkpt>
      <trkpt lat="43.4301" lon="6.06313">
        <ele>286.39999389648</ele>
        <time>2013-05-11T12:51:10Z</time>
      </trkpt>
      <trkpt lat="43.43019" lon="6.06313">
        <ele>285.60000610352</ele>
        <time>2013-05-11T12:51:14Z</time>
      </trkpt>
      <trkpt lat="43.43027" lon="6.06319">
        <ele>285.60000610352</ele>
        <time>2013-05-11T12:51:17Z</time>
      </trkpt>
      <trkpt lat="43.43032" lon="6.06334">
        <ele>285.60000610352</ele>
        <time>2013-05-11T12:51:21Z</time>
      </trkpt>
      <trkpt lat="43.43042" lon="6.06344">
        <ele>285.60000610352</ele>
        <time>2013-05-11T12:51:26Z</time>
      </trkpt>
      <trkpt lat="43.43047" lon="6.06347">
        <ele>284.79998779297</ele>
        <time>2013-05-11T12:51:28Z</time>
      </trkpt>
      <trkpt lat="43.43061" lon="6.06353">
        <ele>283.60000610352</ele>
        <time>2013-05-11T12:51:32Z</time>
      </trkpt>
      <trkpt lat="43.4307" lon="6.06359">
        <ele>283.60000610352</ele>
        <time>2013-05-11T12:51:35Z</time>
      </trkpt>
      <trkpt lat="43.43074" lon="6.06365">
        <ele>283.60000610352</ele>
        <time>2013-05-11T12:51:37Z</time>
      </trkpt>
      <trkpt lat="43.43082" lon="6.06386">
        <ele>283.60000610352</ele>
        <time>2013-05-11T12:51:42Z</time>
      </trkpt>
      <trkpt lat="43.43084" lon="6.06396">
        <ele>283.60000610352</ele>
        <time>2013-05-11T12:51:44Z</time>
      </trkpt>
      <trkpt lat="43.43089" lon="6.06417">
        <ele>283.20001220703</ele>
        <time>2013-05-11T12:51:48Z</time>
      </trkpt>
      <trkpt lat="43.43099" lon="6.06444">
        <ele>281.20001220703</ele>
        <time>2013-05-11T12:51:53Z</time>
      </trkpt>
      <trkpt lat="43.43108" lon="6.0647">
        <ele>281.20001220703</ele>
        <time>2013-05-11T12:51:57Z</time>
      </trkpt>
      <trkpt lat="43.43111" lon="6.06482">
        <ele>280.39999389648</ele>
        <time>2013-05-11T12:51:59Z</time>
      </trkpt>
      <trkpt lat="43.43114" lon="6.06488">
        <ele>280</ele>
        <time>2013-05-11T12:52:00Z</time>
      </trkpt>
      <trkpt lat="43.43118" lon="6.06493">
        <ele>279</ele>
        <time>2013-05-11T12:52:01Z</time>
      </trkpt>
      <trkpt lat="43.43122" lon="6.06498">
        <ele>278.39999389648</ele>
        <time>2013-05-11T12:52:02Z</time>
      </trkpt>
      <trkpt lat="43.43127" lon="6.06503">
        <ele>277.79998779297</ele>
        <time>2013-05-11T12:52:03Z</time>
      </trkpt>
      <trkpt lat="43.43132" lon="6.06508">
        <ele>277.39999389648</ele>
        <time>2013-05-11T12:52:04Z</time>
      </trkpt>
      <trkpt lat="43.43138" lon="6.06514">
        <ele>276.79998779297</ele>
        <time>2013-05-11T12:52:05Z</time>
      </trkpt>
      <trkpt lat="43.43143" lon="6.06521">
        <ele>276.20001220703</ele>
        <time>2013-05-11T12:52:06Z</time>
      </trkpt>
      <trkpt lat="43.43148" lon="6.06528">
        <ele>275.79998779297</ele>
        <time>2013-05-11T12:52:07Z</time>
      </trkpt>
      <trkpt lat="43.43153" lon="6.06535">
        <ele>275.39999389648</ele>
        <time>2013-05-11T12:52:08Z</time>
      </trkpt>
      <trkpt lat="43.43157" lon="6.06542">
        <ele>274.79998779297</ele>
        <time>2013-05-11T12:52:09Z</time>
      </trkpt>
      <trkpt lat="43.43161" lon="6.06549">
        <ele>274.20001220703</ele>
        <time>2013-05-11T12:52:10Z</time>
      </trkpt>
      <trkpt lat="43.43166" lon="6.06555">
        <ele>273.60000610352</ele>
        <time>2013-05-11T12:52:11Z</time>
      </trkpt>
      <trkpt lat="43.43169" lon="6.0656">
        <ele>273</ele>
        <time>2013-05-11T12:52:12Z</time>
      </trkpt>
      <trkpt lat="43.43172" lon="6.06564">
        <ele>272.39999389648</ele>
        <time>2013-05-11T12:52:13Z</time>
      </trkpt>
      <trkpt lat="43.43173" lon="6.06567">
        <ele>272</ele>
        <time>2013-05-11T12:52:14Z</time>
      </trkpt>
      <trkpt lat="43.43174" lon="6.06568">
        <ele>271.39999389648</ele>
        <time>2013-05-11T12:52:15Z</time>
      </trkpt>
      <trkpt lat="43.43174" lon="6.0657">
        <ele>271</ele>
        <time>2013-05-11T12:52:16Z</time>
      </trkpt>
      <trkpt lat="43.43175" lon="6.06571">
        <ele>270.60000610352</ele>
        <time>2013-05-11T12:52:17Z</time>
      </trkpt>
      <trkpt lat="43.43175" lon="6.06572">
        <ele>270.20001220703</ele>
        <time>2013-05-11T12:52:18Z</time>
      </trkpt>
      <trkpt lat="43.43176" lon="6.06573">
        <ele>269.79998779297</ele>
        <time>2013-05-11T12:52:19Z</time>
      </trkpt>
      <trkpt lat="43.43176" lon="6.06573">
        <ele>269.79998779297</ele>
        <time>2013-05-11T12:52:20Z</time>
      </trkpt>
      <trkpt lat="43.43178" lon="6.06578">
        <ele>269.79998779297</ele>
        <time>2013-05-11T12:52:30Z</time>
      </trkpt>
      <trkpt lat="43.43182" lon="6.0659">
        <ele>269.39999389648</ele>
        <time>2013-05-11T12:52:34Z</time>
      </trkpt>
      <trkpt lat="43.43185" lon="6.06599">
        <ele>268.60000610352</ele>
        <time>2013-05-11T12:52:36Z</time>
      </trkpt>
      <trkpt lat="43.43187" lon="6.06604">
        <ele>268.20001220703</ele>
        <time>2013-05-11T12:52:37Z</time>
      </trkpt>
      <trkpt lat="43.43189" lon="6.0661">
        <ele>267.79998779297</ele>
        <time>2013-05-11T12:52:38Z</time>
      </trkpt>
      <trkpt lat="43.43191" lon="6.06615">
        <ele>267.79998779297</ele>
        <time>2013-05-11T12:52:39Z</time>
      </trkpt>
      <trkpt lat="43.43198" lon="6.06637">
        <ele>267.79998779297</ele>
        <time>2013-05-11T12:52:43Z</time>
      </trkpt>
      <trkpt lat="43.43199" lon="6.06648">
        <ele>267.79998779297</ele>
        <time>2013-05-11T12:52:45Z</time>
      </trkpt>
      <trkpt lat="43.43204" lon="6.06674">
        <ele>267.79998779297</ele>
        <time>2013-05-11T12:52:50Z</time>
      </trkpt>
      <trkpt lat="43.43216" lon="6.06696">
        <ele>267.79998779297</ele>
        <time>2013-05-11T12:52:55Z</time>
      </trkpt>
      <trkpt lat="43.4323" lon="6.06717">
        <ele>267.79998779297</ele>
        <time>2013-05-11T12:53:01Z</time>
      </trkpt>
      <trkpt lat="43.43238" lon="6.06735">
        <ele>267.79998779297</ele>
        <time>2013-05-11T12:53:06Z</time>
      </trkpt>
      <trkpt lat="43.4325" lon="6.06758">
        <ele>267.79998779297</ele>
        <time>2013-05-11T12:53:11Z</time>
      </trkpt>
      <trkpt lat="43.43261" lon="6.06786">
        <ele>266</ele>
        <time>2013-05-11T12:53:16Z</time>
      </trkpt>
      <trkpt lat="43.43262" lon="6.06792">
        <ele>265.60000610352</ele>
        <time>2013-05-11T12:53:17Z</time>
      </trkpt>
      <trkpt lat="43.43277" lon="6.06854">
        <ele>264.79998779297</ele>
        <time>2013-05-11T12:53:26Z</time>
      </trkpt>
      <trkpt lat="43.4328" lon="6.06871">
        <ele>264</ele>
        <time>2013-05-11T12:53:28Z</time>
      </trkpt>
      <trkpt lat="43.43283" lon="6.06887">
        <ele>263</ele>
        <time>2013-05-11T12:53:30Z</time>
      </trkpt>
      <trkpt lat="43.43284" lon="6.06895">
        <ele>262.39999389648</ele>
        <time>2013-05-11T12:53:31Z</time>
      </trkpt>
      <trkpt lat="43.43285" lon="6.06903">
        <ele>262</ele>
        <time>2013-05-11T12:53:32Z</time>
      </trkpt>
      <trkpt lat="43.43285" lon="6.06912">
        <ele>261.20001220703</ele>
        <time>2013-05-11T12:53:33Z</time>
      </trkpt>
      <trkpt lat="43.43286" lon="6.06921">
        <ele>260.60000610352</ele>
        <time>2013-05-11T12:53:34Z</time>
      </trkpt>
      <trkpt lat="43.43286" lon="6.06931">
        <ele>260</ele>
        <time>2013-05-11T12:53:35Z</time>
      </trkpt>
      <trkpt lat="43.43286" lon="6.0694">
        <ele>259.20001220703</ele>
        <time>2013-05-11T12:53:36Z</time>
      </trkpt>
      <trkpt lat="43.43286" lon="6.06949">
        <ele>258.39999389648</ele>
        <time>2013-05-11T12:53:37Z</time>
      </trkpt>
      <trkpt lat="43.43285" lon="6.06957">
        <ele>257.60000610352</ele>
        <time>2013-05-11T12:53:38Z</time>
      </trkpt>
      <trkpt lat="43.43284" lon="6.06966">
        <ele>256</ele>
        <time>2013-05-11T12:53:39Z</time>
      </trkpt>
      <trkpt lat="43.4328" lon="6.06982">
        <ele>255.60000610352</ele>
        <time>2013-05-11T12:53:41Z</time>
      </trkpt>
      <trkpt lat="43.43279" lon="6.0699">
        <ele>255.19999694824</ele>
        <time>2013-05-11T12:53:42Z</time>
      </trkpt>
      <trkpt lat="43.43277" lon="6.06995">
        <ele>254.80000305176</ele>
        <time>2013-05-11T12:53:43Z</time>
      </trkpt>
      <trkpt lat="43.43275" lon="6.07001">
        <ele>254.39999389648</ele>
        <time>2013-05-11T12:53:44Z</time>
      </trkpt>
      <trkpt lat="43.43274" lon="6.07005">
        <ele>253.80000305176</ele>
        <time>2013-05-11T12:53:45Z</time>
      </trkpt>
      <trkpt lat="43.43273" lon="6.07008">
        <ele>253.80000305176</ele>
        <time>2013-05-11T12:53:46Z</time>
      </trkpt>
      <trkpt lat="43.43273" lon="6.07011">
        <ele>253.80000305176</ele>
        <time>2013-05-11T12:53:47Z</time>
      </trkpt>
      <trkpt lat="43.4328" lon="6.07017">
        <ele>253.80000305176</ele>
        <time>2013-05-11T12:53:51Z</time>
      </trkpt>
      <trkpt lat="43.43287" lon="6.07014">
        <ele>253.80000305176</ele>
        <time>2013-05-11T12:53:54Z</time>
      </trkpt>
      <trkpt lat="43.43289" lon="6.07013">
        <ele>253.80000305176</ele>
        <time>2013-05-11T12:53:55Z</time>
      </trkpt>
      <trkpt lat="43.43293" lon="6.07012">
        <ele>253.80000305176</ele>
        <time>2013-05-11T12:53:59Z</time>
      </trkpt>
      <trkpt lat="43.43294" lon="6.07012">
        <ele>253.80000305176</ele>
        <time>2013-05-11T12:54:01Z</time>
      </trkpt>
      <trkpt lat="43.43301" lon="6.07012">
        <ele>253.80000305176</ele>
        <time>2013-05-11T12:54:04Z</time>
      </trkpt>
      <trkpt lat="43.43313" lon="6.07013">
        <ele>253.39999389648</ele>
        <time>2013-05-11T12:54:08Z</time>
      </trkpt>
      <trkpt lat="43.43316" lon="6.07013">
        <ele>253</ele>
        <time>2013-05-11T12:54:09Z</time>
      </trkpt>
      <trkpt lat="43.4332" lon="6.07014">
        <ele>252.60000610352</ele>
        <time>2013-05-11T12:54:10Z</time>
      </trkpt>
      <trkpt lat="43.43323" lon="6.07015">
        <ele>252.19999694824</ele>
        <time>2013-05-11T12:54:11Z</time>
      </trkpt>
      <trkpt lat="43.43327" lon="6.07016">
        <ele>251.80000305176</ele>
        <time>2013-05-11T12:54:12Z</time>
      </trkpt>
      <trkpt lat="43.4333" lon="6.07017">
        <ele>251.80000305176</ele>
        <time>2013-05-11T12:54:13Z</time>
      </trkpt>
      <trkpt lat="43.43336" lon="6.07019">
        <ele>251.80000305176</ele>
        <time>2013-05-11T12:54:15Z</time>
      </trkpt>
      <trkpt lat="43.43351" lon="6.07024">
        <ele>251.80000305176</ele>
        <time>2013-05-11T12:54:21Z</time>
      </trkpt>
      <trkpt lat="43.43372" lon="6.07031">
        <ele>251.80000305176</ele>
        <time>2013-05-11T12:54:28Z</time>
      </trkpt>
      <trkpt lat="43.43385" lon="6.07035">
        <ele>251.80000305176</ele>
        <time>2013-05-11T12:54:32Z</time>
      </trkpt>
      <trkpt lat="43.43397" lon="6.07039">
        <ele>251.80000305176</ele>
        <time>2013-05-11T12:54:36Z</time>
      </trkpt>
      <trkpt lat="43.43416" lon="6.07044">
        <ele>251.80000305176</ele>
        <time>2013-05-11T12:54:42Z</time>
      </trkpt>
      <trkpt lat="43.43423" lon="6.07046">
        <ele>252.60000610352</ele>
        <time>2013-05-11T12:54:44Z</time>
      </trkpt>
      <trkpt lat="43.43433" lon="6.07049">
        <ele>253.80000305176</ele>
        <time>2013-05-11T12:54:47Z</time>
      </trkpt>
      <trkpt lat="43.43442" lon="6.07053">
        <ele>253.80000305176</ele>
        <time>2013-05-11T12:54:50Z</time>
      </trkpt>
      <trkpt lat="43.43453" lon="6.07056">
        <ele>253.80000305176</ele>
        <time>2013-05-11T12:54:54Z</time>
      </trkpt>
      <trkpt lat="43.43461" lon="6.07058">
        <ele>253.80000305176</ele>
        <time>2013-05-11T12:54:57Z</time>
      </trkpt>
      <trkpt lat="43.43472" lon="6.07056">
        <ele>254.19999694824</ele>
        <time>2013-05-11T12:55:04Z</time>
      </trkpt>
      <trkpt lat="43.43473" lon="6.07056">
        <ele>254.60000610352</ele>
        <time>2013-05-11T12:55:05Z</time>
      </trkpt>
      <trkpt lat="43.43475" lon="6.07057">
        <ele>255</ele>
        <time>2013-05-11T12:55:06Z</time>
      </trkpt>
      <trkpt lat="43.43478" lon="6.0706">
        <ele>256</ele>
        <time>2013-05-11T12:55:08Z</time>
      </trkpt>
      <trkpt lat="43.43485" lon="6.07066">
        <ele>256</ele>
        <time>2013-05-11T12:55:12Z</time>
      </trkpt>
      <trkpt lat="43.43489" lon="6.07068">
        <ele>256</ele>
        <time>2013-05-11T12:55:14Z</time>
      </trkpt>
      <trkpt lat="43.43507" lon="6.07073">
        <ele>256</ele>
        <time>2013-05-11T12:55:21Z</time>
      </trkpt>
      <trkpt lat="43.43522" lon="6.07078">
        <ele>256</ele>
        <time>2013-05-11T12:55:26Z</time>
      </trkpt>
      <trkpt lat="43.43534" lon="6.07082">
        <ele>256</ele>
        <time>2013-05-11T12:55:29Z</time>
      </trkpt>
      <trkpt lat="43.43543" lon="6.07084">
        <ele>256</ele>
        <time>2013-05-11T12:55:31Z</time>
      </trkpt>
      <trkpt lat="43.43556" lon="6.07089">
        <ele>256</ele>
        <time>2013-05-11T12:55:34Z</time>
      </trkpt>
      <trkpt lat="43.43576" lon="6.07095">
        <ele>255.39999389648</ele>
        <time>2013-05-11T12:55:38Z</time>
      </trkpt>
      <trkpt lat="43.43581" lon="6.07096">
        <ele>255</ele>
        <time>2013-05-11T12:55:39Z</time>
      </trkpt>
      <trkpt lat="43.43591" lon="6.07099">
        <ele>254</ele>
        <time>2013-05-11T12:55:41Z</time>
      </trkpt>
      <trkpt lat="43.43595" lon="6.07101">
        <ele>253.60000610352</ele>
        <time>2013-05-11T12:55:42Z</time>
      </trkpt>
      <trkpt lat="43.43604" lon="6.07103">
        <ele>253.60000610352</ele>
        <time>2013-05-11T12:55:44Z</time>
      </trkpt>
      <trkpt lat="43.43613" lon="6.07106">
        <ele>253.19999694824</ele>
        <time>2013-05-11T12:55:46Z</time>
      </trkpt>
      <trkpt lat="43.43634" lon="6.07111">
        <ele>251.39999389648</ele>
        <time>2013-05-11T12:55:51Z</time>
      </trkpt>
      <trkpt lat="43.43645" lon="6.07114">
        <ele>251.39999389648</ele>
        <time>2013-05-11T12:55:55Z</time>
      </trkpt>
      <trkpt lat="43.43662" lon="6.07118">
        <ele>251.39999389648</ele>
        <time>2013-05-11T12:56:01Z</time>
      </trkpt>
      <trkpt lat="43.43673" lon="6.0713">
        <ele>251.39999389648</ele>
        <time>2013-05-11T12:56:06Z</time>
      </trkpt>
      <trkpt lat="43.43675" lon="6.07135">
        <ele>251.39999389648</ele>
        <time>2013-05-11T12:56:08Z</time>
      </trkpt>
      <trkpt lat="43.43681" lon="6.07136">
        <ele>251.39999389648</ele>
        <time>2013-05-11T12:56:10Z</time>
      </trkpt>
      <trkpt lat="43.43699" lon="6.0713">
        <ele>251.39999389648</ele>
        <time>2013-05-11T12:56:16Z</time>
      </trkpt>
      <trkpt lat="43.43718" lon="6.07121">
        <ele>251.39999389648</ele>
        <time>2013-05-11T12:56:23Z</time>
      </trkpt>
      <trkpt lat="43.43729" lon="6.07113">
        <ele>251.39999389648</ele>
        <time>2013-05-11T12:56:27Z</time>
      </trkpt>
      <trkpt lat="43.43739" lon="6.07104">
        <ele>251.39999389648</ele>
        <time>2013-05-11T12:56:31Z</time>
      </trkpt>
      <trkpt lat="43.43751" lon="6.0709">
        <ele>251.39999389648</ele>
        <time>2013-05-11T12:56:36Z</time>
      </trkpt>
      <trkpt lat="43.43769" lon="6.07071">
        <ele>253.60000610352</ele>
        <time>2013-05-11T12:56:44Z</time>
      </trkpt>
      <trkpt lat="43.4378" lon="6.07058">
        <ele>253.60000610352</ele>
        <time>2013-05-11T12:56:49Z</time>
      </trkpt>
      <trkpt lat="43.43796" lon="6.07042">
        <ele>253.60000610352</ele>
        <time>2013-05-11T12:56:56Z</time>
      </trkpt>
      <trkpt lat="43.43811" lon="6.07026">
        <ele>253.60000610352</ele>
        <time>2013-05-11T12:57:02Z</time>
      </trkpt>
      <trkpt lat="43.43827" lon="6.0701">
        <ele>253.60000610352</ele>
        <time>2013-05-11T12:57:08Z</time>
      </trkpt>
      <trkpt lat="43.43844" lon="6.06995">
        <ele>253.60000610352</ele>
        <time>2013-05-11T12:57:15Z</time>
      </trkpt>
      <trkpt lat="43.43855" lon="6.06993">
        <ele>253.60000610352</ele>
        <time>2013-05-11T12:57:19Z</time>
      </trkpt>
      <trkpt lat="43.43868" lon="6.06992">
        <ele>253.60000610352</ele>
        <time>2013-05-11T12:57:24Z</time>
      </trkpt>
      <trkpt lat="43.43882" lon="6.06982">
        <ele>253.60000610352</ele>
        <time>2013-05-11T12:57:29Z</time>
      </trkpt>
      <trkpt lat="43.4389" lon="6.0696">
        <ele>253.60000610352</ele>
        <time>2013-05-11T12:57:35Z</time>
      </trkpt>
      <trkpt lat="43.43917" lon="6.06941">
        <ele>254</ele>
        <time>2013-05-11T12:57:44Z</time>
      </trkpt>
      <trkpt lat="43.4392" lon="6.0694">
        <ele>254.39999389648</ele>
        <time>2013-05-11T12:57:45Z</time>
      </trkpt>
      <trkpt lat="43.43928" lon="6.06937">
        <ele>255.80000305176</ele>
        <time>2013-05-11T12:57:47Z</time>
      </trkpt>
      <trkpt lat="43.43932" lon="6.06936">
        <ele>255.80000305176</ele>
        <time>2013-05-11T12:57:48Z</time>
      </trkpt>
      <trkpt lat="43.43962" lon="6.0693">
        <ele>255.80000305176</ele>
        <time>2013-05-11T12:57:56Z</time>
      </trkpt>
      <trkpt lat="43.43987" lon="6.06928">
        <ele>255.80000305176</ele>
        <time>2013-05-11T12:58:03Z</time>
      </trkpt>
      <trkpt lat="43.44013" lon="6.06928">
        <ele>255.80000305176</ele>
        <time>2013-05-11T12:58:11Z</time>
      </trkpt>
      <trkpt lat="43.44042" lon="6.0693">
        <ele>255.80000305176</ele>
        <time>2013-05-11T12:58:20Z</time>
      </trkpt>
      <trkpt lat="43.44064" lon="6.06934">
        <ele>255.80000305176</ele>
        <time>2013-05-11T12:58:27Z</time>
      </trkpt>
      <trkpt lat="43.44088" lon="6.06941">
        <ele>255.80000305176</ele>
        <time>2013-05-11T12:58:35Z</time>
      </trkpt>
      <trkpt lat="43.44109" lon="6.06951">
        <ele>255.80000305176</ele>
        <time>2013-05-11T12:58:42Z</time>
      </trkpt>
      <trkpt lat="43.44134" lon="6.06968">
        <ele>255.80000305176</ele>
        <time>2013-05-11T12:58:50Z</time>
      </trkpt>
      <trkpt lat="43.4416" lon="6.06991">
        <ele>255.80000305176</ele>
        <time>2013-05-11T12:58:58Z</time>
      </trkpt>
      <trkpt lat="43.44212" lon="6.07047">
        <ele>255.80000305176</ele>
        <time>2013-05-11T12:59:14Z</time>
      </trkpt>
      <trkpt lat="43.44241" lon="6.0708">
        <ele>255.80000305176</ele>
        <time>2013-05-11T12:59:22Z</time>
      </trkpt>
      <trkpt lat="43.44271" lon="6.07112">
        <ele>255.80000305176</ele>
        <time>2013-05-11T12:59:30Z</time>
      </trkpt>
      <trkpt lat="43.44281" lon="6.07125">
        <ele>255.80000305176</ele>
        <time>2013-05-11T12:59:33Z</time>
      </trkpt>
      <trkpt lat="43.44292" lon="6.07144">
        <ele>255.80000305176</ele>
        <time>2013-05-11T12:59:37Z</time>
      </trkpt>
      <trkpt lat="43.4431" lon="6.0718">
        <ele>255.39999389648</ele>
        <time>2013-05-11T12:59:44Z</time>
      </trkpt>
      <trkpt lat="43.44315" lon="6.07193">
        <ele>254</ele>
        <time>2013-05-11T12:59:47Z</time>
      </trkpt>
      <trkpt lat="43.44321" lon="6.07198">
        <ele>253.60000610352</ele>
        <time>2013-05-11T12:59:49Z</time>
      </trkpt>
      <trkpt lat="43.44333" lon="6.07197">
        <ele>253.60000610352</ele>
        <time>2013-05-11T12:59:52Z</time>
      </trkpt>
      <trkpt lat="43.44336" lon="6.07197">
        <ele>253.60000610352</ele>
        <time>2013-05-11T12:59:53Z</time>
      </trkpt>
      <trkpt lat="43.44347" lon="6.07196">
        <ele>253.60000610352</ele>
        <time>2013-05-11T12:59:56Z</time>
      </trkpt>
      <trkpt lat="43.44361" lon="6.07198">
        <ele>253.60000610352</ele>
        <time>2013-05-11T13:00:00Z</time>
      </trkpt>
      <trkpt lat="43.44381" lon="6.072">
        <ele>254.19999694824</ele>
        <time>2013-05-11T13:00:06Z</time>
      </trkpt>
      <trkpt lat="43.44384" lon="6.07199">
        <ele>254.60000610352</ele>
        <time>2013-05-11T13:00:07Z</time>
      </trkpt>
      <trkpt lat="43.4439" lon="6.07196">
        <ele>255.39999389648</ele>
        <time>2013-05-11T13:00:09Z</time>
      </trkpt>
      <trkpt lat="43.44392" lon="6.07194">
        <ele>255.80000305176</ele>
        <time>2013-05-11T13:00:10Z</time>
      </trkpt>
      <trkpt lat="43.44401" lon="6.0719">
        <ele>255.80000305176</ele>
        <time>2013-05-11T13:00:14Z</time>
      </trkpt>
      <trkpt lat="43.44405" lon="6.07192">
        <ele>255.80000305176</ele>
        <time>2013-05-11T13:00:16Z</time>
      </trkpt>
      <trkpt lat="43.44408" lon="6.07192">
        <ele>256.79998779297</ele>
        <time>2013-05-11T13:00:18Z</time>
      </trkpt>
      <trkpt lat="43.44411" lon="6.07193">
        <ele>257.60000610352</ele>
        <time>2013-05-11T13:00:20Z</time>
      </trkpt>
      <trkpt lat="43.44415" lon="6.07195">
        <ele>258.20001220703</ele>
        <time>2013-05-11T13:00:22Z</time>
      </trkpt>
      <trkpt lat="43.44431" lon="6.07195">
        <ele>258.20001220703</ele>
        <time>2013-05-11T13:00:29Z</time>
      </trkpt>
      <trkpt lat="43.4446" lon="6.072">
        <ele>258.60000610352</ele>
        <time>2013-05-11T13:00:44Z</time>
      </trkpt>
      <trkpt lat="43.44482" lon="6.0721">
        <ele>260.20001220703</ele>
        <time>2013-05-11T13:00:55Z</time>
      </trkpt>
      <trkpt lat="43.44495" lon="6.07211">
        <ele>260.20001220703</ele>
        <time>2013-05-11T13:01:01Z</time>
      </trkpt>
      <trkpt lat="43.44501" lon="6.07209">
        <ele>261.39999389648</ele>
        <time>2013-05-11T13:01:04Z</time>
      </trkpt>
      <trkpt lat="43.44505" lon="6.07207">
        <ele>262.39999389648</ele>
        <time>2013-05-11T13:01:06Z</time>
      </trkpt>
      <trkpt lat="43.44514" lon="6.07202">
        <ele>262.39999389648</ele>
        <time>2013-05-11T13:01:11Z</time>
      </trkpt>
      <trkpt lat="43.44516" lon="6.07201">
        <ele>262.79998779297</ele>
        <time>2013-05-11T13:01:12Z</time>
      </trkpt>
      <trkpt lat="43.44519" lon="6.07198">
        <ele>263.60000610352</ele>
        <time>2013-05-11T13:01:14Z</time>
      </trkpt>
      <trkpt lat="43.44526" lon="6.07194">
        <ele>264.39999389648</ele>
        <time>2013-05-11T13:01:18Z</time>
      </trkpt>
      <trkpt lat="43.44536" lon="6.07187">
        <ele>265.20001220703</ele>
        <time>2013-05-11T13:01:25Z</time>
      </trkpt>
      <trkpt lat="43.44545" lon="6.07179">
        <ele>266.60000610352</ele>
        <time>2013-05-11T13:01:32Z</time>
      </trkpt>
      <trkpt lat="43.44551" lon="6.07177">
        <ele>267</ele>
        <time>2013-05-11T13:01:37Z</time>
      </trkpt>
      <trkpt lat="43.44571" lon="6.07176">
        <ele>268.60000610352</ele>
        <time>2013-05-11T13:01:49Z</time>
      </trkpt>
      <trkpt lat="43.44577" lon="6.07174">
        <ele>269.39999389648</ele>
        <time>2013-05-11T13:01:53Z</time>
      </trkpt>
      <trkpt lat="43.44581" lon="6.07173">
        <ele>270.60000610352</ele>
        <time>2013-05-11T13:01:56Z</time>
      </trkpt>
      <trkpt lat="43.4459" lon="6.07173">
        <ele>270.60000610352</ele>
        <time>2013-05-11T13:02:02Z</time>
      </trkpt>
      <trkpt lat="43.44596" lon="6.07173">
        <ele>270.60000610352</ele>
        <time>2013-05-11T13:02:08Z</time>
      </trkpt>
      <trkpt lat="43.44596" lon="6.07173">
        <ele>271</ele>
        <time>2013-05-11T13:02:10Z</time>
      </trkpt>
      <trkpt lat="43.44596" lon="6.07173">
        <ele>272.79998779297</ele>
        <time>2013-05-11T13:02:27Z</time>
      </trkpt>
      <trkpt lat="43.44596" lon="6.07173">
        <ele>272.79998779297</ele>
        <time>2013-05-11T13:02:44Z</time>
      </trkpt>
      <trkpt lat="43.44597" lon="6.07173">
        <ele>272.79998779297</ele>
        <time>2013-05-11T13:02:52Z</time>
      </trkpt>
      <trkpt lat="43.44597" lon="6.07173">
        <ele>272.79998779297</ele>
        <time>2013-05-11T13:03:15Z</time>
      </trkpt>
      <trkpt lat="43.44597" lon="6.07173">
        <ele>272.79998779297</ele>
        <time>2013-05-11T13:03:25Z</time>
      </trkpt>
      <trkpt lat="43.44596" lon="6.07173">
        <ele>272.79998779297</ele>
        <time>2013-05-11T13:03:36Z</time>
      </trkpt>
      <trkpt lat="43.44596" lon="6.07173">
        <ele>272.79998779297</ele>
        <time>2013-05-11T13:03:42Z</time>
      </trkpt>
      <trkpt lat="43.44597" lon="6.07174">
        <ele>272.79998779297</ele>
        <time>2013-05-11T13:03:49Z</time>
      </trkpt>
      <trkpt lat="43.44597" lon="6.07174">
        <ele>272.79998779297</ele>
        <time>2013-05-11T13:03:59Z</time>
      </trkpt>
      <trkpt lat="43.44597" lon="6.07174">
        <ele>272.79998779297</ele>
        <time>2013-05-11T13:04:09Z</time>
      </trkpt>
      <trkpt lat="43.44601" lon="6.07173">
        <ele>272.79998779297</ele>
        <time>2013-05-11T13:04:13Z</time>
      </trkpt>
      <trkpt lat="43.44608" lon="6.07176">
        <ele>272.79998779297</ele>
        <time>2013-05-11T13:04:18Z</time>
      </trkpt>
      <trkpt lat="43.44612" lon="6.07177">
        <ele>273.20001220703</ele>
        <time>2013-05-11T13:04:20Z</time>
      </trkpt>
      <trkpt lat="43.44614" lon="6.07177">
        <ele>274.20001220703</ele>
        <time>2013-05-11T13:04:21Z</time>
      </trkpt>
      <trkpt lat="43.44618" lon="6.07177">
        <ele>275</ele>
        <time>2013-05-11T13:04:23Z</time>
      </trkpt>
      <trkpt lat="43.44627" lon="6.07177">
        <ele>275</ele>
        <time>2013-05-11T13:04:28Z</time>
      </trkpt>
      <trkpt lat="43.44648" lon="6.07171">
        <ele>275</ele>
        <time>2013-05-11T13:04:39Z</time>
      </trkpt>
      <trkpt lat="43.44652" lon="6.07169">
        <ele>275</ele>
        <time>2013-05-11T13:04:41Z</time>
      </trkpt>
      <trkpt lat="43.44663" lon="6.07168">
        <ele>275.39999389648</ele>
        <time>2013-05-11T13:04:47Z</time>
      </trkpt>
      <trkpt lat="43.4468" lon="6.07168">
        <ele>277.20001220703</ele>
        <time>2013-05-11T13:04:55Z</time>
      </trkpt>
      <trkpt lat="43.44696" lon="6.07168">
        <ele>277.20001220703</ele>
        <time>2013-05-11T13:05:03Z</time>
      </trkpt>
      <trkpt lat="43.44707" lon="6.07168">
        <ele>277.60000610352</ele>
        <time>2013-05-11T13:05:09Z</time>
      </trkpt>
      <trkpt lat="43.44713" lon="6.07166">
        <ele>279.20001220703</ele>
        <time>2013-05-11T13:05:12Z</time>
      </trkpt>
      <trkpt lat="43.44727" lon="6.07157">
        <ele>279.20001220703</ele>
        <time>2013-05-11T13:05:20Z</time>
      </trkpt>
      <trkpt lat="43.44733" lon="6.07154">
        <ele>279.20001220703</ele>
        <time>2013-05-11T13:05:23Z</time>
      </trkpt>
      <trkpt lat="43.4474" lon="6.07148">
        <ele>281.20001220703</ele>
        <time>2013-05-11T13:05:28Z</time>
      </trkpt>
      <trkpt lat="43.44746" lon="6.07142">
        <ele>281.20001220703</ele>
        <time>2013-05-11T13:05:32Z</time>
      </trkpt>
      <trkpt lat="43.4475" lon="6.07138">
        <ele>281.79998779297</ele>
        <time>2013-05-11T13:05:36Z</time>
      </trkpt>
      <trkpt lat="43.44756" lon="6.07132">
        <ele>283.39999389648</ele>
        <time>2013-05-11T13:05:40Z</time>
      </trkpt>
      <trkpt lat="43.44763" lon="6.07126">
        <ele>283.79998779297</ele>
        <time>2013-05-11T13:05:45Z</time>
      </trkpt>
      <trkpt lat="43.44766" lon="6.07123">
        <ele>284.60000610352</ele>
        <time>2013-05-11T13:05:47Z</time>
      </trkpt>
      <trkpt lat="43.44769" lon="6.07121">
        <ele>285.39999389648</ele>
        <time>2013-05-11T13:05:49Z</time>
      </trkpt>
      <trkpt lat="43.44774" lon="6.07113">
        <ele>285.39999389648</ele>
        <time>2013-05-11T13:05:54Z</time>
      </trkpt>
      <trkpt lat="43.4478" lon="6.07105">
        <ele>286</ele>
        <time>2013-05-11T13:05:59Z</time>
      </trkpt>
      <trkpt lat="43.44789" lon="6.07092">
        <ele>288</ele>
        <time>2013-05-11T13:06:07Z</time>
      </trkpt>
      <trkpt lat="43.44796" lon="6.07084">
        <ele>288.39999389648</ele>
        <time>2013-05-11T13:06:13Z</time>
      </trkpt>
      <trkpt lat="43.44799" lon="6.07081">
        <ele>289.20001220703</ele>
        <time>2013-05-11T13:06:15Z</time>
      </trkpt>
      <trkpt lat="43.44801" lon="6.0708">
        <ele>289.60000610352</ele>
        <time>2013-05-11T13:06:16Z</time>
      </trkpt>
      <trkpt lat="43.44808" lon="6.07075">
        <ele>290.20001220703</ele>
        <time>2013-05-11T13:06:21Z</time>
      </trkpt>
      <trkpt lat="43.44815" lon="6.07073">
        <ele>292.20001220703</ele>
        <time>2013-05-11T13:06:26Z</time>
      </trkpt>
      <trkpt lat="43.44819" lon="6.07072">
        <ele>292.20001220703</ele>
        <time>2013-05-11T13:06:29Z</time>
      </trkpt>
      <trkpt lat="43.44829" lon="6.07066">
        <ele>292.20001220703</ele>
        <time>2013-05-11T13:06:36Z</time>
      </trkpt>
      <trkpt lat="43.44836" lon="6.0706">
        <ele>293.79998779297</ele>
        <time>2013-05-11T13:06:42Z</time>
      </trkpt>
      <trkpt lat="43.44837" lon="6.0706">
        <ele>294.20001220703</ele>
        <time>2013-05-11T13:06:43Z</time>
      </trkpt>
      <trkpt lat="43.44844" lon="6.07042">
        <ele>295</ele>
        <time>2013-05-11T13:06:53Z</time>
      </trkpt>
      <trkpt lat="43.44847" lon="6.0703">
        <ele>296.39999389648</ele>
        <time>2013-05-11T13:06:59Z</time>
      </trkpt>
      <trkpt lat="43.44849" lon="6.07025">
        <ele>296.39999389648</ele>
        <time>2013-05-11T13:07:03Z</time>
      </trkpt>
      <trkpt lat="43.44853" lon="6.07005">
        <ele>296.79998779297</ele>
        <time>2013-05-11T13:07:13Z</time>
      </trkpt>
      <trkpt lat="43.44854" lon="6.07003">
        <ele>297.20001220703</ele>
        <time>2013-05-11T13:07:14Z</time>
      </trkpt>
      <trkpt lat="43.44857" lon="6.07">
        <ele>298.39999389648</ele>
        <time>2013-05-11T13:07:16Z</time>
      </trkpt>
      <trkpt lat="43.44859" lon="6.06995">
        <ele>298.39999389648</ele>
        <time>2013-05-11T13:07:19Z</time>
      </trkpt>
      <trkpt lat="43.44866" lon="6.06987">
        <ele>298.39999389648</ele>
        <time>2013-05-11T13:07:25Z</time>
      </trkpt>
      <trkpt lat="43.44872" lon="6.06982">
        <ele>299.60000610352</ele>
        <time>2013-05-11T13:07:29Z</time>
      </trkpt>
      <trkpt lat="43.44873" lon="6.0698">
        <ele>300.39999389648</ele>
        <time>2013-05-11T13:07:31Z</time>
      </trkpt>
      <trkpt lat="43.44876" lon="6.06974">
        <ele>300.39999389648</ele>
        <time>2013-05-11T13:07:37Z</time>
      </trkpt>
      <trkpt lat="43.44881" lon="6.06969">
        <ele>300.79998779297</ele>
        <time>2013-05-11T13:07:41Z</time>
      </trkpt>
      <trkpt lat="43.44881" lon="6.06967">
        <ele>301.20001220703</ele>
        <time>2013-05-11T13:07:42Z</time>
      </trkpt>
      <trkpt lat="43.44881" lon="6.06966">
        <ele>301.79998779297</ele>
        <time>2013-05-11T13:07:43Z</time>
      </trkpt>
      <trkpt lat="43.44882" lon="6.06966">
        <ele>302.20001220703</ele>
        <time>2013-05-11T13:07:44Z</time>
      </trkpt>
      <trkpt lat="43.44882" lon="6.06966">
        <ele>302.60000610352</ele>
        <time>2013-05-11T13:07:57Z</time>
      </trkpt>
      <trkpt lat="43.44882" lon="6.06966">
        <ele>302.60000610352</ele>
        <time>2013-05-11T13:09:04Z</time>
      </trkpt>
      <trkpt lat="43.44882" lon="6.06966">
        <ele>302.60000610352</ele>
        <time>2013-05-11T13:09:17Z</time>
      </trkpt>
      <trkpt lat="43.44882" lon="6.06966">
        <ele>302.60000610352</ele>
        <time>2013-05-11T13:09:31Z</time>
      </trkpt>
      <trkpt lat="43.44884" lon="6.06964">
        <ele>302.60000610352</ele>
        <time>2013-05-11T13:09:41Z</time>
      </trkpt>
      <trkpt lat="43.44889" lon="6.06959">
        <ele>302.60000610352</ele>
        <time>2013-05-11T13:09:46Z</time>
      </trkpt>
      <trkpt lat="43.44897" lon="6.06953">
        <ele>302.60000610352</ele>
        <time>2013-05-11T13:09:51Z</time>
      </trkpt>
      <trkpt lat="43.449" lon="6.06951">
        <ele>302.60000610352</ele>
        <time>2013-05-11T13:09:53Z</time>
      </trkpt>
      <trkpt lat="43.44907" lon="6.06944">
        <ele>302.60000610352</ele>
        <time>2013-05-11T13:09:58Z</time>
      </trkpt>
      <trkpt lat="43.44911" lon="6.06938">
        <ele>302.60000610352</ele>
        <time>2013-05-11T13:10:01Z</time>
      </trkpt>
      <trkpt lat="43.44914" lon="6.0693">
        <ele>303</ele>
        <time>2013-05-11T13:10:04Z</time>
      </trkpt>
      <trkpt lat="43.44916" lon="6.06922">
        <ele>305</ele>
        <time>2013-05-11T13:10:08Z</time>
      </trkpt>
      <trkpt lat="43.44917" lon="6.06918">
        <ele>305</ele>
        <time>2013-05-11T13:10:10Z</time>
      </trkpt>
      <trkpt lat="43.44917" lon="6.06902">
        <ele>305</ele>
        <time>2013-05-11T13:10:16Z</time>
      </trkpt>
      <trkpt lat="43.44918" lon="6.06895">
        <ele>305</ele>
        <time>2013-05-11T13:10:19Z</time>
      </trkpt>
      <trkpt lat="43.44918" lon="6.06893">
        <ele>305.39999389648</ele>
        <time>2013-05-11T13:10:20Z</time>
      </trkpt>
      <trkpt lat="43.4492" lon="6.0689">
        <ele>306.60000610352</ele>
        <time>2013-05-11T13:10:22Z</time>
      </trkpt>
      <trkpt lat="43.4492" lon="6.06889">
        <ele>307</ele>
        <time>2013-05-11T13:10:23Z</time>
      </trkpt>
      <trkpt lat="43.44921" lon="6.06887">
        <ele>307.60000610352</ele>
        <time>2013-05-11T13:10:24Z</time>
      </trkpt>
      <trkpt lat="43.44921" lon="6.06887">
        <ele>308</ele>
        <time>2013-05-11T13:10:25Z</time>
      </trkpt>
      <trkpt lat="43.44923" lon="6.06883">
        <ele>309.60000610352</ele>
        <time>2013-05-11T13:10:28Z</time>
      </trkpt>
      <trkpt lat="43.44924" lon="6.06878">
        <ele>309.60000610352</ele>
        <time>2013-05-11T13:10:32Z</time>
      </trkpt>
      <trkpt lat="43.44928" lon="6.06872">
        <ele>309.60000610352</ele>
        <time>2013-05-11T13:10:38Z</time>
      </trkpt>
      <trkpt lat="43.44929" lon="6.06869">
        <ele>309.60000610352</ele>
        <time>2013-05-11T13:10:41Z</time>
      </trkpt>
      <trkpt lat="43.44932" lon="6.06865">
        <ele>309.60000610352</ele>
        <time>2013-05-11T13:10:45Z</time>
      </trkpt>
      <trkpt lat="43.44933" lon="6.06863">
        <ele>309.60000610352</ele>
        <time>2013-05-11T13:10:47Z</time>
      </trkpt>
      <trkpt lat="43.44933" lon="6.06863">
        <ele>309.60000610352</ele>
        <time>2013-05-11T13:10:50Z</time>
      </trkpt>
      <trkpt lat="43.44933" lon="6.06863">
        <ele>309.60000610352</ele>
        <time>2013-05-11T13:10:55Z</time>
      </trkpt>
      <trkpt lat="43.44933" lon="6.06863">
        <ele>309.60000610352</ele>
        <time>2013-05-11T13:10:58Z</time>
      </trkpt>
      <trkpt lat="43.44933" lon="6.06863">
        <ele>309.60000610352</ele>
        <time>2013-05-11T13:11:18Z</time>
      </trkpt>
      <trkpt lat="43.44933" lon="6.06863">
        <ele>309.60000610352</ele>
        <time>2013-05-11T13:11:41Z</time>
      </trkpt>
      <trkpt lat="43.44933" lon="6.06863">
        <ele>309.60000610352</ele>
        <time>2013-05-11T13:11:59Z</time>
      </trkpt>
      <trkpt lat="43.44933" lon="6.06863">
        <ele>309.60000610352</ele>
        <time>2013-05-11T13:12:17Z</time>
      </trkpt>
      <trkpt lat="43.44933" lon="6.06863">
        <ele>311.20001220703</ele>
        <time>2013-05-11T13:12:37Z</time>
      </trkpt>
      <trkpt lat="43.44934" lon="6.06862">
        <ele>311.60000610352</ele>
        <time>2013-05-11T13:12:38Z</time>
      </trkpt>
      <trkpt lat="43.44935" lon="6.06861">
        <ele>311.60000610352</ele>
        <time>2013-05-11T13:12:40Z</time>
      </trkpt>
      <trkpt lat="43.44939" lon="6.06858">
        <ele>311.60000610352</ele>
        <time>2013-05-11T13:12:44Z</time>
      </trkpt>
      <trkpt lat="43.44943" lon="6.06854">
        <ele>311.60000610352</ele>
        <time>2013-05-11T13:12:47Z</time>
      </trkpt>
      <trkpt lat="43.4495" lon="6.06844">
        <ele>311.60000610352</ele>
        <time>2013-05-11T13:12:52Z</time>
      </trkpt>
      <trkpt lat="43.44952" lon="6.06839">
        <ele>311.60000610352</ele>
        <time>2013-05-11T13:12:54Z</time>
      </trkpt>
      <trkpt lat="43.44954" lon="6.0683">
        <ele>311.60000610352</ele>
        <time>2013-05-11T13:12:59Z</time>
      </trkpt>
      <trkpt lat="43.44957" lon="6.0682">
        <ele>313.60000610352</ele>
        <time>2013-05-11T13:13:04Z</time>
      </trkpt>
      <trkpt lat="43.4496" lon="6.0681">
        <ele>313.60000610352</ele>
        <time>2013-05-11T13:13:09Z</time>
      </trkpt>
      <trkpt lat="43.44965" lon="6.068">
        <ele>315.39999389648</ele>
        <time>2013-05-11T13:13:15Z</time>
      </trkpt>
      <trkpt lat="43.44966" lon="6.06798">
        <ele>315.79998779297</ele>
        <time>2013-05-11T13:13:16Z</time>
      </trkpt>
      <trkpt lat="43.44975" lon="6.06787">
        <ele>315.79998779297</ele>
        <time>2013-05-11T13:13:24Z</time>
      </trkpt>
      <trkpt lat="43.44977" lon="6.06782">
        <ele>315.79998779297</ele>
        <time>2013-05-11T13:13:27Z</time>
      </trkpt>
      <trkpt lat="43.4498" lon="6.06779">
        <ele>316.20001220703</ele>
        <time>2013-05-11T13:13:30Z</time>
      </trkpt>
      <trkpt lat="43.44985" lon="6.06775">
        <ele>317.79998779297</ele>
        <time>2013-05-11T13:13:34Z</time>
      </trkpt>
      <trkpt lat="43.44991" lon="6.06771">
        <ele>317.79998779297</ele>
        <time>2013-05-11T13:13:41Z</time>
      </trkpt>
      <trkpt lat="43.44995" lon="6.06768">
        <ele>317.79998779297</ele>
        <time>2013-05-11T13:13:45Z</time>
      </trkpt>
      <trkpt lat="43.44996" lon="6.06765">
        <ele>317.79998779297</ele>
        <time>2013-05-11T13:13:48Z</time>
      </trkpt>
      <trkpt lat="43.44996" lon="6.06764">
        <ele>317.79998779297</ele>
        <time>2013-05-11T13:13:49Z</time>
      </trkpt>
      <trkpt lat="43.44994" lon="6.0676">
        <ele>317.79998779297</ele>
        <time>2013-05-11T13:13:54Z</time>
      </trkpt>
      <trkpt lat="43.44992" lon="6.06759">
        <ele>317.79998779297</ele>
        <time>2013-05-11T13:13:57Z</time>
      </trkpt>
      <trkpt lat="43.44991" lon="6.06757">
        <ele>317.79998779297</ele>
        <time>2013-05-11T13:13:59Z</time>
      </trkpt>
      <trkpt lat="43.44991" lon="6.06756">
        <ele>317.79998779297</ele>
        <time>2013-05-11T13:14:00Z</time>
      </trkpt>
      <trkpt lat="43.4499" lon="6.0675">
        <ele>317.79998779297</ele>
        <time>2013-05-11T13:14:04Z</time>
      </trkpt>
      <trkpt lat="43.44994" lon="6.06742">
        <ele>317.79998779297</ele>
        <time>2013-05-11T13:14:09Z</time>
      </trkpt>
      <trkpt lat="43.44999" lon="6.0673">
        <ele>317.79998779297</ele>
        <time>2013-05-11T13:14:16Z</time>
      </trkpt>
      <trkpt lat="43.45004" lon="6.06716">
        <ele>317.79998779297</ele>
        <time>2013-05-11T13:14:23Z</time>
      </trkpt>
      <trkpt lat="43.4501" lon="6.06706">
        <ele>317.79998779297</ele>
        <time>2013-05-11T13:14:29Z</time>
      </trkpt>
      <trkpt lat="43.45015" lon="6.06698">
        <ele>318.20001220703</ele>
        <time>2013-05-11T13:14:35Z</time>
      </trkpt>
      <trkpt lat="43.45018" lon="6.06693">
        <ele>319.79998779297</ele>
        <time>2013-05-11T13:14:39Z</time>
      </trkpt>
      <trkpt lat="43.4502" lon="6.06688">
        <ele>320.20001220703</ele>
        <time>2013-05-11T13:14:43Z</time>
      </trkpt>
      <trkpt lat="43.45023" lon="6.06687">
        <ele>321.20001220703</ele>
        <time>2013-05-11T13:14:45Z</time>
      </trkpt>
      <trkpt lat="43.45023" lon="6.06687">
        <ele>321.60000610352</ele>
        <time>2013-05-11T13:14:46Z</time>
      </trkpt>
      <trkpt lat="43.45026" lon="6.06685">
        <ele>322</ele>
        <time>2013-05-11T13:14:49Z</time>
      </trkpt>
      <trkpt lat="43.4503" lon="6.06682">
        <ele>322</ele>
        <time>2013-05-11T13:14:53Z</time>
      </trkpt>
      <trkpt lat="43.45034" lon="6.06679">
        <ele>323.39999389648</ele>
        <time>2013-05-11T13:14:56Z</time>
      </trkpt>
      <trkpt lat="43.45041" lon="6.06676">
        <ele>324.20001220703</ele>
        <time>2013-05-11T13:15:02Z</time>
      </trkpt>
      <trkpt lat="43.45045" lon="6.06674">
        <ele>324.60000610352</ele>
        <time>2013-05-11T13:15:07Z</time>
      </trkpt>
      <trkpt lat="43.45046" lon="6.06673">
        <ele>325</ele>
        <time>2013-05-11T13:15:08Z</time>
      </trkpt>
      <trkpt lat="43.45049" lon="6.0667">
        <ele>325.79998779297</ele>
        <time>2013-05-11T13:15:10Z</time>
      </trkpt>
      <trkpt lat="43.45051" lon="6.06666">
        <ele>326.20001220703</ele>
        <time>2013-05-11T13:15:13Z</time>
      </trkpt>
      <trkpt lat="43.45053" lon="6.06662">
        <ele>326.20001220703</ele>
        <time>2013-05-11T13:15:20Z</time>
      </trkpt>
      <trkpt lat="43.45053" lon="6.06662">
        <ele>328.60000610352</ele>
        <time>2013-05-11T13:15:41Z</time>
      </trkpt>
      <trkpt lat="43.45053" lon="6.06662">
        <ele>328.60000610352</ele>
        <time>2013-05-11T13:15:56Z</time>
      </trkpt>
      <trkpt lat="43.45053" lon="6.06662">
        <ele>328.60000610352</ele>
        <time>2013-05-11T13:16:01Z</time>
      </trkpt>
      <trkpt lat="43.45056" lon="6.06653">
        <ele>328.60000610352</ele>
        <time>2013-05-11T13:16:07Z</time>
      </trkpt>
      <trkpt lat="43.45057" lon="6.06649">
        <ele>328.60000610352</ele>
        <time>2013-05-11T13:16:10Z</time>
      </trkpt>
      <trkpt lat="43.45059" lon="6.06645">
        <ele>328.60000610352</ele>
        <time>2013-05-11T13:16:13Z</time>
      </trkpt>
      <trkpt lat="43.4506" lon="6.06637">
        <ele>329.79998779297</ele>
        <time>2013-05-11T13:16:18Z</time>
      </trkpt>
      <trkpt lat="43.45064" lon="6.06628">
        <ele>330.60000610352</ele>
        <time>2013-05-11T13:16:25Z</time>
      </trkpt>
      <trkpt lat="43.45065" lon="6.06625">
        <ele>331.39999389648</ele>
        <time>2013-05-11T13:16:27Z</time>
      </trkpt>
      <trkpt lat="43.45065" lon="6.06622">
        <ele>332.20001220703</ele>
        <time>2013-05-11T13:16:29Z</time>
      </trkpt>
      <trkpt lat="43.45065" lon="6.06618">
        <ele>332.79998779297</ele>
        <time>2013-05-11T13:16:31Z</time>
      </trkpt>
      <trkpt lat="43.45064" lon="6.06606">
        <ele>335</ele>
        <time>2013-05-11T13:16:40Z</time>
      </trkpt>
      <trkpt lat="43.45066" lon="6.06589">
        <ele>335.39999389648</ele>
        <time>2013-05-11T13:16:52Z</time>
      </trkpt>
      <trkpt lat="43.45067" lon="6.06588">
        <ele>335.79998779297</ele>
        <time>2013-05-11T13:16:53Z</time>
      </trkpt>
      <trkpt lat="43.45068" lon="6.06586">
        <ele>336.60000610352</ele>
        <time>2013-05-11T13:16:55Z</time>
      </trkpt>
      <trkpt lat="43.45071" lon="6.06582">
        <ele>337</ele>
        <time>2013-05-11T13:16:59Z</time>
      </trkpt>
      <trkpt lat="43.4507" lon="6.06582">
        <ele>337</ele>
        <time>2013-05-11T13:17:03Z</time>
      </trkpt>
      <trkpt lat="43.4507" lon="6.06582">
        <ele>337</ele>
        <time>2013-05-11T13:17:09Z</time>
      </trkpt>
      <trkpt lat="43.45071" lon="6.06581">
        <ele>337</ele>
        <time>2013-05-11T13:17:12Z</time>
      </trkpt>
      <trkpt lat="43.4507" lon="6.06581">
        <ele>337</ele>
        <time>2013-05-11T13:17:18Z</time>
      </trkpt>
      <trkpt lat="43.4507" lon="6.06581">
        <ele>337</ele>
        <time>2013-05-11T13:17:33Z</time>
      </trkpt>
      <trkpt lat="43.4507" lon="6.06581">
        <ele>337</ele>
        <time>2013-05-11T13:17:46Z</time>
      </trkpt>
      <trkpt lat="43.45071" lon="6.0658">
        <ele>337</ele>
        <time>2013-05-11T13:17:48Z</time>
      </trkpt>
      <trkpt lat="43.45073" lon="6.06573">
        <ele>337.39999389648</ele>
        <time>2013-05-11T13:17:51Z</time>
      </trkpt>
      <trkpt lat="43.45073" lon="6.0657">
        <ele>337.79998779297</ele>
        <time>2013-05-11T13:17:52Z</time>
      </trkpt>
      <trkpt lat="43.45073" lon="6.06566">
        <ele>338.79998779297</ele>
        <time>2013-05-11T13:17:54Z</time>
      </trkpt>
      <trkpt lat="43.45074" lon="6.06564">
        <ele>339.20001220703</ele>
        <time>2013-05-11T13:17:55Z</time>
      </trkpt>
      <trkpt lat="43.45076" lon="6.06561">
        <ele>339.60000610352</ele>
        <time>2013-05-11T13:17:57Z</time>
      </trkpt>
      <trkpt lat="43.45077" lon="6.06559">
        <ele>340</ele>
        <time>2013-05-11T13:17:58Z</time>
      </trkpt>
      <trkpt lat="43.45078" lon="6.06556">
        <ele>340.79998779297</ele>
        <time>2013-05-11T13:18:00Z</time>
      </trkpt>
      <trkpt lat="43.45079" lon="6.06554">
        <ele>341.20001220703</ele>
        <time>2013-05-11T13:18:01Z</time>
      </trkpt>
      <trkpt lat="43.4508" lon="6.06553">
        <ele>341.20001220703</ele>
        <time>2013-05-11T13:18:02Z</time>
      </trkpt>
      <trkpt lat="43.45084" lon="6.06548">
        <ele>341.20001220703</ele>
        <time>2013-05-11T13:18:08Z</time>
      </trkpt>
      <trkpt lat="43.45084" lon="6.06548">
        <ele>343.20001220703</ele>
        <time>2013-05-11T13:18:27Z</time>
      </trkpt>
      <trkpt lat="43.45084" lon="6.06547">
        <ele>343.20001220703</ele>
        <time>2013-05-11T13:19:02Z</time>
      </trkpt>
      <trkpt lat="43.45084" lon="6.06547">
        <ele>343.20001220703</ele>
        <time>2013-05-11T13:19:23Z</time>
      </trkpt>
      <trkpt lat="43.45084" lon="6.06547">
        <ele>343.20001220703</ele>
        <time>2013-05-11T13:19:33Z</time>
      </trkpt>
      <trkpt lat="43.45084" lon="6.06547">
        <ele>343.20001220703</ele>
        <time>2013-05-11T13:19:35Z</time>
      </trkpt>
      <trkpt lat="43.45087" lon="6.06544">
        <ele>343.20001220703</ele>
        <time>2013-05-11T13:19:41Z</time>
      </trkpt>
      <trkpt lat="43.45094" lon="6.06536">
        <ele>343.20001220703</ele>
        <time>2013-05-11T13:19:48Z</time>
      </trkpt>
      <trkpt lat="43.45096" lon="6.06524">
        <ele>343.20001220703</ele>
        <time>2013-05-11T13:19:55Z</time>
      </trkpt>
      <trkpt lat="43.45097" lon="6.0652">
        <ele>343.20001220703</ele>
        <time>2013-05-11T13:19:57Z</time>
      </trkpt>
      <trkpt lat="43.45098" lon="6.06516">
        <ele>343.20001220703</ele>
        <time>2013-05-11T13:20:00Z</time>
      </trkpt>
      <trkpt lat="43.451" lon="6.06501">
        <ele>345.39999389648</ele>
        <time>2013-05-11T13:20:08Z</time>
      </trkpt>
      <trkpt lat="43.45102" lon="6.06492">
        <ele>345.39999389648</ele>
        <time>2013-05-11T13:20:12Z</time>
      </trkpt>
      <trkpt lat="43.45103" lon="6.06488">
        <ele>345.39999389648</ele>
        <time>2013-05-11T13:20:14Z</time>
      </trkpt>
      <trkpt lat="43.45105" lon="6.06482">
        <ele>345.79998779297</ele>
        <time>2013-05-11T13:20:17Z</time>
      </trkpt>
      <trkpt lat="43.45107" lon="6.06479">
        <ele>346.60000610352</ele>
        <time>2013-05-11T13:20:19Z</time>
      </trkpt>
      <trkpt lat="43.45108" lon="6.06475">
        <ele>347.39999389648</ele>
        <time>2013-05-11T13:20:21Z</time>
      </trkpt>
      <trkpt lat="43.45112" lon="6.0646">
        <ele>347.39999389648</ele>
        <time>2013-05-11T13:20:29Z</time>
      </trkpt>
      <trkpt lat="43.45115" lon="6.06444">
        <ele>349.60000610352</ele>
        <time>2013-05-11T13:20:37Z</time>
      </trkpt>
      <trkpt lat="43.45117" lon="6.06439">
        <ele>349.60000610352</ele>
        <time>2013-05-11T13:20:40Z</time>
      </trkpt>
      <trkpt lat="43.45119" lon="6.06431">
        <ele>350.39999389648</ele>
        <time>2013-05-11T13:20:44Z</time>
      </trkpt>
      <trkpt lat="43.45121" lon="6.06425">
        <ele>351.79998779297</ele>
        <time>2013-05-11T13:20:47Z</time>
      </trkpt>
      <trkpt lat="43.45123" lon="6.06417">
        <ele>351.79998779297</ele>
        <time>2013-05-11T13:20:52Z</time>
      </trkpt>
      <trkpt lat="43.45124" lon="6.06409">
        <ele>353.60000610352</ele>
        <time>2013-05-11T13:20:57Z</time>
      </trkpt>
      <trkpt lat="43.45124" lon="6.06403">
        <ele>354</ele>
        <time>2013-05-11T13:21:01Z</time>
      </trkpt>
      <trkpt lat="43.45125" lon="6.06395">
        <ele>354</ele>
        <time>2013-05-11T13:21:07Z</time>
      </trkpt>
      <trkpt lat="43.45124" lon="6.06381">
        <ele>355.20001220703</ele>
        <time>2013-05-11T13:21:16Z</time>
      </trkpt>
      <trkpt lat="43.45125" lon="6.06376">
        <ele>356</ele>
        <time>2013-05-11T13:21:20Z</time>
      </trkpt>
      <trkpt lat="43.45125" lon="6.06362">
        <ele>358</ele>
        <time>2013-05-11T13:21:31Z</time>
      </trkpt>
      <trkpt lat="43.45126" lon="6.06358">
        <ele>358</ele>
        <time>2013-05-11T13:21:34Z</time>
      </trkpt>
      <trkpt lat="43.45125" lon="6.06351">
        <ele>358</ele>
        <time>2013-05-11T13:21:40Z</time>
      </trkpt>
      <trkpt lat="43.45127" lon="6.06342">
        <ele>358</ele>
        <time>2013-05-11T13:21:47Z</time>
      </trkpt>
      <trkpt lat="43.45127" lon="6.06339">
        <ele>358.39999389648</ele>
        <time>2013-05-11T13:21:49Z</time>
      </trkpt>
      <trkpt lat="43.45127" lon="6.06336">
        <ele>360.20001220703</ele>
        <time>2013-05-11T13:21:52Z</time>
      </trkpt>
      <trkpt lat="43.45127" lon="6.06334">
        <ele>360.20001220703</ele>
        <time>2013-05-11T13:21:53Z</time>
      </trkpt>
      <trkpt lat="43.45127" lon="6.0633">
        <ele>360.20001220703</ele>
        <time>2013-05-11T13:21:56Z</time>
      </trkpt>
      <trkpt lat="43.45128" lon="6.06328">
        <ele>360.20001220703</ele>
        <time>2013-05-11T13:21:59Z</time>
      </trkpt>
      <trkpt lat="43.45128" lon="6.06325">
        <ele>360.20001220703</ele>
        <time>2013-05-11T13:22:04Z</time>
      </trkpt>
      <trkpt lat="43.45128" lon="6.06325">
        <ele>362.20001220703</ele>
        <time>2013-05-11T13:22:14Z</time>
      </trkpt>
      <trkpt lat="43.45128" lon="6.06325">
        <ele>362.20001220703</ele>
        <time>2013-05-11T13:22:21Z</time>
      </trkpt>
      <trkpt lat="43.45128" lon="6.06325">
        <ele>362.20001220703</ele>
        <time>2013-05-11T13:22:23Z</time>
      </trkpt>
      <trkpt lat="43.45128" lon="6.06322">
        <ele>362.20001220703</ele>
        <time>2013-05-11T13:22:26Z</time>
      </trkpt>
      <trkpt lat="43.45127" lon="6.06313">
        <ele>362.20001220703</ele>
        <time>2013-05-11T13:22:31Z</time>
      </trkpt>
      <trkpt lat="43.45127" lon="6.06303">
        <ele>362.20001220703</ele>
        <time>2013-05-11T13:22:34Z</time>
      </trkpt>
      <trkpt lat="43.4513" lon="6.06289">
        <ele>361.39999389648</ele>
        <time>2013-05-11T13:22:37Z</time>
      </trkpt>
      <trkpt lat="43.4513" lon="6.06283">
        <ele>361</ele>
        <time>2013-05-11T13:22:38Z</time>
      </trkpt>
      <trkpt lat="43.4513" lon="6.06277">
        <ele>360.60000610352</ele>
        <time>2013-05-11T13:22:39Z</time>
      </trkpt>
      <trkpt lat="43.45129" lon="6.06266">
        <ele>359</ele>
        <time>2013-05-11T13:22:41Z</time>
      </trkpt>
      <trkpt lat="43.45127" lon="6.0626">
        <ele>358.39999389648</ele>
        <time>2013-05-11T13:22:42Z</time>
      </trkpt>
      <trkpt lat="43.45126" lon="6.06255">
        <ele>357.60000610352</ele>
        <time>2013-05-11T13:22:43Z</time>
      </trkpt>
      <trkpt lat="43.45125" lon="6.06248">
        <ele>357</ele>
        <time>2013-05-11T13:22:44Z</time>
      </trkpt>
      <trkpt lat="43.45124" lon="6.06241">
        <ele>356.39999389648</ele>
        <time>2013-05-11T13:22:45Z</time>
      </trkpt>
      <trkpt lat="43.45124" lon="6.06234">
        <ele>355.79998779297</ele>
        <time>2013-05-11T13:22:46Z</time>
      </trkpt>
      <trkpt lat="43.45124" lon="6.06226">
        <ele>355.20001220703</ele>
        <time>2013-05-11T13:22:47Z</time>
      </trkpt>
      <trkpt lat="43.45126" lon="6.06218">
        <ele>354.79998779297</ele>
        <time>2013-05-11T13:22:48Z</time>
      </trkpt>
      <trkpt lat="43.45128" lon="6.06211">
        <ele>354.39999389648</ele>
        <time>2013-05-11T13:22:49Z</time>
      </trkpt>
      <trkpt lat="43.45131" lon="6.06205">
        <ele>353.79998779297</ele>
        <time>2013-05-11T13:22:50Z</time>
      </trkpt>
      <trkpt lat="43.45133" lon="6.062">
        <ele>353.39999389648</ele>
        <time>2013-05-11T13:22:51Z</time>
      </trkpt>
      <trkpt lat="43.45136" lon="6.06195">
        <ele>352.79998779297</ele>
        <time>2013-05-11T13:22:52Z</time>
      </trkpt>
      <trkpt lat="43.45139" lon="6.06191">
        <ele>352.39999389648</ele>
        <time>2013-05-11T13:22:53Z</time>
      </trkpt>
      <trkpt lat="43.4514" lon="6.06188">
        <ele>352</ele>
        <time>2013-05-11T13:22:54Z</time>
      </trkpt>
      <trkpt lat="43.45141" lon="6.06185">
        <ele>351.60000610352</ele>
        <time>2013-05-11T13:22:55Z</time>
      </trkpt>
      <trkpt lat="43.45141" lon="6.06183">
        <ele>351.20001220703</ele>
        <time>2013-05-11T13:22:56Z</time>
      </trkpt>
      <trkpt lat="43.45142" lon="6.06183">
        <ele>351.20001220703</ele>
        <time>2013-05-11T13:23:01Z</time>
      </trkpt>
      <trkpt lat="43.45141" lon="6.06182">
        <ele>351.20001220703</ele>
        <time>2013-05-11T13:23:06Z</time>
      </trkpt>
      <trkpt lat="43.4514" lon="6.0618">
        <ele>351.20001220703</ele>
        <time>2013-05-11T13:23:07Z</time>
      </trkpt>
      <trkpt lat="43.45139" lon="6.06175">
        <ele>351.20001220703</ele>
        <time>2013-05-11T13:23:12Z</time>
      </trkpt>
      <trkpt lat="43.45139" lon="6.06167">
        <ele>351.20001220703</ele>
        <time>2013-05-11T13:23:16Z</time>
      </trkpt>
      <trkpt lat="43.45137" lon="6.06161">
        <ele>351.20001220703</ele>
        <time>2013-05-11T13:23:19Z</time>
      </trkpt>
      <trkpt lat="43.45137" lon="6.06159">
        <ele>351.20001220703</ele>
        <time>2013-05-11T13:23:20Z</time>
      </trkpt>
      <trkpt lat="43.45137" lon="6.06149">
        <ele>351.20001220703</ele>
        <time>2013-05-11T13:23:25Z</time>
      </trkpt>
      <trkpt lat="43.45137" lon="6.06148">
        <ele>351.20001220703</ele>
        <time>2013-05-11T13:23:30Z</time>
      </trkpt>
      <trkpt lat="43.45137" lon="6.06148">
        <ele>351.20001220703</ele>
        <time>2013-05-11T13:23:42Z</time>
      </trkpt>
      <trkpt lat="43.45137" lon="6.06148">
        <ele>351.20001220703</ele>
        <time>2013-05-11T13:23:44Z</time>
      </trkpt>
      <trkpt lat="43.4514" lon="6.06143">
        <ele>351.20001220703</ele>
        <time>2013-05-11T13:23:52Z</time>
      </trkpt>
      <trkpt lat="43.45143" lon="6.06138">
        <ele>351.20001220703</ele>
        <time>2013-05-11T13:23:55Z</time>
      </trkpt>
      <trkpt lat="43.45145" lon="6.06134">
        <ele>351.20001220703</ele>
        <time>2013-05-11T13:23:57Z</time>
      </trkpt>
      <trkpt lat="43.4515" lon="6.06119">
        <ele>351.20001220703</ele>
        <time>2013-05-11T13:24:04Z</time>
      </trkpt>
      <trkpt lat="43.45153" lon="6.06111">
        <ele>351.20001220703</ele>
        <time>2013-05-11T13:24:08Z</time>
      </trkpt>
      <trkpt lat="43.45156" lon="6.06102">
        <ele>351.20001220703</ele>
        <time>2013-05-11T13:24:12Z</time>
      </trkpt>
      <trkpt lat="43.45164" lon="6.06091">
        <ele>353.39999389648</ele>
        <time>2013-05-11T13:24:19Z</time>
      </trkpt>
      <trkpt lat="43.45173" lon="6.06081">
        <ele>353.39999389648</ele>
        <time>2013-05-11T13:24:25Z</time>
      </trkpt>
      <trkpt lat="43.45178" lon="6.06075">
        <ele>353.39999389648</ele>
        <time>2013-05-11T13:24:29Z</time>
      </trkpt>
      <trkpt lat="43.45179" lon="6.06072">
        <ele>353.39999389648</ele>
        <time>2013-05-11T13:24:31Z</time>
      </trkpt>
      <trkpt lat="43.45179" lon="6.06071">
        <ele>353.39999389648</ele>
        <time>2013-05-11T13:24:39Z</time>
      </trkpt>
      <trkpt lat="43.45179" lon="6.06071">
        <ele>353.39999389648</ele>
        <time>2013-05-11T13:25:01Z</time>
      </trkpt>
      <trkpt lat="43.45179" lon="6.0607">
        <ele>353.39999389648</ele>
        <time>2013-05-11T13:27:18Z</time>
      </trkpt>
      <trkpt lat="43.45179" lon="6.0607">
        <ele>351.20001220703</ele>
        <time>2013-05-11T13:27:35Z</time>
      </trkpt>
      <trkpt lat="43.45179" lon="6.06071">
        <ele>352.39999389648</ele>
        <time>2013-05-11T13:27:55Z</time>
      </trkpt>
      <trkpt lat="43.45179" lon="6.06071">
        <ele>353.20001220703</ele>
        <time>2013-05-11T13:28:08Z</time>
      </trkpt>
      <trkpt lat="43.4518" lon="6.0607">
        <ele>353.20001220703</ele>
        <time>2013-05-11T13:28:11Z</time>
      </trkpt>
      <trkpt lat="43.45182" lon="6.06071">
        <ele>353.20001220703</ele>
        <time>2013-05-11T13:28:12Z</time>
      </trkpt>
      <trkpt lat="43.45183" lon="6.06072">
        <ele>353.20001220703</ele>
        <time>2013-05-11T13:28:13Z</time>
      </trkpt>
      <trkpt lat="43.45187" lon="6.06084">
        <ele>353.20001220703</ele>
        <time>2013-05-11T13:28:18Z</time>
      </trkpt>
      <trkpt lat="43.4519" lon="6.06095">
        <ele>353.20001220703</ele>
        <time>2013-05-11T13:28:21Z</time>
      </trkpt>
      <trkpt lat="43.45191" lon="6.06099">
        <ele>352.79998779297</ele>
        <time>2013-05-11T13:28:22Z</time>
      </trkpt>
      <trkpt lat="43.45192" lon="6.0611">
        <ele>352</ele>
        <time>2013-05-11T13:28:24Z</time>
      </trkpt>
      <trkpt lat="43.45194" lon="6.06116">
        <ele>351.39999389648</ele>
        <time>2013-05-11T13:28:25Z</time>
      </trkpt>
      <trkpt lat="43.45196" lon="6.06121">
        <ele>351</ele>
        <time>2013-05-11T13:28:26Z</time>
      </trkpt>
      <trkpt lat="43.45201" lon="6.06129">
        <ele>350.20001220703</ele>
        <time>2013-05-11T13:28:28Z</time>
      </trkpt>
      <trkpt lat="43.45204" lon="6.06134">
        <ele>349.60000610352</ele>
        <time>2013-05-11T13:28:29Z</time>
      </trkpt>
      <trkpt lat="43.45207" lon="6.06139">
        <ele>349.20001220703</ele>
        <time>2013-05-11T13:28:30Z</time>
      </trkpt>
      <trkpt lat="43.4521" lon="6.06144">
        <ele>348.79998779297</ele>
        <time>2013-05-11T13:28:31Z</time>
      </trkpt>
      <trkpt lat="43.45218" lon="6.06154">
        <ele>348.39999389648</ele>
        <time>2013-05-11T13:28:33Z</time>
      </trkpt>
      <trkpt lat="43.45221" lon="6.06159">
        <ele>348</ele>
        <time>2013-05-11T13:28:34Z</time>
      </trkpt>
      <trkpt lat="43.45225" lon="6.06163">
        <ele>347.39999389648</ele>
        <time>2013-05-11T13:28:35Z</time>
      </trkpt>
      <trkpt lat="43.45229" lon="6.06167">
        <ele>347</ele>
        <time>2013-05-11T13:28:36Z</time>
      </trkpt>
      <trkpt lat="43.45233" lon="6.06172">
        <ele>346.60000610352</ele>
        <time>2013-05-11T13:28:37Z</time>
      </trkpt>
      <trkpt lat="43.45236" lon="6.06177">
        <ele>346.60000610352</ele>
        <time>2013-05-11T13:28:38Z</time>
      </trkpt>
      <trkpt lat="43.45238" lon="6.06183">
        <ele>346.60000610352</ele>
        <time>2013-05-11T13:28:39Z</time>
      </trkpt>
      <trkpt lat="43.4524" lon="6.06188">
        <ele>346.60000610352</ele>
        <time>2013-05-11T13:28:40Z</time>
      </trkpt>
      <trkpt lat="43.45248" lon="6.06201">
        <ele>346.60000610352</ele>
        <time>2013-05-11T13:28:44Z</time>
      </trkpt>
      <trkpt lat="43.45255" lon="6.06211">
        <ele>346.60000610352</ele>
        <time>2013-05-11T13:28:49Z</time>
      </trkpt>
      <trkpt lat="43.4526" lon="6.06218">
        <ele>347.39999389648</ele>
        <time>2013-05-11T13:28:54Z</time>
      </trkpt>
      <trkpt lat="43.45263" lon="6.06222">
        <ele>348.79998779297</ele>
        <time>2013-05-11T13:28:57Z</time>
      </trkpt>
      <trkpt lat="43.45263" lon="6.06222">
        <ele>349.39999389648</ele>
        <time>2013-05-11T13:28:58Z</time>
      </trkpt>
      <trkpt lat="43.45263" lon="6.06222">
        <ele>350.79998779297</ele>
        <time>2013-05-11T13:29:14Z</time>
      </trkpt>
      <trkpt lat="43.45263" lon="6.06222">
        <ele>350.79998779297</ele>
        <time>2013-05-11T13:29:19Z</time>
      </trkpt>
      <trkpt lat="43.45263" lon="6.06223">
        <ele>350.79998779297</ele>
        <time>2013-05-11T13:29:27Z</time>
      </trkpt>
      <trkpt lat="43.45264" lon="6.06224">
        <ele>350.79998779297</ele>
        <time>2013-05-11T13:29:29Z</time>
      </trkpt>
      <trkpt lat="43.45267" lon="6.06226">
        <ele>350.79998779297</ele>
        <time>2013-05-11T13:29:35Z</time>
      </trkpt>
      <trkpt lat="43.45268" lon="6.06228">
        <ele>350.79998779297</ele>
        <time>2013-05-11T13:29:38Z</time>
      </trkpt>
      <trkpt lat="43.4527" lon="6.06231">
        <ele>351.20001220703</ele>
        <time>2013-05-11T13:29:43Z</time>
      </trkpt>
      <trkpt lat="43.45271" lon="6.06231">
        <ele>352</ele>
        <time>2013-05-11T13:29:45Z</time>
      </trkpt>
      <trkpt lat="43.45271" lon="6.06233">
        <ele>352.79998779297</ele>
        <time>2013-05-11T13:29:47Z</time>
      </trkpt>
      <trkpt lat="43.45272" lon="6.06234">
        <ele>352.79998779297</ele>
        <time>2013-05-11T13:29:49Z</time>
      </trkpt>
      <trkpt lat="43.45272" lon="6.06234">
        <ele>352.79998779297</ele>
        <time>2013-05-11T13:29:56Z</time>
      </trkpt>
      <trkpt lat="43.45277" lon="6.06239">
        <ele>352.79998779297</ele>
        <time>2013-05-11T13:30:01Z</time>
      </trkpt>
      <trkpt lat="43.45284" lon="6.06248">
        <ele>352.79998779297</ele>
        <time>2013-05-11T13:30:07Z</time>
      </trkpt>
      <trkpt lat="43.45287" lon="6.0625">
        <ele>352.79998779297</ele>
        <time>2013-05-11T13:30:09Z</time>
      </trkpt>
      <trkpt lat="43.45292" lon="6.06256">
        <ele>352.79998779297</ele>
        <time>2013-05-11T13:30:13Z</time>
      </trkpt>
      <trkpt lat="43.45291" lon="6.06262">
        <ele>352.79998779297</ele>
        <time>2013-05-11T13:30:16Z</time>
      </trkpt>
      <trkpt lat="43.45291" lon="6.06267">
        <ele>352.79998779297</ele>
        <time>2013-05-11T13:30:18Z</time>
      </trkpt>
      <trkpt lat="43.45292" lon="6.06275">
        <ele>352.79998779297</ele>
        <time>2013-05-11T13:30:21Z</time>
      </trkpt>
      <trkpt lat="43.45293" lon="6.06286">
        <ele>352.79998779297</ele>
        <time>2013-05-11T13:30:25Z</time>
      </trkpt>
      <trkpt lat="43.45296" lon="6.06304">
        <ele>352.79998779297</ele>
        <time>2013-05-11T13:30:32Z</time>
      </trkpt>
      <trkpt lat="43.45296" lon="6.06317">
        <ele>352.79998779297</ele>
        <time>2013-05-11T13:30:37Z</time>
      </trkpt>
      <trkpt lat="43.45295" lon="6.06334">
        <ele>352.79998779297</ele>
        <time>2013-05-11T13:30:43Z</time>
      </trkpt>
      <trkpt lat="43.45291" lon="6.06351">
        <ele>352.79998779297</ele>
        <time>2013-05-11T13:30:49Z</time>
      </trkpt>
      <trkpt lat="43.45283" lon="6.06375">
        <ele>352.79998779297</ele>
        <time>2013-05-11T13:30:57Z</time>
      </trkpt>
      <trkpt lat="43.4528" lon="6.06388">
        <ele>354.20001220703</ele>
        <time>2013-05-11T13:31:02Z</time>
      </trkpt>
      <trkpt lat="43.45279" lon="6.06394">
        <ele>355.20001220703</ele>
        <time>2013-05-11T13:31:04Z</time>
      </trkpt>
      <trkpt lat="43.45277" lon="6.06414">
        <ele>355.20001220703</ele>
        <time>2013-05-11T13:31:11Z</time>
      </trkpt>
      <trkpt lat="43.45277" lon="6.06434">
        <ele>355.20001220703</ele>
        <time>2013-05-11T13:31:16Z</time>
      </trkpt>
      <trkpt lat="43.45277" lon="6.06448">
        <ele>355.20001220703</ele>
        <time>2013-05-11T13:31:19Z</time>
      </trkpt>
      <trkpt lat="43.45272" lon="6.06466">
        <ele>355.20001220703</ele>
        <time>2013-05-11T13:31:23Z</time>
      </trkpt>
      <trkpt lat="43.4526" lon="6.06487">
        <ele>355.20001220703</ele>
        <time>2013-05-11T13:31:29Z</time>
      </trkpt>
      <trkpt lat="43.45253" lon="6.06504">
        <ele>354.60000610352</ele>
        <time>2013-05-11T13:31:33Z</time>
      </trkpt>
      <trkpt lat="43.4525" lon="6.06509">
        <ele>354.20001220703</ele>
        <time>2013-05-11T13:31:34Z</time>
      </trkpt>
      <trkpt lat="43.45248" lon="6.06515">
        <ele>353.79998779297</ele>
        <time>2013-05-11T13:31:35Z</time>
      </trkpt>
      <trkpt lat="43.45241" lon="6.06528">
        <ele>352.79998779297</ele>
        <time>2013-05-11T13:31:37Z</time>
      </trkpt>
      <trkpt lat="43.45238" lon="6.06535">
        <ele>352.39999389648</ele>
        <time>2013-05-11T13:31:38Z</time>
      </trkpt>
      <trkpt lat="43.45233" lon="6.06549">
        <ele>351.20001220703</ele>
        <time>2013-05-11T13:31:40Z</time>
      </trkpt>
      <trkpt lat="43.45231" lon="6.06557">
        <ele>350.79998779297</ele>
        <time>2013-05-11T13:31:41Z</time>
      </trkpt>
      <trkpt lat="43.45231" lon="6.06564">
        <ele>350.79998779297</ele>
        <time>2013-05-11T13:31:42Z</time>
      </trkpt>
      <trkpt lat="43.45229" lon="6.0658">
        <ele>350.20001220703</ele>
        <time>2013-05-11T13:31:44Z</time>
      </trkpt>
      <trkpt lat="43.45227" lon="6.06587">
        <ele>349.79998779297</ele>
        <time>2013-05-11T13:31:45Z</time>
      </trkpt>
      <trkpt lat="43.45224" lon="6.06594">
        <ele>348.20001220703</ele>
        <time>2013-05-11T13:31:46Z</time>
      </trkpt>
      <trkpt lat="43.45222" lon="6.066">
        <ele>347.39999389648</ele>
        <time>2013-05-11T13:31:47Z</time>
      </trkpt>
      <trkpt lat="43.4522" lon="6.06606">
        <ele>346.60000610352</ele>
        <time>2013-05-11T13:31:48Z</time>
      </trkpt>
      <trkpt lat="43.45218" lon="6.0662">
        <ele>345.39999389648</ele>
        <time>2013-05-11T13:31:50Z</time>
      </trkpt>
      <trkpt lat="43.45216" lon="6.06628">
        <ele>345</ele>
        <time>2013-05-11T13:31:51Z</time>
      </trkpt>
      <trkpt lat="43.45214" lon="6.06635">
        <ele>344.60000610352</ele>
        <time>2013-05-11T13:31:52Z</time>
      </trkpt>
      <trkpt lat="43.45212" lon="6.06642">
        <ele>344.20001220703</ele>
        <time>2013-05-11T13:31:53Z</time>
      </trkpt>
      <trkpt lat="43.45208" lon="6.06656">
        <ele>343.20001220703</ele>
        <time>2013-05-11T13:31:55Z</time>
      </trkpt>
      <trkpt lat="43.45206" lon="6.06662">
        <ele>342.60000610352</ele>
        <time>2013-05-11T13:31:56Z</time>
      </trkpt>
      <trkpt lat="43.45205" lon="6.06668">
        <ele>342.20001220703</ele>
        <time>2013-05-11T13:31:57Z</time>
      </trkpt>
      <trkpt lat="43.45204" lon="6.06673">
        <ele>341.60000610352</ele>
        <time>2013-05-11T13:31:58Z</time>
      </trkpt>
      <trkpt lat="43.45205" lon="6.06686">
        <ele>341.60000610352</ele>
        <time>2013-05-11T13:32:01Z</time>
      </trkpt>
      <trkpt lat="43.45208" lon="6.06701">
        <ele>341.60000610352</ele>
        <time>2013-05-11T13:32:06Z</time>
      </trkpt>
      <trkpt lat="43.45208" lon="6.06716">
        <ele>341.60000610352</ele>
        <time>2013-05-11T13:32:11Z</time>
      </trkpt>
      <trkpt lat="43.45205" lon="6.06734">
        <ele>341.60000610352</ele>
        <time>2013-05-11T13:32:16Z</time>
      </trkpt>
      <trkpt lat="43.45204" lon="6.06738">
        <ele>341.60000610352</ele>
        <time>2013-05-11T13:32:17Z</time>
      </trkpt>
      <trkpt lat="43.45193" lon="6.06755">
        <ele>341.60000610352</ele>
        <time>2013-05-11T13:32:22Z</time>
      </trkpt>
      <trkpt lat="43.45191" lon="6.06758">
        <ele>341.20001220703</ele>
        <time>2013-05-11T13:32:23Z</time>
      </trkpt>
      <trkpt lat="43.45188" lon="6.06761">
        <ele>340.79998779297</ele>
        <time>2013-05-11T13:32:24Z</time>
      </trkpt>
      <trkpt lat="43.45186" lon="6.06764">
        <ele>340.39999389648</ele>
        <time>2013-05-11T13:32:25Z</time>
      </trkpt>
      <trkpt lat="43.45184" lon="6.06767">
        <ele>340</ele>
        <time>2013-05-11T13:32:26Z</time>
      </trkpt>
      <trkpt lat="43.45183" lon="6.0677">
        <ele>339.39999389648</ele>
        <time>2013-05-11T13:32:27Z</time>
      </trkpt>
      <trkpt lat="43.45182" lon="6.06773">
        <ele>338.79998779297</ele>
        <time>2013-05-11T13:32:28Z</time>
      </trkpt>
      <trkpt lat="43.45182" lon="6.06776">
        <ele>338.39999389648</ele>
        <time>2013-05-11T13:32:29Z</time>
      </trkpt>
      <trkpt lat="43.45182" lon="6.06779">
        <ele>337.79998779297</ele>
        <time>2013-05-11T13:32:30Z</time>
      </trkpt>
      <trkpt lat="43.45183" lon="6.06781">
        <ele>337.20001220703</ele>
        <time>2013-05-11T13:32:31Z</time>
      </trkpt>
      <trkpt lat="43.45185" lon="6.06784">
        <ele>336.60000610352</ele>
        <time>2013-05-11T13:32:32Z</time>
      </trkpt>
      <trkpt lat="43.45186" lon="6.06789">
        <ele>335.60000610352</ele>
        <time>2013-05-11T13:32:34Z</time>
      </trkpt>
      <trkpt lat="43.45186" lon="6.06791">
        <ele>335</ele>
        <time>2013-05-11T13:32:35Z</time>
      </trkpt>
      <trkpt lat="43.45185" lon="6.06792">
        <ele>335</ele>
        <time>2013-05-11T13:32:36Z</time>
      </trkpt>
      <trkpt lat="43.45181" lon="6.06799">
        <ele>335</ele>
        <time>2013-05-11T13:32:42Z</time>
      </trkpt>
      <trkpt lat="43.45181" lon="6.06813">
        <ele>335.39999389648</ele>
        <time>2013-05-11T13:32:48Z</time>
      </trkpt>
      <trkpt lat="43.45181" lon="6.06819">
        <ele>336.79998779297</ele>
        <time>2013-05-11T13:32:51Z</time>
      </trkpt>
      <trkpt lat="43.45181" lon="6.06821">
        <ele>337.20001220703</ele>
        <time>2013-05-11T13:32:52Z</time>
      </trkpt>
      <trkpt lat="43.45178" lon="6.06826">
        <ele>337.20001220703</ele>
        <time>2013-05-11T13:32:55Z</time>
      </trkpt>
      <trkpt lat="43.45176" lon="6.06837">
        <ele>337.60000610352</ele>
        <time>2013-05-11T13:33:00Z</time>
      </trkpt>
      <trkpt lat="43.45175" lon="6.06839">
        <ele>338</ele>
        <time>2013-05-11T13:33:01Z</time>
      </trkpt>
      <trkpt lat="43.45174" lon="6.06851">
        <ele>339.20001220703</ele>
        <time>2013-05-11T13:33:07Z</time>
      </trkpt>
      <trkpt lat="43.45175" lon="6.06862">
        <ele>339.20001220703</ele>
        <time>2013-05-11T13:33:13Z</time>
      </trkpt>
      <trkpt lat="43.45175" lon="6.06868">
        <ele>340.79998779297</ele>
        <time>2013-05-11T13:33:17Z</time>
      </trkpt>
      <trkpt lat="43.45177" lon="6.06876">
        <ele>341.20001220703</ele>
        <time>2013-05-11T13:33:20Z</time>
      </trkpt>
      <trkpt lat="43.45177" lon="6.06884">
        <ele>341.20001220703</ele>
        <time>2013-05-11T13:33:23Z</time>
      </trkpt>
      <trkpt lat="43.45177" lon="6.06887">
        <ele>341.79998779297</ele>
        <time>2013-05-11T13:33:24Z</time>
      </trkpt>
      <trkpt lat="43.45177" lon="6.06892">
        <ele>343</ele>
        <time>2013-05-11T13:33:26Z</time>
      </trkpt>
      <trkpt lat="43.45178" lon="6.06894">
        <ele>343.39999389648</ele>
        <time>2013-05-11T13:33:27Z</time>
      </trkpt>
      <trkpt lat="43.45181" lon="6.06897">
        <ele>343.39999389648</ele>
        <time>2013-05-11T13:33:29Z</time>
      </trkpt>
      <trkpt lat="43.45183" lon="6.06899">
        <ele>343.39999389648</ele>
        <time>2013-05-11T13:33:31Z</time>
      </trkpt>
      <trkpt lat="43.45184" lon="6.06902">
        <ele>343.39999389648</ele>
        <time>2013-05-11T13:33:33Z</time>
      </trkpt>
      <trkpt lat="43.45184" lon="6.06906">
        <ele>343.39999389648</ele>
        <time>2013-05-11T13:33:37Z</time>
      </trkpt>
      <trkpt lat="43.45184" lon="6.06908">
        <ele>344.20001220703</ele>
        <time>2013-05-11T13:33:39Z</time>
      </trkpt>
      <trkpt lat="43.45184" lon="6.06908">
        <ele>345.20001220703</ele>
        <time>2013-05-11T13:33:41Z</time>
      </trkpt>
      <trkpt lat="43.45184" lon="6.06908">
        <ele>345.60000610352</ele>
        <time>2013-05-11T13:33:49Z</time>
      </trkpt>
      <trkpt lat="43.45184" lon="6.06908">
        <ele>345.60000610352</ele>
        <time>2013-05-11T13:34:02Z</time>
      </trkpt>
      <trkpt lat="43.45184" lon="6.06912">
        <ele>345.60000610352</ele>
        <time>2013-05-11T13:34:06Z</time>
      </trkpt>
      <trkpt lat="43.45183" lon="6.06919">
        <ele>345.60000610352</ele>
        <time>2013-05-11T13:34:09Z</time>
      </trkpt>
      <trkpt lat="43.4518" lon="6.06925">
        <ele>345.60000610352</ele>
        <time>2013-05-11T13:34:12Z</time>
      </trkpt>
      <trkpt lat="43.45179" lon="6.06925">
        <ele>345.60000610352</ele>
        <time>2013-05-11T13:34:13Z</time>
      </trkpt>
      <trkpt lat="43.45176" lon="6.0693">
        <ele>345.60000610352</ele>
        <time>2013-05-11T13:34:16Z</time>
      </trkpt>
      <trkpt lat="43.45175" lon="6.06932">
        <ele>345.60000610352</ele>
        <time>2013-05-11T13:34:17Z</time>
      </trkpt>
      <trkpt lat="43.45167" lon="6.06945">
        <ele>345.60000610352</ele>
        <time>2013-05-11T13:34:25Z</time>
      </trkpt>
      <trkpt lat="43.45162" lon="6.06954">
        <ele>345.60000610352</ele>
        <time>2013-05-11T13:34:31Z</time>
      </trkpt>
      <trkpt lat="43.45157" lon="6.06965">
        <ele>347.60000610352</ele>
        <time>2013-05-11T13:34:38Z</time>
      </trkpt>
      <trkpt lat="43.45152" lon="6.06974">
        <ele>347.60000610352</ele>
        <time>2013-05-11T13:34:45Z</time>
      </trkpt>
      <trkpt lat="43.45147" lon="6.0699">
        <ele>347.60000610352</ele>
        <time>2013-05-11T13:34:53Z</time>
      </trkpt>
      <trkpt lat="43.45146" lon="6.07004">
        <ele>347.60000610352</ele>
        <time>2013-05-11T13:34:59Z</time>
      </trkpt>
      <trkpt lat="43.45146" lon="6.07008">
        <ele>348.20001220703</ele>
        <time>2013-05-11T13:35:01Z</time>
      </trkpt>
      <trkpt lat="43.45146" lon="6.07013">
        <ele>349</ele>
        <time>2013-05-11T13:35:03Z</time>
      </trkpt>
      <trkpt lat="43.45147" lon="6.07018">
        <ele>349.79998779297</ele>
        <time>2013-05-11T13:35:05Z</time>
      </trkpt>
      <trkpt lat="43.45148" lon="6.07024">
        <ele>349.79998779297</ele>
        <time>2013-05-11T13:35:07Z</time>
      </trkpt>
      <trkpt lat="43.4515" lon="6.07035">
        <ele>349.79998779297</ele>
        <time>2013-05-11T13:35:10Z</time>
      </trkpt>
      <trkpt lat="43.45153" lon="6.07047">
        <ele>349.79998779297</ele>
        <time>2013-05-11T13:35:13Z</time>
      </trkpt>
      <trkpt lat="43.45157" lon="6.07065">
        <ele>349.79998779297</ele>
        <time>2013-05-11T13:35:17Z</time>
      </trkpt>
      <trkpt lat="43.45158" lon="6.07069">
        <ele>349.79998779297</ele>
        <time>2013-05-11T13:35:18Z</time>
      </trkpt>
      <trkpt lat="43.4516" lon="6.07071">
        <ele>349.79998779297</ele>
        <time>2013-05-11T13:35:19Z</time>
      </trkpt>
      <trkpt lat="43.45169" lon="6.07087">
        <ele>349.79998779297</ele>
        <time>2013-05-11T13:35:25Z</time>
      </trkpt>
      <trkpt lat="43.45169" lon="6.07094">
        <ele>349.79998779297</ele>
        <time>2013-05-11T13:35:28Z</time>
      </trkpt>
      <trkpt lat="43.45169" lon="6.07097">
        <ele>349.79998779297</ele>
        <time>2013-05-11T13:35:30Z</time>
      </trkpt>
      <trkpt lat="43.45169" lon="6.07105">
        <ele>349.79998779297</ele>
        <time>2013-05-11T13:35:34Z</time>
      </trkpt>
      <trkpt lat="43.45169" lon="6.0711">
        <ele>349.79998779297</ele>
        <time>2013-05-11T13:35:36Z</time>
      </trkpt>
      <trkpt lat="43.45169" lon="6.07127">
        <ele>349.79998779297</ele>
        <time>2013-05-11T13:35:43Z</time>
      </trkpt>
      <trkpt lat="43.45167" lon="6.07139">
        <ele>350.20001220703</ele>
        <time>2013-05-11T13:35:49Z</time>
      </trkpt>
      <trkpt lat="43.45165" lon="6.0715">
        <ele>352</ele>
        <time>2013-05-11T13:35:53Z</time>
      </trkpt>
      <trkpt lat="43.45163" lon="6.0716">
        <ele>352</ele>
        <time>2013-05-11T13:35:57Z</time>
      </trkpt>
      <trkpt lat="43.45157" lon="6.07177">
        <ele>352</ele>
        <time>2013-05-11T13:36:05Z</time>
      </trkpt>
      <trkpt lat="43.45153" lon="6.07185">
        <ele>352</ele>
        <time>2013-05-11T13:36:09Z</time>
      </trkpt>
      <trkpt lat="43.4515" lon="6.07189">
        <ele>352</ele>
        <time>2013-05-11T13:36:11Z</time>
      </trkpt>
      <trkpt lat="43.45142" lon="6.07199">
        <ele>353.79998779297</ele>
        <time>2013-05-11T13:36:17Z</time>
      </trkpt>
      <trkpt lat="43.4514" lon="6.07202">
        <ele>354.20001220703</ele>
        <time>2013-05-11T13:36:18Z</time>
      </trkpt>
      <trkpt lat="43.45135" lon="6.07212">
        <ele>354.20001220703</ele>
        <time>2013-05-11T13:36:22Z</time>
      </trkpt>
      <trkpt lat="43.45133" lon="6.07217">
        <ele>354.20001220703</ele>
        <time>2013-05-11T13:36:24Z</time>
      </trkpt>
      <trkpt lat="43.45125" lon="6.07237">
        <ele>356.20001220703</ele>
        <time>2013-05-11T13:36:32Z</time>
      </trkpt>
      <trkpt lat="43.45116" lon="6.07253">
        <ele>356.20001220703</ele>
        <time>2013-05-11T13:36:39Z</time>
      </trkpt>
      <trkpt lat="43.45105" lon="6.07264">
        <ele>356.20001220703</ele>
        <time>2013-05-11T13:36:46Z</time>
      </trkpt>
      <trkpt lat="43.45102" lon="6.07269">
        <ele>356.60000610352</ele>
        <time>2013-05-11T13:36:49Z</time>
      </trkpt>
      <trkpt lat="43.45098" lon="6.07277">
        <ele>358.39999389648</ele>
        <time>2013-05-11T13:36:53Z</time>
      </trkpt>
      <trkpt lat="43.45096" lon="6.07287">
        <ele>358.39999389648</ele>
        <time>2013-05-11T13:36:58Z</time>
      </trkpt>
      <trkpt lat="43.45093" lon="6.07292">
        <ele>358.39999389648</ele>
        <time>2013-05-11T13:37:01Z</time>
      </trkpt>
      <trkpt lat="43.45092" lon="6.07293">
        <ele>358.39999389648</ele>
        <time>2013-05-11T13:37:02Z</time>
      </trkpt>
      <trkpt lat="43.45086" lon="6.07297">
        <ele>359.20001220703</ele>
        <time>2013-05-11T13:37:06Z</time>
      </trkpt>
      <trkpt lat="43.45081" lon="6.07298">
        <ele>360.60000610352</ele>
        <time>2013-05-11T13:37:09Z</time>
      </trkpt>
      <trkpt lat="43.45077" lon="6.07298">
        <ele>361</ele>
        <time>2013-05-11T13:37:11Z</time>
      </trkpt>
      <trkpt lat="43.45072" lon="6.07296">
        <ele>362.20001220703</ele>
        <time>2013-05-11T13:37:14Z</time>
      </trkpt>
      <trkpt lat="43.45065" lon="6.0729">
        <ele>363.20001220703</ele>
        <time>2013-05-11T13:37:19Z</time>
      </trkpt>
      <trkpt lat="43.45063" lon="6.07287">
        <ele>364</ele>
        <time>2013-05-11T13:37:21Z</time>
      </trkpt>
      <trkpt lat="43.45057" lon="6.0728">
        <ele>365</ele>
        <time>2013-05-11T13:37:26Z</time>
      </trkpt>
      <trkpt lat="43.45053" lon="6.07279">
        <ele>365.39999389648</ele>
        <time>2013-05-11T13:37:29Z</time>
      </trkpt>
      <trkpt lat="43.45047" lon="6.07277">
        <ele>367.60000610352</ele>
        <time>2013-05-11T13:37:34Z</time>
      </trkpt>
      <trkpt lat="43.45046" lon="6.07277">
        <ele>368</ele>
        <time>2013-05-11T13:37:35Z</time>
      </trkpt>
      <trkpt lat="43.45044" lon="6.07277">
        <ele>369</ele>
        <time>2013-05-11T13:37:37Z</time>
      </trkpt>
      <trkpt lat="43.4504" lon="6.07278">
        <ele>369</ele>
        <time>2013-05-11T13:37:41Z</time>
      </trkpt>
      <trkpt lat="43.45036" lon="6.07278">
        <ele>369</ele>
        <time>2013-05-11T13:37:45Z</time>
      </trkpt>
      <trkpt lat="43.45032" lon="6.07276">
        <ele>369</ele>
        <time>2013-05-11T13:37:49Z</time>
      </trkpt>
      <trkpt lat="43.45028" lon="6.07278">
        <ele>369</ele>
        <time>2013-05-11T13:37:52Z</time>
      </trkpt>
      <trkpt lat="43.45022" lon="6.07283">
        <ele>369</ele>
        <time>2013-05-11T13:37:55Z</time>
      </trkpt>
      <trkpt lat="43.45018" lon="6.07285">
        <ele>369</ele>
        <time>2013-05-11T13:37:57Z</time>
      </trkpt>
      <trkpt lat="43.45013" lon="6.07286">
        <ele>369</ele>
        <time>2013-05-11T13:38:01Z</time>
      </trkpt>
      <trkpt lat="43.45012" lon="6.07282">
        <ele>369</ele>
        <time>2013-05-11T13:38:04Z</time>
      </trkpt>
      <trkpt lat="43.45015" lon="6.07275">
        <ele>369</ele>
        <time>2013-05-11T13:38:09Z</time>
      </trkpt>
      <trkpt lat="43.45016" lon="6.07272">
        <ele>369.39999389648</ele>
        <time>2013-05-11T13:38:11Z</time>
      </trkpt>
      <trkpt lat="43.45018" lon="6.0727">
        <ele>370.20001220703</ele>
        <time>2013-05-11T13:38:13Z</time>
      </trkpt>
      <trkpt lat="43.45019" lon="6.07269">
        <ele>371.20001220703</ele>
        <time>2013-05-11T13:38:14Z</time>
      </trkpt>
      <trkpt lat="43.45019" lon="6.07269">
        <ele>371.20001220703</ele>
        <time>2013-05-11T13:38:15Z</time>
      </trkpt>
      <trkpt lat="43.45019" lon="6.07269">
        <ele>371.20001220703</ele>
        <time>2013-05-11T13:38:26Z</time>
      </trkpt>
      <trkpt lat="43.45019" lon="6.07269">
        <ele>371.20001220703</ele>
        <time>2013-05-11T13:38:32Z</time>
      </trkpt>
      <trkpt lat="43.45021" lon="6.07268">
        <ele>371.20001220703</ele>
        <time>2013-05-11T13:38:38Z</time>
      </trkpt>
      <trkpt lat="43.45021" lon="6.07268">
        <ele>371.20001220703</ele>
        <time>2013-05-11T13:38:54Z</time>
      </trkpt>
      <trkpt lat="43.45021" lon="6.07268">
        <ele>371.20001220703</ele>
        <time>2013-05-11T13:40:02Z</time>
      </trkpt>
      <trkpt lat="43.45021" lon="6.07268">
        <ele>371.20001220703</ele>
        <time>2013-05-11T13:40:16Z</time>
      </trkpt>
      <trkpt lat="43.45021" lon="6.07268">
        <ele>371.20001220703</ele>
        <time>2013-05-11T13:40:23Z</time>
      </trkpt>
      <trkpt lat="43.45023" lon="6.07266">
        <ele>371.20001220703</ele>
        <time>2013-05-11T13:40:26Z</time>
      </trkpt>
      <trkpt lat="43.45023" lon="6.07259">
        <ele>371.20001220703</ele>
        <time>2013-05-11T13:40:30Z</time>
      </trkpt>
      <trkpt lat="43.45023" lon="6.07257">
        <ele>371.20001220703</ele>
        <time>2013-05-11T13:40:31Z</time>
      </trkpt>
      <trkpt lat="43.45026" lon="6.0725">
        <ele>370.20001220703</ele>
        <time>2013-05-11T13:40:34Z</time>
      </trkpt>
      <trkpt lat="43.45026" lon="6.07247">
        <ele>369.79998779297</ele>
        <time>2013-05-11T13:40:35Z</time>
      </trkpt>
      <trkpt lat="43.45026" lon="6.07245">
        <ele>369.39999389648</ele>
        <time>2013-05-11T13:40:36Z</time>
      </trkpt>
      <trkpt lat="43.45024" lon="6.07243">
        <ele>368.79998779297</ele>
        <time>2013-05-11T13:40:37Z</time>
      </trkpt>
      <trkpt lat="43.45022" lon="6.07241">
        <ele>368.39999389648</ele>
        <time>2013-05-11T13:40:38Z</time>
      </trkpt>
      <trkpt lat="43.45017" lon="6.07235">
        <ele>367</ele>
        <time>2013-05-11T13:40:41Z</time>
      </trkpt>
      <trkpt lat="43.45015" lon="6.07233">
        <ele>366</ele>
        <time>2013-05-11T13:40:42Z</time>
      </trkpt>
      <trkpt lat="43.45012" lon="6.07231">
        <ele>365</ele>
        <time>2013-05-11T13:40:44Z</time>
      </trkpt>
      <trkpt lat="43.4501" lon="6.0723">
        <ele>364.60000610352</ele>
        <time>2013-05-11T13:40:45Z</time>
      </trkpt>
      <trkpt lat="43.45008" lon="6.07229">
        <ele>364.20001220703</ele>
        <time>2013-05-11T13:40:46Z</time>
      </trkpt>
      <trkpt lat="43.45005" lon="6.07227">
        <ele>363.79998779297</ele>
        <time>2013-05-11T13:40:48Z</time>
      </trkpt>
      <trkpt lat="43.45" lon="6.0722">
        <ele>362.39999389648</ele>
        <time>2013-05-11T13:40:51Z</time>
      </trkpt>
      <trkpt lat="43.44998" lon="6.07219">
        <ele>362</ele>
        <time>2013-05-11T13:40:52Z</time>
      </trkpt>
      <trkpt lat="43.44995" lon="6.07218">
        <ele>361.60000610352</ele>
        <time>2013-05-11T13:40:53Z</time>
      </trkpt>
      <trkpt lat="43.44994" lon="6.07217">
        <ele>361</ele>
        <time>2013-05-11T13:40:54Z</time>
      </trkpt>
      <trkpt lat="43.44994" lon="6.07214">
        <ele>360.20001220703</ele>
        <time>2013-05-11T13:40:56Z</time>
      </trkpt>
      <trkpt lat="43.44994" lon="6.07212">
        <ele>359.60000610352</ele>
        <time>2013-05-11T13:40:57Z</time>
      </trkpt>
      <trkpt lat="43.44995" lon="6.07211">
        <ele>359.20001220703</ele>
        <time>2013-05-11T13:40:58Z</time>
      </trkpt>
      <trkpt lat="43.44996" lon="6.0721">
        <ele>358.60000610352</ele>
        <time>2013-05-11T13:40:59Z</time>
      </trkpt>
      <trkpt lat="43.44997" lon="6.0721">
        <ele>358.20001220703</ele>
        <time>2013-05-11T13:41:00Z</time>
      </trkpt>
      <trkpt lat="43.44997" lon="6.07209">
        <ele>357.60000610352</ele>
        <time>2013-05-11T13:41:01Z</time>
      </trkpt>
      <trkpt lat="43.44997" lon="6.07209">
        <ele>357.20001220703</ele>
        <time>2013-05-11T13:41:24Z</time>
      </trkpt>
      <trkpt lat="43.44997" lon="6.07209">
        <ele>357.20001220703</ele>
        <time>2013-05-11T13:41:35Z</time>
      </trkpt>
      <trkpt lat="43.44996" lon="6.0721">
        <ele>357.20001220703</ele>
        <time>2013-05-11T13:41:40Z</time>
      </trkpt>
      <trkpt lat="43.44992" lon="6.07216">
        <ele>357.20001220703</ele>
        <time>2013-05-11T13:41:44Z</time>
      </trkpt>
      <trkpt lat="43.44992" lon="6.07216">
        <ele>357.20001220703</ele>
        <time>2013-05-11T13:41:45Z</time>
      </trkpt>
      <trkpt lat="43.44993" lon="6.07216">
        <ele>357.20001220703</ele>
        <time>2013-05-11T13:41:46Z</time>
      </trkpt>
      <trkpt lat="43.44994" lon="6.07218">
        <ele>357.20001220703</ele>
        <time>2013-05-11T13:41:48Z</time>
      </trkpt>
      <trkpt lat="43.44996" lon="6.07219">
        <ele>357.20001220703</ele>
        <time>2013-05-11T13:41:50Z</time>
      </trkpt>
      <trkpt lat="43.44998" lon="6.07219">
        <ele>357.20001220703</ele>
        <time>2013-05-11T13:41:52Z</time>
      </trkpt>
      <trkpt lat="43.45" lon="6.07223">
        <ele>357.79998779297</ele>
        <time>2013-05-11T13:41:54Z</time>
      </trkpt>
      <trkpt lat="43.45003" lon="6.07228">
        <ele>360</ele>
        <time>2013-05-11T13:41:57Z</time>
      </trkpt>
      <trkpt lat="43.45004" lon="6.07227">
        <ele>360</ele>
        <time>2013-05-11T13:42:00Z</time>
      </trkpt>
      <trkpt lat="43.45007" lon="6.07228">
        <ele>360</ele>
        <time>2013-05-11T13:42:03Z</time>
      </trkpt>
      <trkpt lat="43.45011" lon="6.0723">
        <ele>361.39999389648</ele>
        <time>2013-05-11T13:42:06Z</time>
      </trkpt>
      <trkpt lat="43.45012" lon="6.0723">
        <ele>361.79998779297</ele>
        <time>2013-05-11T13:42:07Z</time>
      </trkpt>
      <trkpt lat="43.45012" lon="6.0723">
        <ele>362.20001220703</ele>
        <time>2013-05-11T13:42:08Z</time>
      </trkpt>
      <trkpt lat="43.45014" lon="6.07233">
        <ele>362.20001220703</ele>
        <time>2013-05-11T13:42:10Z</time>
      </trkpt>
      <trkpt lat="43.45015" lon="6.07234">
        <ele>362.20001220703</ele>
        <time>2013-05-11T13:42:16Z</time>
      </trkpt>
      <trkpt lat="43.45015" lon="6.07234">
        <ele>362.20001220703</ele>
        <time>2013-05-11T13:42:22Z</time>
      </trkpt>
      <trkpt lat="43.45015" lon="6.07235">
        <ele>362.20001220703</ele>
        <time>2013-05-11T13:42:32Z</time>
      </trkpt>
      <trkpt lat="43.45015" lon="6.07235">
        <ele>364.39999389648</ele>
        <time>2013-05-11T13:42:48Z</time>
      </trkpt>
      <trkpt lat="43.45015" lon="6.07235">
        <ele>364.39999389648</ele>
        <time>2013-05-11T13:43:08Z</time>
      </trkpt>
      <trkpt lat="43.45015" lon="6.07236">
        <ele>364.39999389648</ele>
        <time>2013-05-11T13:43:09Z</time>
      </trkpt>
      <trkpt lat="43.45015" lon="6.07235">
        <ele>364.39999389648</ele>
        <time>2013-05-11T13:43:16Z</time>
      </trkpt>
      <trkpt lat="43.4501" lon="6.07233">
        <ele>364.39999389648</ele>
        <time>2013-05-11T13:43:21Z</time>
      </trkpt>
      <trkpt lat="43.4501" lon="6.07233">
        <ele>363.79998779297</ele>
        <time>2013-05-11T13:43:22Z</time>
      </trkpt>
      <trkpt lat="43.45008" lon="6.07233">
        <ele>363</ele>
        <time>2013-05-11T13:43:24Z</time>
      </trkpt>
      <trkpt lat="43.45007" lon="6.07232">
        <ele>362.60000610352</ele>
        <time>2013-05-11T13:43:25Z</time>
      </trkpt>
      <trkpt lat="43.45007" lon="6.07232">
        <ele>362.20001220703</ele>
        <time>2013-05-11T13:43:26Z</time>
      </trkpt>
      <trkpt lat="43.45007" lon="6.07231">
        <ele>362.20001220703</ele>
        <time>2013-05-11T13:43:30Z</time>
      </trkpt>
      <trkpt lat="43.45007" lon="6.07231">
        <ele>362.20001220703</ele>
        <time>2013-05-11T13:43:33Z</time>
      </trkpt>
      <trkpt lat="43.45007" lon="6.07231">
        <ele>362.20001220703</ele>
        <time>2013-05-11T13:43:43Z</time>
      </trkpt>
      <trkpt lat="43.45004" lon="6.07228">
        <ele>362.20001220703</ele>
        <time>2013-05-11T13:43:49Z</time>
      </trkpt>
      <trkpt lat="43.45003" lon="6.07227">
        <ele>361.79998779297</ele>
        <time>2013-05-11T13:43:51Z</time>
      </trkpt>
      <trkpt lat="43.45002" lon="6.07223">
        <ele>361</ele>
        <time>2013-05-11T13:43:53Z</time>
      </trkpt>
      <trkpt lat="43.45" lon="6.07222">
        <ele>360.60000610352</ele>
        <time>2013-05-11T13:43:54Z</time>
      </trkpt>
      <trkpt lat="43.45" lon="6.07222">
        <ele>360</ele>
        <time>2013-05-11T13:43:55Z</time>
      </trkpt>
      <trkpt lat="43.45" lon="6.07222">
        <ele>360</ele>
        <time>2013-05-11T13:43:56Z</time>
      </trkpt>
      <trkpt lat="43.45" lon="6.07221">
        <ele>360</ele>
        <time>2013-05-11T13:43:58Z</time>
      </trkpt>
      <trkpt lat="43.44998" lon="6.07221">
        <ele>360</ele>
        <time>2013-05-11T13:44:00Z</time>
      </trkpt>
      <trkpt lat="43.44992" lon="6.07216">
        <ele>360</ele>
        <time>2013-05-11T13:44:03Z</time>
      </trkpt>
      <trkpt lat="43.44991" lon="6.07211">
        <ele>360</ele>
        <time>2013-05-11T13:44:06Z</time>
      </trkpt>
      <trkpt lat="43.44991" lon="6.0721">
        <ele>359.60000610352</ele>
        <time>2013-05-11T13:44:07Z</time>
      </trkpt>
      <trkpt lat="43.44991" lon="6.0721">
        <ele>358.79998779297</ele>
        <time>2013-05-11T13:44:09Z</time>
      </trkpt>
      <trkpt lat="43.44992" lon="6.07211">
        <ele>358.39999389648</ele>
        <time>2013-05-11T13:44:10Z</time>
      </trkpt>
      <trkpt lat="43.44992" lon="6.07211">
        <ele>358</ele>
        <time>2013-05-11T13:44:26Z</time>
      </trkpt>
      <trkpt lat="43.44992" lon="6.07211">
        <ele>358</ele>
        <time>2013-05-11T13:44:45Z</time>
      </trkpt>
      <trkpt lat="43.44992" lon="6.07211">
        <ele>358.60000610352</ele>
        <time>2013-05-11T13:44:50Z</time>
      </trkpt>
      <trkpt lat="43.44993" lon="6.07211">
        <ele>359</ele>
        <time>2013-05-11T13:44:51Z</time>
      </trkpt>
      <trkpt lat="43.44993" lon="6.07211">
        <ele>359.60000610352</ele>
        <time>2013-05-11T13:44:52Z</time>
      </trkpt>
      <trkpt lat="43.44993" lon="6.07211">
        <ele>360</ele>
        <time>2013-05-11T13:44:53Z</time>
      </trkpt>
      <trkpt lat="43.44994" lon="6.0721">
        <ele>360.60000610352</ele>
        <time>2013-05-11T13:44:55Z</time>
      </trkpt>
      <trkpt lat="43.44995" lon="6.0721">
        <ele>359.60000610352</ele>
        <time>2013-05-11T13:44:59Z</time>
      </trkpt>
      <trkpt lat="43.44995" lon="6.0721">
        <ele>359</ele>
        <time>2013-05-11T13:45:00Z</time>
      </trkpt>
      <trkpt lat="43.44995" lon="6.0721">
        <ele>356.20001220703</ele>
        <time>2013-05-11T13:45:04Z</time>
      </trkpt>
      <trkpt lat="43.44996" lon="6.0721">
        <ele>356.20001220703</ele>
        <time>2013-05-11T13:45:08Z</time>
      </trkpt>
      <trkpt lat="43.44996" lon="6.0721">
        <ele>356.20001220703</ele>
        <time>2013-05-11T13:45:14Z</time>
      </trkpt>
      <trkpt lat="43.44997" lon="6.07209">
        <ele>356.20001220703</ele>
        <time>2013-05-11T13:45:16Z</time>
      </trkpt>
      <trkpt lat="43.44998" lon="6.07208">
        <ele>356.20001220703</ele>
        <time>2013-05-11T13:45:17Z</time>
      </trkpt>
      <trkpt lat="43.45001" lon="6.07207">
        <ele>355.79998779297</ele>
        <time>2013-05-11T13:45:19Z</time>
      </trkpt>
      <trkpt lat="43.45004" lon="6.07206">
        <ele>355</ele>
        <time>2013-05-11T13:45:21Z</time>
      </trkpt>
      <trkpt lat="43.45006" lon="6.07206">
        <ele>354.39999389648</ele>
        <time>2013-05-11T13:45:22Z</time>
      </trkpt>
      <trkpt lat="43.45008" lon="6.07205">
        <ele>354</ele>
        <time>2013-05-11T13:45:23Z</time>
      </trkpt>
      <trkpt lat="43.45009" lon="6.07205">
        <ele>353.60000610352</ele>
        <time>2013-05-11T13:45:24Z</time>
      </trkpt>
      <trkpt lat="43.45011" lon="6.07205">
        <ele>352.60000610352</ele>
        <time>2013-05-11T13:45:26Z</time>
      </trkpt>
      <trkpt lat="43.45012" lon="6.07204">
        <ele>352</ele>
        <time>2013-05-11T13:45:27Z</time>
      </trkpt>
      <trkpt lat="43.45012" lon="6.07204">
        <ele>351.39999389648</ele>
        <time>2013-05-11T13:45:28Z</time>
      </trkpt>
      <trkpt lat="43.45012" lon="6.07204">
        <ele>351.39999389648</ele>
        <time>2013-05-11T13:45:32Z</time>
      </trkpt>
      <trkpt lat="43.45013" lon="6.07204">
        <ele>351.39999389648</ele>
        <time>2013-05-11T13:45:38Z</time>
      </trkpt>
      <trkpt lat="43.45013" lon="6.07203">
        <ele>351.39999389648</ele>
        <time>2013-05-11T13:45:43Z</time>
      </trkpt>
      <trkpt lat="43.45014" lon="6.07203">
        <ele>351.39999389648</ele>
        <time>2013-05-11T13:45:47Z</time>
      </trkpt>
      <trkpt lat="43.45014" lon="6.07202">
        <ele>351.39999389648</ele>
        <time>2013-05-11T13:45:54Z</time>
      </trkpt>
      <trkpt lat="43.45015" lon="6.07202">
        <ele>351.39999389648</ele>
        <time>2013-05-11T13:46:00Z</time>
      </trkpt>
      <trkpt lat="43.45013" lon="6.07201">
        <ele>351.39999389648</ele>
        <time>2013-05-11T13:46:04Z</time>
      </trkpt>
      <trkpt lat="43.45013" lon="6.07201">
        <ele>351</ele>
        <time>2013-05-11T13:46:08Z</time>
      </trkpt>
      <trkpt lat="43.45013" lon="6.07201">
        <ele>349.39999389648</ele>
        <time>2013-05-11T13:46:25Z</time>
      </trkpt>
      <trkpt lat="43.45013" lon="6.07201">
        <ele>349.39999389648</ele>
        <time>2013-05-11T13:48:21Z</time>
      </trkpt>
      <trkpt lat="43.45013" lon="6.07201">
        <ele>349.39999389648</ele>
        <time>2013-05-11T13:48:36Z</time>
      </trkpt>
      <trkpt lat="43.45013" lon="6.072">
        <ele>349.39999389648</ele>
        <time>2013-05-11T13:48:45Z</time>
      </trkpt>
      <trkpt lat="43.45013" lon="6.072">
        <ele>349.39999389648</ele>
        <time>2013-05-11T13:49:18Z</time>
      </trkpt>
      <trkpt lat="43.45013" lon="6.072">
        <ele>349.39999389648</ele>
        <time>2013-05-11T13:49:36Z</time>
      </trkpt>
      <trkpt lat="43.45013" lon="6.072">
        <ele>349.39999389648</ele>
        <time>2013-05-11T13:49:54Z</time>
      </trkpt>
      <trkpt lat="43.45013" lon="6.072">
        <ele>349.39999389648</ele>
        <time>2013-05-11T13:50:27Z</time>
      </trkpt>
      <trkpt lat="43.45013" lon="6.072">
        <ele>349.39999389648</ele>
        <time>2013-05-11T13:51:29Z</time>
      </trkpt>
      <trkpt lat="43.45013" lon="6.072">
        <ele>349.39999389648</ele>
        <time>2013-05-11T13:51:57Z</time>
      </trkpt>
      <trkpt lat="43.45013" lon="6.072">
        <ele>349.39999389648</ele>
        <time>2013-05-11T13:52:51Z</time>
      </trkpt>
      <trkpt lat="43.45013" lon="6.072">
        <ele>349.39999389648</ele>
        <time>2013-05-11T13:53:24Z</time>
      </trkpt>
      <trkpt lat="43.45014" lon="6.072">
        <ele>349.39999389648</ele>
        <time>2013-05-11T13:54:55Z</time>
      </trkpt>
      <trkpt lat="43.45014" lon="6.072">
        <ele>349.39999389648</ele>
        <time>2013-05-11T13:55:12Z</time>
      </trkpt>
      <trkpt lat="43.45014" lon="6.072">
        <ele>349.39999389648</ele>
        <time>2013-05-11T13:55:24Z</time>
      </trkpt>
      <trkpt lat="43.45014" lon="6.072">
        <ele>349.39999389648</ele>
        <time>2013-05-11T13:55:29Z</time>
      </trkpt>
      <trkpt lat="43.45014" lon="6.072">
        <ele>349.39999389648</ele>
        <time>2013-05-11T13:55:46Z</time>
      </trkpt>
      <trkpt lat="43.45014" lon="6.072">
        <ele>349.39999389648</ele>
        <time>2013-05-11T13:56:27Z</time>
      </trkpt>
      <trkpt lat="43.45014" lon="6.072">
        <ele>349.39999389648</ele>
        <time>2013-05-11T13:57:47Z</time>
      </trkpt>
      <trkpt lat="43.45014" lon="6.072">
        <ele>349.39999389648</ele>
        <time>2013-05-11T13:58:00Z</time>
      </trkpt>
      <trkpt lat="43.45011" lon="6.07199">
        <ele>349.39999389648</ele>
        <time>2013-05-11T13:58:08Z</time>
      </trkpt>
      <trkpt lat="43.45008" lon="6.07196">
        <ele>349.39999389648</ele>
        <time>2013-05-11T13:58:11Z</time>
      </trkpt>
      <trkpt lat="43.45006" lon="6.07193">
        <ele>349.39999389648</ele>
        <time>2013-05-11T13:58:13Z</time>
      </trkpt>
      <trkpt lat="43.45006" lon="6.07192">
        <ele>349.39999389648</ele>
        <time>2013-05-11T13:58:19Z</time>
      </trkpt>
      <trkpt lat="43.45006" lon="6.07192">
        <ele>349.39999389648</ele>
        <time>2013-05-11T13:58:34Z</time>
      </trkpt>
      <trkpt lat="43.45006" lon="6.07192">
        <ele>349.39999389648</ele>
        <time>2013-05-11T13:58:45Z</time>
      </trkpt>
      <trkpt lat="43.45007" lon="6.07189">
        <ele>349.39999389648</ele>
        <time>2013-05-11T13:58:47Z</time>
      </trkpt>
      <trkpt lat="43.45006" lon="6.07184">
        <ele>349</ele>
        <time>2013-05-11T13:58:49Z</time>
      </trkpt>
      <trkpt lat="43.45005" lon="6.0718">
        <ele>347.60000610352</ele>
        <time>2013-05-11T13:58:51Z</time>
      </trkpt>
      <trkpt lat="43.45005" lon="6.0718">
        <ele>347.20001220703</ele>
        <time>2013-05-11T13:58:52Z</time>
      </trkpt>
      <trkpt lat="43.45005" lon="6.07178">
        <ele>346.39999389648</ele>
        <time>2013-05-11T13:58:54Z</time>
      </trkpt>
      <trkpt lat="43.45006" lon="6.07178">
        <ele>346</ele>
        <time>2013-05-11T13:58:55Z</time>
      </trkpt>
      <trkpt lat="43.45008" lon="6.07177">
        <ele>345.60000610352</ele>
        <time>2013-05-11T13:58:56Z</time>
      </trkpt>
      <trkpt lat="43.45009" lon="6.07176">
        <ele>345.20001220703</ele>
        <time>2013-05-11T13:58:57Z</time>
      </trkpt>
      <trkpt lat="43.45011" lon="6.07174">
        <ele>345.20001220703</ele>
        <time>2013-05-11T13:58:59Z</time>
      </trkpt>
      <trkpt lat="43.4501" lon="6.07171">
        <ele>344.60000610352</ele>
        <time>2013-05-11T13:59:00Z</time>
      </trkpt>
      <trkpt lat="43.45009" lon="6.07168">
        <ele>343.79998779297</ele>
        <time>2013-05-11T13:59:02Z</time>
      </trkpt>
      <trkpt lat="43.45008" lon="6.07168">
        <ele>343.39999389648</ele>
        <time>2013-05-11T13:59:04Z</time>
      </trkpt>
      <trkpt lat="43.45008" lon="6.07168">
        <ele>343</ele>
        <time>2013-05-11T13:59:05Z</time>
      </trkpt>
      <trkpt lat="43.45008" lon="6.07168">
        <ele>343</ele>
        <time>2013-05-11T13:59:20Z</time>
      </trkpt>
      <trkpt lat="43.45008" lon="6.07167">
        <ele>343</ele>
        <time>2013-05-11T13:59:56Z</time>
      </trkpt>
      <trkpt lat="43.45008" lon="6.07167">
        <ele>343</ele>
        <time>2013-05-11T14:00:07Z</time>
      </trkpt>
      <trkpt lat="43.45009" lon="6.07167">
        <ele>343</ele>
        <time>2013-05-11T14:00:09Z</time>
      </trkpt>
      <trkpt lat="43.45012" lon="6.07163">
        <ele>343</ele>
        <time>2013-05-11T14:00:12Z</time>
      </trkpt>
      <trkpt lat="43.45013" lon="6.07162">
        <ele>343</ele>
        <time>2013-05-11T14:00:13Z</time>
      </trkpt>
      <trkpt lat="43.45016" lon="6.07161">
        <ele>343</ele>
        <time>2013-05-11T14:00:15Z</time>
      </trkpt>
      <trkpt lat="43.4502" lon="6.07159">
        <ele>343</ele>
        <time>2013-05-11T14:00:17Z</time>
      </trkpt>
      <trkpt lat="43.4502" lon="6.07159">
        <ele>342.60000610352</ele>
        <time>2013-05-11T14:00:20Z</time>
      </trkpt>
      <trkpt lat="43.4502" lon="6.07159">
        <ele>341</ele>
        <time>2013-05-11T14:00:27Z</time>
      </trkpt>
      <trkpt lat="43.4502" lon="6.07158">
        <ele>341</ele>
        <time>2013-05-11T14:00:33Z</time>
      </trkpt>
      <trkpt lat="43.4502" lon="6.07158">
        <ele>341</ele>
        <time>2013-05-11T14:00:46Z</time>
      </trkpt>
      <trkpt lat="43.4502" lon="6.07158">
        <ele>341</ele>
        <time>2013-05-11T14:01:01Z</time>
      </trkpt>
      <trkpt lat="43.4502" lon="6.07158">
        <ele>341</ele>
        <time>2013-05-11T14:01:08Z</time>
      </trkpt>
      <trkpt lat="43.45021" lon="6.07157">
        <ele>341</ele>
        <time>2013-05-11T14:01:11Z</time>
      </trkpt>
      <trkpt lat="43.45022" lon="6.07157">
        <ele>341</ele>
        <time>2013-05-11T14:01:17Z</time>
      </trkpt>
      <trkpt lat="43.45025" lon="6.0715">
        <ele>341</ele>
        <time>2013-05-11T14:01:21Z</time>
      </trkpt>
      <trkpt lat="43.45029" lon="6.07141">
        <ele>340.20001220703</ele>
        <time>2013-05-11T14:01:24Z</time>
      </trkpt>
      <trkpt lat="43.45029" lon="6.0714">
        <ele>339.60000610352</ele>
        <time>2013-05-11T14:01:25Z</time>
      </trkpt>
      <trkpt lat="43.45029" lon="6.07139">
        <ele>339</ele>
        <time>2013-05-11T14:01:26Z</time>
      </trkpt>
      <trkpt lat="43.45029" lon="6.07139">
        <ele>336.79998779297</ele>
        <time>2013-05-11T14:01:46Z</time>
      </trkpt>
      <trkpt lat="43.45029" lon="6.07139">
        <ele>336.79998779297</ele>
        <time>2013-05-11T14:01:57Z</time>
      </trkpt>
      <trkpt lat="43.45028" lon="6.07136">
        <ele>336.79998779297</ele>
        <time>2013-05-11T14:02:05Z</time>
      </trkpt>
      <trkpt lat="43.45027" lon="6.07134">
        <ele>336.39999389648</ele>
        <time>2013-05-11T14:02:07Z</time>
      </trkpt>
      <trkpt lat="43.45027" lon="6.07133">
        <ele>335.39999389648</ele>
        <time>2013-05-11T14:02:08Z</time>
      </trkpt>
      <trkpt lat="43.45029" lon="6.07127">
        <ele>334.60000610352</ele>
        <time>2013-05-11T14:02:10Z</time>
      </trkpt>
      <trkpt lat="43.45029" lon="6.07126">
        <ele>334.60000610352</ele>
        <time>2013-05-11T14:02:14Z</time>
      </trkpt>
      <trkpt lat="43.45029" lon="6.07125">
        <ele>334.60000610352</ele>
        <time>2013-05-11T14:02:23Z</time>
      </trkpt>
      <trkpt lat="43.45031" lon="6.07123">
        <ele>334.60000610352</ele>
        <time>2013-05-11T14:02:30Z</time>
      </trkpt>
      <trkpt lat="43.45031" lon="6.07123">
        <ele>333.79998779297</ele>
        <time>2013-05-11T14:02:47Z</time>
      </trkpt>
      <trkpt lat="43.45031" lon="6.07123">
        <ele>332.60000610352</ele>
        <time>2013-05-11T14:02:50Z</time>
      </trkpt>
      <trkpt lat="43.45031" lon="6.07123">
        <ele>332.60000610352</ele>
        <time>2013-05-11T14:02:56Z</time>
      </trkpt>
      <trkpt lat="43.45031" lon="6.07122">
        <ele>332.60000610352</ele>
        <time>2013-05-11T14:03:03Z</time>
      </trkpt>
      <trkpt lat="43.45032" lon="6.07119">
        <ele>332.60000610352</ele>
        <time>2013-05-11T14:03:06Z</time>
      </trkpt>
      <trkpt lat="43.45033" lon="6.07115">
        <ele>332.60000610352</ele>
        <time>2013-05-11T14:03:08Z</time>
      </trkpt>
      <trkpt lat="43.45031" lon="6.0711">
        <ele>332.60000610352</ele>
        <time>2013-05-11T14:03:11Z</time>
      </trkpt>
      <trkpt lat="43.4503" lon="6.07109">
        <ele>332.60000610352</ele>
        <time>2013-05-11T14:03:12Z</time>
      </trkpt>
      <trkpt lat="43.45033" lon="6.07103">
        <ele>332.60000610352</ele>
        <time>2013-05-11T14:03:15Z</time>
      </trkpt>
      <trkpt lat="43.45033" lon="6.071">
        <ele>332.20001220703</ele>
        <time>2013-05-11T14:03:16Z</time>
      </trkpt>
      <trkpt lat="43.45034" lon="6.07097">
        <ele>331.60000610352</ele>
        <time>2013-05-11T14:03:17Z</time>
      </trkpt>
      <trkpt lat="43.45033" lon="6.07096">
        <ele>331.20001220703</ele>
        <time>2013-05-11T14:03:18Z</time>
      </trkpt>
      <trkpt lat="43.45033" lon="6.07094">
        <ele>330.79998779297</ele>
        <time>2013-05-11T14:03:19Z</time>
      </trkpt>
      <trkpt lat="43.45033" lon="6.07091">
        <ele>330.39999389648</ele>
        <time>2013-05-11T14:03:20Z</time>
      </trkpt>
      <trkpt lat="43.45031" lon="6.0708">
        <ele>329</ele>
        <time>2013-05-11T14:03:23Z</time>
      </trkpt>
      <trkpt lat="43.45029" lon="6.07075">
        <ele>328.39999389648</ele>
        <time>2013-05-11T14:03:24Z</time>
      </trkpt>
      <trkpt lat="43.45028" lon="6.07073">
        <ele>328</ele>
        <time>2013-05-11T14:03:25Z</time>
      </trkpt>
      <trkpt lat="43.45027" lon="6.07072">
        <ele>328</ele>
        <time>2013-05-11T14:03:27Z</time>
      </trkpt>
      <trkpt lat="43.45027" lon="6.07072">
        <ele>328</ele>
        <time>2013-05-11T14:03:33Z</time>
      </trkpt>
      <trkpt lat="43.45027" lon="6.07072">
        <ele>325.79998779297</ele>
        <time>2013-05-11T14:03:48Z</time>
      </trkpt>
      <trkpt lat="43.45027" lon="6.07072">
        <ele>325.79998779297</ele>
        <time>2013-05-11T14:04:50Z</time>
      </trkpt>
      <trkpt lat="43.45027" lon="6.07072">
        <ele>325.79998779297</ele>
        <time>2013-05-11T14:05:01Z</time>
      </trkpt>
      <trkpt lat="43.45026" lon="6.0707">
        <ele>325.79998779297</ele>
        <time>2013-05-11T14:05:05Z</time>
      </trkpt>
      <trkpt lat="43.45024" lon="6.07067">
        <ele>325.79998779297</ele>
        <time>2013-05-11T14:05:07Z</time>
      </trkpt>
      <trkpt lat="43.45017" lon="6.07064">
        <ele>325.79998779297</ele>
        <time>2013-05-11T14:05:11Z</time>
      </trkpt>
      <trkpt lat="43.45016" lon="6.0706">
        <ele>325.79998779297</ele>
        <time>2013-05-11T14:05:14Z</time>
      </trkpt>
      <trkpt lat="43.45014" lon="6.07057">
        <ele>325.20001220703</ele>
        <time>2013-05-11T14:05:16Z</time>
      </trkpt>
      <trkpt lat="43.45013" lon="6.07057">
        <ele>324.79998779297</ele>
        <time>2013-05-11T14:05:17Z</time>
      </trkpt>
      <trkpt lat="43.45012" lon="6.07056">
        <ele>324.39999389648</ele>
        <time>2013-05-11T14:05:18Z</time>
      </trkpt>
      <trkpt lat="43.45012" lon="6.07051">
        <ele>323.39999389648</ele>
        <time>2013-05-11T14:05:20Z</time>
      </trkpt>
      <trkpt lat="43.4501" lon="6.07037">
        <ele>323</ele>
        <time>2013-05-11T14:05:26Z</time>
      </trkpt>
      <trkpt lat="43.4501" lon="6.07036">
        <ele>322.39999389648</ele>
        <time>2013-05-11T14:05:27Z</time>
      </trkpt>
      <trkpt lat="43.45008" lon="6.07034">
        <ele>322</ele>
        <time>2013-05-11T14:05:28Z</time>
      </trkpt>
      <trkpt lat="43.45005" lon="6.07032">
        <ele>321.20001220703</ele>
        <time>2013-05-11T14:05:30Z</time>
      </trkpt>
      <trkpt lat="43.45004" lon="6.0703">
        <ele>321.20001220703</ele>
        <time>2013-05-11T14:05:31Z</time>
      </trkpt>
      <trkpt lat="43.45004" lon="6.07028">
        <ele>321.20001220703</ele>
        <time>2013-05-11T14:05:32Z</time>
      </trkpt>
      <trkpt lat="43.45002" lon="6.07023">
        <ele>321.20001220703</ele>
        <time>2013-05-11T14:05:36Z</time>
      </trkpt>
      <trkpt lat="43.45002" lon="6.07023">
        <ele>321.20001220703</ele>
        <time>2013-05-11T14:05:57Z</time>
      </trkpt>
      <trkpt lat="43.45002" lon="6.07023">
        <ele>321.20001220703</ele>
        <time>2013-05-11T14:06:03Z</time>
      </trkpt>
      <trkpt lat="43.45002" lon="6.07022">
        <ele>321.20001220703</ele>
        <time>2013-05-11T14:06:05Z</time>
      </trkpt>
      <trkpt lat="43.45001" lon="6.07022">
        <ele>321.20001220703</ele>
        <time>2013-05-11T14:06:07Z</time>
      </trkpt>
      <trkpt lat="43.44997" lon="6.0702">
        <ele>321.20001220703</ele>
        <time>2013-05-11T14:06:10Z</time>
      </trkpt>
      <trkpt lat="43.44997" lon="6.07019">
        <ele>321.20001220703</ele>
        <time>2013-05-11T14:06:15Z</time>
      </trkpt>
      <trkpt lat="43.44995" lon="6.07014">
        <ele>321.20001220703</ele>
        <time>2013-05-11T14:06:20Z</time>
      </trkpt>
      <trkpt lat="43.44992" lon="6.0701">
        <ele>320.39999389648</ele>
        <time>2013-05-11T14:06:24Z</time>
      </trkpt>
      <trkpt lat="43.44991" lon="6.0701">
        <ele>320</ele>
        <time>2013-05-11T14:06:25Z</time>
      </trkpt>
      <trkpt lat="43.44991" lon="6.0701">
        <ele>319.60000610352</ele>
        <time>2013-05-11T14:06:26Z</time>
      </trkpt>
      <trkpt lat="43.44991" lon="6.0701">
        <ele>319.20001220703</ele>
        <time>2013-05-11T14:06:29Z</time>
      </trkpt>
      <trkpt lat="43.44991" lon="6.07011">
        <ele>319.20001220703</ele>
        <time>2013-05-11T14:06:38Z</time>
      </trkpt>
      <trkpt lat="43.44991" lon="6.0701">
        <ele>319.20001220703</ele>
        <time>2013-05-11T14:06:39Z</time>
      </trkpt>
      <trkpt lat="43.44989" lon="6.0701">
        <ele>319.20001220703</ele>
        <time>2013-05-11T14:06:51Z</time>
      </trkpt>
      <trkpt lat="43.44989" lon="6.0701">
        <ele>320.39999389648</ele>
        <time>2013-05-11T14:06:58Z</time>
      </trkpt>
      <trkpt lat="43.44987" lon="6.07011">
        <ele>321.20001220703</ele>
        <time>2013-05-11T14:07:00Z</time>
      </trkpt>
      <trkpt lat="43.44985" lon="6.07011">
        <ele>321.20001220703</ele>
        <time>2013-05-11T14:07:05Z</time>
      </trkpt>
      <trkpt lat="43.44985" lon="6.07012">
        <ele>321.20001220703</ele>
        <time>2013-05-11T14:07:14Z</time>
      </trkpt>
      <trkpt lat="43.44985" lon="6.07012">
        <ele>321.20001220703</ele>
        <time>2013-05-11T14:07:29Z</time>
      </trkpt>
      <trkpt lat="43.44985" lon="6.07012">
        <ele>319.20001220703</ele>
        <time>2013-05-11T14:07:42Z</time>
      </trkpt>
      <trkpt lat="43.44984" lon="6.07012">
        <ele>320</ele>
        <time>2013-05-11T14:07:46Z</time>
      </trkpt>
      <trkpt lat="43.44984" lon="6.07012">
        <ele>321.20001220703</ele>
        <time>2013-05-11T14:08:10Z</time>
      </trkpt>
      <trkpt lat="43.44984" lon="6.07012">
        <ele>321.20001220703</ele>
        <time>2013-05-11T14:08:26Z</time>
      </trkpt>
      <trkpt lat="43.44984" lon="6.07012">
        <ele>321.20001220703</ele>
        <time>2013-05-11T14:08:40Z</time>
      </trkpt>
      <trkpt lat="43.44979" lon="6.07012">
        <ele>321.20001220703</ele>
        <time>2013-05-11T14:08:44Z</time>
      </trkpt>
      <trkpt lat="43.44977" lon="6.07011">
        <ele>321.20001220703</ele>
        <time>2013-05-11T14:08:46Z</time>
      </trkpt>
      <trkpt lat="43.44974" lon="6.0701">
        <ele>321.20001220703</ele>
        <time>2013-05-11T14:08:48Z</time>
      </trkpt>
      <trkpt lat="43.4497" lon="6.0701">
        <ele>320.20001220703</ele>
        <time>2013-05-11T14:08:50Z</time>
      </trkpt>
      <trkpt lat="43.44968" lon="6.07009">
        <ele>319.79998779297</ele>
        <time>2013-05-11T14:08:51Z</time>
      </trkpt>
      <trkpt lat="43.44966" lon="6.07007">
        <ele>318.60000610352</ele>
        <time>2013-05-11T14:08:53Z</time>
      </trkpt>
      <trkpt lat="43.4496" lon="6.07005">
        <ele>318.60000610352</ele>
        <time>2013-05-11T14:08:57Z</time>
      </trkpt>
      <trkpt lat="43.44957" lon="6.07002">
        <ele>318.60000610352</ele>
        <time>2013-05-11T14:08:59Z</time>
      </trkpt>
      <trkpt lat="43.44955" lon="6.07001">
        <ele>318.60000610352</ele>
        <time>2013-05-11T14:09:00Z</time>
      </trkpt>
      <trkpt lat="43.44949" lon="6.07001">
        <ele>318.60000610352</ele>
        <time>2013-05-11T14:09:04Z</time>
      </trkpt>
      <trkpt lat="43.44949" lon="6.07002">
        <ele>318.60000610352</ele>
        <time>2013-05-11T14:09:09Z</time>
      </trkpt>
      <trkpt lat="43.44949" lon="6.07002">
        <ele>318.60000610352</ele>
        <time>2013-05-11T14:09:10Z</time>
      </trkpt>
      <trkpt lat="43.4495" lon="6.07002">
        <ele>318.60000610352</ele>
        <time>2013-05-11T14:09:18Z</time>
      </trkpt>
      <trkpt lat="43.44953" lon="6.07003">
        <ele>318.60000610352</ele>
        <time>2013-05-11T14:09:24Z</time>
      </trkpt>
      <trkpt lat="43.44953" lon="6.07003">
        <ele>318.60000610352</ele>
        <time>2013-05-11T14:09:51Z</time>
      </trkpt>
      <trkpt lat="43.44953" lon="6.07003">
        <ele>318.60000610352</ele>
        <time>2013-05-11T14:10:02Z</time>
      </trkpt>
      <trkpt lat="43.44953" lon="6.07002">
        <ele>318.60000610352</ele>
        <time>2013-05-11T14:10:07Z</time>
      </trkpt>
      <trkpt lat="43.44951" lon="6.07002">
        <ele>318.60000610352</ele>
        <time>2013-05-11T14:10:15Z</time>
      </trkpt>
      <trkpt lat="43.44951" lon="6.07002">
        <ele>318.60000610352</ele>
        <time>2013-05-11T14:10:23Z</time>
      </trkpt>
      <trkpt lat="43.4495" lon="6.07002">
        <ele>318.60000610352</ele>
        <time>2013-05-11T14:10:25Z</time>
      </trkpt>
      <trkpt lat="43.44946" lon="6.07001">
        <ele>318.60000610352</ele>
        <time>2013-05-11T14:10:27Z</time>
      </trkpt>
      <trkpt lat="43.44943" lon="6.07">
        <ele>318.60000610352</ele>
        <time>2013-05-11T14:10:29Z</time>
      </trkpt>
      <trkpt lat="43.44942" lon="6.06997">
        <ele>318.60000610352</ele>
        <time>2013-05-11T14:10:32Z</time>
      </trkpt>
      <trkpt lat="43.44941" lon="6.06995">
        <ele>318.20001220703</ele>
        <time>2013-05-11T14:10:34Z</time>
      </trkpt>
      <trkpt lat="43.44939" lon="6.06993">
        <ele>317.79998779297</ele>
        <time>2013-05-11T14:10:35Z</time>
      </trkpt>
      <trkpt lat="43.44936" lon="6.06989">
        <ele>316.60000610352</ele>
        <time>2013-05-11T14:10:38Z</time>
      </trkpt>
      <trkpt lat="43.44936" lon="6.06989">
        <ele>316.60000610352</ele>
        <time>2013-05-11T14:10:44Z</time>
      </trkpt>
      <trkpt lat="43.44936" lon="6.06989">
        <ele>315.39999389648</ele>
        <time>2013-05-11T14:10:47Z</time>
      </trkpt>
      <trkpt lat="43.44936" lon="6.06988">
        <ele>314.39999389648</ele>
        <time>2013-05-11T14:10:48Z</time>
      </trkpt>
      <trkpt lat="43.44936" lon="6.06988">
        <ele>314.39999389648</ele>
        <time>2013-05-11T14:11:14Z</time>
      </trkpt>
      <trkpt lat="43.44936" lon="6.06988">
        <ele>314.39999389648</ele>
        <time>2013-05-11T14:11:35Z</time>
      </trkpt>
      <trkpt lat="43.44936" lon="6.06988">
        <ele>314.39999389648</ele>
        <time>2013-05-11T14:11:42Z</time>
      </trkpt>
      <trkpt lat="43.44935" lon="6.06987">
        <ele>314.39999389648</ele>
        <time>2013-05-11T14:11:53Z</time>
      </trkpt>
      <trkpt lat="43.44934" lon="6.06983">
        <ele>314.39999389648</ele>
        <time>2013-05-11T14:11:59Z</time>
      </trkpt>
      <trkpt lat="43.44934" lon="6.06983">
        <ele>314.39999389648</ele>
        <time>2013-05-11T14:12:08Z</time>
      </trkpt>
      <trkpt lat="43.44929" lon="6.06978">
        <ele>314.39999389648</ele>
        <time>2013-05-11T14:12:13Z</time>
      </trkpt>
      <trkpt lat="43.44928" lon="6.06976">
        <ele>314</ele>
        <time>2013-05-11T14:12:16Z</time>
      </trkpt>
      <trkpt lat="43.44928" lon="6.06976">
        <ele>313.60000610352</ele>
        <time>2013-05-11T14:12:17Z</time>
      </trkpt>
      <trkpt lat="43.44928" lon="6.06976">
        <ele>313.20001220703</ele>
        <time>2013-05-11T14:12:18Z</time>
      </trkpt>
      <trkpt lat="43.44928" lon="6.06976">
        <ele>312.39999389648</ele>
        <time>2013-05-11T14:12:23Z</time>
      </trkpt>
      <trkpt lat="43.44927" lon="6.06971">
        <ele>312.39999389648</ele>
        <time>2013-05-11T14:12:30Z</time>
      </trkpt>
      <trkpt lat="43.44927" lon="6.0697">
        <ele>312.39999389648</ele>
        <time>2013-05-11T14:12:36Z</time>
      </trkpt>
      <trkpt lat="43.44922" lon="6.06969">
        <ele>312.39999389648</ele>
        <time>2013-05-11T14:12:44Z</time>
      </trkpt>
      <trkpt lat="43.44921" lon="6.06968">
        <ele>312.39999389648</ele>
        <time>2013-05-11T14:12:45Z</time>
      </trkpt>
      <trkpt lat="43.44918" lon="6.06967">
        <ele>311.60000610352</ele>
        <time>2013-05-11T14:12:47Z</time>
      </trkpt>
      <trkpt lat="43.44915" lon="6.06965">
        <ele>310.79998779297</ele>
        <time>2013-05-11T14:12:49Z</time>
      </trkpt>
      <trkpt lat="43.44914" lon="6.06964">
        <ele>310.39999389648</ele>
        <time>2013-05-11T14:12:50Z</time>
      </trkpt>
      <trkpt lat="43.44913" lon="6.06965">
        <ele>310.39999389648</ele>
        <time>2013-05-11T14:12:51Z</time>
      </trkpt>
      <trkpt lat="43.44912" lon="6.06964">
        <ele>310.39999389648</ele>
        <time>2013-05-11T14:12:53Z</time>
      </trkpt>
      <trkpt lat="43.44912" lon="6.06964">
        <ele>309.39999389648</ele>
        <time>2013-05-11T14:12:57Z</time>
      </trkpt>
      <trkpt lat="43.44912" lon="6.06964">
        <ele>309</ele>
        <time>2013-05-11T14:12:58Z</time>
      </trkpt>
      <trkpt lat="43.44912" lon="6.06964">
        <ele>308.20001220703</ele>
        <time>2013-05-11T14:13:20Z</time>
      </trkpt>
      <trkpt lat="43.44912" lon="6.06964">
        <ele>308.20001220703</ele>
        <time>2013-05-11T14:13:34Z</time>
      </trkpt>
      <trkpt lat="43.44912" lon="6.06964">
        <ele>308.20001220703</ele>
        <time>2013-05-11T14:13:38Z</time>
      </trkpt>
      <trkpt lat="43.44911" lon="6.06963">
        <ele>308.20001220703</ele>
        <time>2013-05-11T14:13:43Z</time>
      </trkpt>
      <trkpt lat="43.44904" lon="6.06967">
        <ele>308.20001220703</ele>
        <time>2013-05-11T14:13:48Z</time>
      </trkpt>
      <trkpt lat="43.44898" lon="6.06968">
        <ele>307.79998779297</ele>
        <time>2013-05-11T14:13:51Z</time>
      </trkpt>
      <trkpt lat="43.44897" lon="6.06968">
        <ele>307.39999389648</ele>
        <time>2013-05-11T14:13:52Z</time>
      </trkpt>
      <trkpt lat="43.44896" lon="6.06967">
        <ele>307</ele>
        <time>2013-05-11T14:13:53Z</time>
      </trkpt>
      <trkpt lat="43.44895" lon="6.06968">
        <ele>306.60000610352</ele>
        <time>2013-05-11T14:13:54Z</time>
      </trkpt>
      <trkpt lat="43.44893" lon="6.06968">
        <ele>306.20001220703</ele>
        <time>2013-05-11T14:13:55Z</time>
      </trkpt>
      <trkpt lat="43.4489" lon="6.0697">
        <ele>305.79998779297</ele>
        <time>2013-05-11T14:13:57Z</time>
      </trkpt>
      <trkpt lat="43.44888" lon="6.06972">
        <ele>305</ele>
        <time>2013-05-11T14:13:59Z</time>
      </trkpt>
      <trkpt lat="43.44885" lon="6.06972">
        <ele>304.20001220703</ele>
        <time>2013-05-11T14:14:01Z</time>
      </trkpt>
      <trkpt lat="43.44882" lon="6.06971">
        <ele>304.20001220703</ele>
        <time>2013-05-11T14:14:03Z</time>
      </trkpt>
      <trkpt lat="43.4488" lon="6.06972">
        <ele>304.20001220703</ele>
        <time>2013-05-11T14:14:05Z</time>
      </trkpt>
      <trkpt lat="43.44872" lon="6.06978">
        <ele>303.39999389648</ele>
        <time>2013-05-11T14:14:11Z</time>
      </trkpt>
      <trkpt lat="43.44869" lon="6.0698">
        <ele>302.39999389648</ele>
        <time>2013-05-11T14:14:13Z</time>
      </trkpt>
      <trkpt lat="43.44857" lon="6.06999">
        <ele>301.60000610352</ele>
        <time>2013-05-11T14:14:20Z</time>
      </trkpt>
      <trkpt lat="43.44854" lon="6.07006">
        <ele>300.60000610352</ele>
        <time>2013-05-11T14:14:22Z</time>
      </trkpt>
      <trkpt lat="43.44851" lon="6.07013">
        <ele>299.79998779297</ele>
        <time>2013-05-11T14:14:24Z</time>
      </trkpt>
      <trkpt lat="43.44845" lon="6.07033">
        <ele>299.79998779297</ele>
        <time>2013-05-11T14:14:28Z</time>
      </trkpt>
      <trkpt lat="43.44841" lon="6.07044">
        <ele>298.79998779297</ele>
        <time>2013-05-11T14:14:30Z</time>
      </trkpt>
      <trkpt lat="43.44839" lon="6.07048">
        <ele>298.39999389648</ele>
        <time>2013-05-11T14:14:31Z</time>
      </trkpt>
      <trkpt lat="43.44837" lon="6.07053">
        <ele>298</ele>
        <time>2013-05-11T14:14:32Z</time>
      </trkpt>
      <trkpt lat="43.44834" lon="6.07057">
        <ele>297.60000610352</ele>
        <time>2013-05-11T14:14:33Z</time>
      </trkpt>
      <trkpt lat="43.44826" lon="6.07064">
        <ele>297.20001220703</ele>
        <time>2013-05-11T14:14:35Z</time>
      </trkpt>
      <trkpt lat="43.44822" lon="6.07066">
        <ele>296.79998779297</ele>
        <time>2013-05-11T14:14:36Z</time>
      </trkpt>
      <trkpt lat="43.44817" lon="6.07069">
        <ele>296.39999389648</ele>
        <time>2013-05-11T14:14:37Z</time>
      </trkpt>
      <trkpt lat="43.44813" lon="6.0707">
        <ele>296</ele>
        <time>2013-05-11T14:14:38Z</time>
      </trkpt>
      <trkpt lat="43.44799" lon="6.07078">
        <ele>295</ele>
        <time>2013-05-11T14:14:42Z</time>
      </trkpt>
      <trkpt lat="43.44791" lon="6.07087">
        <ele>294.20001220703</ele>
        <time>2013-05-11T14:14:44Z</time>
      </trkpt>
      <trkpt lat="43.44784" lon="6.07098">
        <ele>293.20001220703</ele>
        <time>2013-05-11T14:14:46Z</time>
      </trkpt>
      <trkpt lat="43.44776" lon="6.07109">
        <ele>292</ele>
        <time>2013-05-11T14:14:48Z</time>
      </trkpt>
      <trkpt lat="43.44771" lon="6.07116">
        <ele>291.39999389648</ele>
        <time>2013-05-11T14:14:49Z</time>
      </trkpt>
      <trkpt lat="43.44765" lon="6.07122">
        <ele>290.79998779297</ele>
        <time>2013-05-11T14:14:50Z</time>
      </trkpt>
      <trkpt lat="43.4476" lon="6.07127">
        <ele>290.20001220703</ele>
        <time>2013-05-11T14:14:51Z</time>
      </trkpt>
      <trkpt lat="43.44754" lon="6.07133">
        <ele>289.79998779297</ele>
        <time>2013-05-11T14:14:52Z</time>
      </trkpt>
      <trkpt lat="43.44749" lon="6.07138">
        <ele>289.20001220703</ele>
        <time>2013-05-11T14:14:53Z</time>
      </trkpt>
      <trkpt lat="43.44742" lon="6.07143">
        <ele>288.60000610352</ele>
        <time>2013-05-11T14:14:54Z</time>
      </trkpt>
      <trkpt lat="43.44736" lon="6.07149">
        <ele>287.20001220703</ele>
        <time>2013-05-11T14:14:55Z</time>
      </trkpt>
      <trkpt lat="43.44729" lon="6.07155">
        <ele>286.60000610352</ele>
        <time>2013-05-11T14:14:56Z</time>
      </trkpt>
      <trkpt lat="43.44722" lon="6.0716">
        <ele>285.79998779297</ele>
        <time>2013-05-11T14:14:57Z</time>
      </trkpt>
      <trkpt lat="43.44714" lon="6.07164">
        <ele>285</ele>
        <time>2013-05-11T14:14:58Z</time>
      </trkpt>
      <trkpt lat="43.44707" lon="6.07166">
        <ele>284.39999389648</ele>
        <time>2013-05-11T14:14:59Z</time>
      </trkpt>
      <trkpt lat="43.447" lon="6.07167">
        <ele>283.60000610352</ele>
        <time>2013-05-11T14:15:00Z</time>
      </trkpt>
      <trkpt lat="43.44692" lon="6.07168">
        <ele>282.79998779297</ele>
        <time>2013-05-11T14:15:01Z</time>
      </trkpt>
      <trkpt lat="43.44685" lon="6.07167">
        <ele>282</ele>
        <time>2013-05-11T14:15:02Z</time>
      </trkpt>
      <trkpt lat="43.44677" lon="6.07166">
        <ele>281.20001220703</ele>
        <time>2013-05-11T14:15:03Z</time>
      </trkpt>
      <trkpt lat="43.44656" lon="6.07165">
        <ele>280.79998779297</ele>
        <time>2013-05-11T14:15:06Z</time>
      </trkpt>
      <trkpt lat="43.44645" lon="6.07168">
        <ele>279.79998779297</ele>
        <time>2013-05-11T14:15:08Z</time>
      </trkpt>
      <trkpt lat="43.4464" lon="6.0717">
        <ele>279.39999389648</ele>
        <time>2013-05-11T14:15:09Z</time>
      </trkpt>
      <trkpt lat="43.44635" lon="6.07172">
        <ele>279</ele>
        <time>2013-05-11T14:15:10Z</time>
      </trkpt>
      <trkpt lat="43.44629" lon="6.07173">
        <ele>279</ele>
        <time>2013-05-11T14:15:11Z</time>
      </trkpt>
      <trkpt lat="43.44613" lon="6.07174">
        <ele>278.60000610352</ele>
        <time>2013-05-11T14:15:14Z</time>
      </trkpt>
      <trkpt lat="43.44607" lon="6.07174">
        <ele>278</ele>
        <time>2013-05-11T14:15:15Z</time>
      </trkpt>
      <trkpt lat="43.44601" lon="6.07173">
        <ele>277.60000610352</ele>
        <time>2013-05-11T14:15:16Z</time>
      </trkpt>
      <trkpt lat="43.44595" lon="6.07174">
        <ele>277.20001220703</ele>
        <time>2013-05-11T14:15:17Z</time>
      </trkpt>
      <trkpt lat="43.44588" lon="6.07174">
        <ele>276.79998779297</ele>
        <time>2013-05-11T14:15:18Z</time>
      </trkpt>
      <trkpt lat="43.44572" lon="6.07176">
        <ele>276.20001220703</ele>
        <time>2013-05-11T14:15:20Z</time>
      </trkpt>
      <trkpt lat="43.44565" lon="6.07177">
        <ele>275.79998779297</ele>
        <time>2013-05-11T14:15:21Z</time>
      </trkpt>
      <trkpt lat="43.4455" lon="6.07177">
        <ele>274.79998779297</ele>
        <time>2013-05-11T14:15:23Z</time>
      </trkpt>
      <trkpt lat="43.44542" lon="6.07179">
        <ele>274.39999389648</ele>
        <time>2013-05-11T14:15:24Z</time>
      </trkpt>
      <trkpt lat="43.44534" lon="6.07184">
        <ele>273.79998779297</ele>
        <time>2013-05-11T14:15:25Z</time>
      </trkpt>
      <trkpt lat="43.44525" lon="6.07189">
        <ele>273.20001220703</ele>
        <time>2013-05-11T14:15:26Z</time>
      </trkpt>
      <trkpt lat="43.44516" lon="6.07194">
        <ele>272.39999389648</ele>
        <time>2013-05-11T14:15:27Z</time>
      </trkpt>
      <trkpt lat="43.44506" lon="6.072">
        <ele>271.39999389648</ele>
        <time>2013-05-11T14:15:28Z</time>
      </trkpt>
      <trkpt lat="43.44497" lon="6.07206">
        <ele>270.20001220703</ele>
        <time>2013-05-11T14:15:29Z</time>
      </trkpt>
      <trkpt lat="43.44488" lon="6.07209">
        <ele>269.20001220703</ele>
        <time>2013-05-11T14:15:30Z</time>
      </trkpt>
      <trkpt lat="43.44479" lon="6.07209">
        <ele>268</ele>
        <time>2013-05-11T14:15:31Z</time>
      </trkpt>
      <trkpt lat="43.4447" lon="6.07205">
        <ele>267</ele>
        <time>2013-05-11T14:15:32Z</time>
      </trkpt>
      <trkpt lat="43.44462" lon="6.072">
        <ele>266</ele>
        <time>2013-05-11T14:15:33Z</time>
      </trkpt>
      <trkpt lat="43.44453" lon="6.07196">
        <ele>265.20001220703</ele>
        <time>2013-05-11T14:15:34Z</time>
      </trkpt>
      <trkpt lat="43.44444" lon="6.07194">
        <ele>264.20001220703</ele>
        <time>2013-05-11T14:15:35Z</time>
      </trkpt>
      <trkpt lat="43.44435" lon="6.07193">
        <ele>263.20001220703</ele>
        <time>2013-05-11T14:15:36Z</time>
      </trkpt>
      <trkpt lat="43.44416" lon="6.07191">
        <ele>262.60000610352</ele>
        <time>2013-05-11T14:15:38Z</time>
      </trkpt>
      <trkpt lat="43.44409" lon="6.0719">
        <ele>262.20001220703</ele>
        <time>2013-05-11T14:15:39Z</time>
      </trkpt>
      <trkpt lat="43.44398" lon="6.07187">
        <ele>261</ele>
        <time>2013-05-11T14:15:41Z</time>
      </trkpt>
      <trkpt lat="43.44393" lon="6.07186">
        <ele>260.39999389648</ele>
        <time>2013-05-11T14:15:42Z</time>
      </trkpt>
      <trkpt lat="43.44389" lon="6.07188">
        <ele>259.79998779297</ele>
        <time>2013-05-11T14:15:43Z</time>
      </trkpt>
      <trkpt lat="43.44387" lon="6.07192">
        <ele>259.39999389648</ele>
        <time>2013-05-11T14:15:44Z</time>
      </trkpt>
      <trkpt lat="43.44386" lon="6.07193">
        <ele>258.20001220703</ele>
        <time>2013-05-11T14:15:45Z</time>
      </trkpt>
      <trkpt lat="43.44387" lon="6.07193">
        <ele>258.20001220703</ele>
        <time>2013-05-11T14:15:47Z</time>
      </trkpt>
      <trkpt lat="43.44387" lon="6.07193">
        <ele>258.20001220703</ele>
        <time>2013-05-11T14:16:17Z</time>
      </trkpt>
      <trkpt lat="43.44387" lon="6.07193">
        <ele>258.20001220703</ele>
        <time>2013-05-11T14:17:12Z</time>
      </trkpt>
      <trkpt lat="43.44387" lon="6.07193">
        <ele>258.20001220703</ele>
        <time>2013-05-11T14:17:25Z</time>
      </trkpt>
      <trkpt lat="43.44382" lon="6.07196">
        <ele>258.20001220703</ele>
        <time>2013-05-11T14:17:32Z</time>
      </trkpt>
      <trkpt lat="43.44379" lon="6.07195">
        <ele>258.20001220703</ele>
        <time>2013-05-11T14:17:33Z</time>
      </trkpt>
      <trkpt lat="43.44371" lon="6.07193">
        <ele>258.20001220703</ele>
        <time>2013-05-11T14:17:36Z</time>
      </trkpt>
      <trkpt lat="43.44353" lon="6.07188">
        <ele>257.79998779297</ele>
        <time>2013-05-11T14:17:41Z</time>
      </trkpt>
      <trkpt lat="43.44349" lon="6.07186">
        <ele>257.39999389648</ele>
        <time>2013-05-11T14:17:42Z</time>
      </trkpt>
      <trkpt lat="43.44345" lon="6.07185">
        <ele>257</ele>
        <time>2013-05-11T14:17:43Z</time>
      </trkpt>
      <trkpt lat="43.44338" lon="6.07181">
        <ele>256.20001220703</ele>
        <time>2013-05-11T14:17:45Z</time>
      </trkpt>
      <trkpt lat="43.44328" lon="6.07177">
        <ele>256.20001220703</ele>
        <time>2013-05-11T14:17:48Z</time>
      </trkpt>
      <trkpt lat="43.4431" lon="6.07166">
        <ele>256.20001220703</ele>
        <time>2013-05-11T14:17:54Z</time>
      </trkpt>
      <trkpt lat="43.44301" lon="6.07148">
        <ele>256.20001220703</ele>
        <time>2013-05-11T14:17:58Z</time>
      </trkpt>
      <trkpt lat="43.44295" lon="6.07134">
        <ele>254.80000305176</ele>
        <time>2013-05-11T14:18:01Z</time>
      </trkpt>
      <trkpt lat="43.44292" lon="6.0713">
        <ele>254.39999389648</ele>
        <time>2013-05-11T14:18:02Z</time>
      </trkpt>
      <trkpt lat="43.4428" lon="6.07111">
        <ele>254</ele>
        <time>2013-05-11T14:18:07Z</time>
      </trkpt>
      <trkpt lat="43.44268" lon="6.07095">
        <ele>254</ele>
        <time>2013-05-11T14:18:11Z</time>
      </trkpt>
      <trkpt lat="43.44255" lon="6.0708">
        <ele>254</ele>
        <time>2013-05-11T14:18:15Z</time>
      </trkpt>
      <trkpt lat="43.44242" lon="6.07066">
        <ele>254</ele>
        <time>2013-05-11T14:18:19Z</time>
      </trkpt>
      <trkpt lat="43.44225" lon="6.07048">
        <ele>256.39999389648</ele>
        <time>2013-05-11T14:18:25Z</time>
      </trkpt>
      <trkpt lat="43.44217" lon="6.0704">
        <ele>256.39999389648</ele>
        <time>2013-05-11T14:18:28Z</time>
      </trkpt>
      <trkpt lat="43.4418" lon="6.07">
        <ele>256.39999389648</ele>
        <time>2013-05-11T14:18:41Z</time>
      </trkpt>
      <trkpt lat="43.44149" lon="6.0697">
        <ele>256.39999389648</ele>
        <time>2013-05-11T14:18:52Z</time>
      </trkpt>
      <trkpt lat="43.44127" lon="6.06953">
        <ele>256.39999389648</ele>
        <time>2013-05-11T14:18:59Z</time>
      </trkpt>
      <trkpt lat="43.4411" lon="6.06943">
        <ele>258</ele>
        <time>2013-05-11T14:19:04Z</time>
      </trkpt>
      <trkpt lat="43.44104" lon="6.06939">
        <ele>258.39999389648</ele>
        <time>2013-05-11T14:19:06Z</time>
      </trkpt>
      <trkpt lat="43.44078" lon="6.0693">
        <ele>258.39999389648</ele>
        <time>2013-05-11T14:19:13Z</time>
      </trkpt>
      <trkpt lat="43.44075" lon="6.06929">
        <ele>258.39999389648</ele>
        <time>2013-05-11T14:19:14Z</time>
      </trkpt>
      <trkpt lat="43.44047" lon="6.06924">
        <ele>258.39999389648</ele>
        <time>2013-05-11T14:19:21Z</time>
      </trkpt>
      <trkpt lat="43.44012" lon="6.06921">
        <ele>258.39999389648</ele>
        <time>2013-05-11T14:19:29Z</time>
      </trkpt>
      <trkpt lat="43.43986" lon="6.0692">
        <ele>258.39999389648</ele>
        <time>2013-05-11T14:19:35Z</time>
      </trkpt>
      <trkpt lat="43.43977" lon="6.0692">
        <ele>258.39999389648</ele>
        <time>2013-05-11T14:19:37Z</time>
      </trkpt>
      <trkpt lat="43.43944" lon="6.06922">
        <ele>258.39999389648</ele>
        <time>2013-05-11T14:19:45Z</time>
      </trkpt>
      <trkpt lat="43.4391" lon="6.06931">
        <ele>258.39999389648</ele>
        <time>2013-05-11T14:19:53Z</time>
      </trkpt>
      <trkpt lat="43.43906" lon="6.06932">
        <ele>258.39999389648</ele>
        <time>2013-05-11T14:19:54Z</time>
      </trkpt>
      <trkpt lat="43.43898" lon="6.06936">
        <ele>258</ele>
        <time>2013-05-11T14:19:56Z</time>
      </trkpt>
      <trkpt lat="43.43895" lon="6.06937">
        <ele>257.60000610352</ele>
        <time>2013-05-11T14:19:57Z</time>
      </trkpt>
      <trkpt lat="43.43892" lon="6.06939">
        <ele>256.60000610352</ele>
        <time>2013-05-11T14:19:59Z</time>
      </trkpt>
      <trkpt lat="43.4389" lon="6.06939">
        <ele>256.20001220703</ele>
        <time>2013-05-11T14:20:00Z</time>
      </trkpt>
      <trkpt lat="43.43885" lon="6.0694">
        <ele>256.20001220703</ele>
        <time>2013-05-11T14:20:05Z</time>
      </trkpt>
      <trkpt lat="43.43884" lon="6.0694">
        <ele>256.20001220703</ele>
        <time>2013-05-11T14:20:06Z</time>
      </trkpt>
      <trkpt lat="43.43857" lon="6.06942">
        <ele>256.20001220703</ele>
        <time>2013-05-11T14:20:15Z</time>
      </trkpt>
      <trkpt lat="43.43844" lon="6.06959">
        <ele>256.20001220703</ele>
        <time>2013-05-11T14:20:19Z</time>
      </trkpt>
      <trkpt lat="43.4384" lon="6.06972">
        <ele>256.20001220703</ele>
        <time>2013-05-11T14:20:21Z</time>
      </trkpt>
      <trkpt lat="43.43838" lon="6.06978">
        <ele>256.20001220703</ele>
        <time>2013-05-11T14:20:22Z</time>
      </trkpt>
      <trkpt lat="43.4383" lon="6.06986">
        <ele>256.20001220703</ele>
        <time>2013-05-11T14:20:24Z</time>
      </trkpt>
      <trkpt lat="43.43824" lon="6.06996">
        <ele>256.20001220703</ele>
        <time>2013-05-11T14:20:26Z</time>
      </trkpt>
      <trkpt lat="43.43812" lon="6.07011">
        <ele>256.20001220703</ele>
        <time>2013-05-11T14:20:29Z</time>
      </trkpt>
      <trkpt lat="43.43787" lon="6.07037">
        <ele>256.20001220703</ele>
        <time>2013-05-11T14:20:35Z</time>
      </trkpt>
      <trkpt lat="43.43766" lon="6.07059">
        <ele>256.20001220703</ele>
        <time>2013-05-11T14:20:40Z</time>
      </trkpt>
      <trkpt lat="43.43758" lon="6.07066">
        <ele>256.20001220703</ele>
        <time>2013-05-11T14:20:42Z</time>
      </trkpt>
      <trkpt lat="43.43737" lon="6.07088">
        <ele>255.80000305176</ele>
        <time>2013-05-11T14:20:47Z</time>
      </trkpt>
      <trkpt lat="43.43732" lon="6.07092">
        <ele>255.19999694824</ele>
        <time>2013-05-11T14:20:48Z</time>
      </trkpt>
      <trkpt lat="43.43728" lon="6.07096">
        <ele>254.80000305176</ele>
        <time>2013-05-11T14:20:49Z</time>
      </trkpt>
      <trkpt lat="43.43723" lon="6.071">
        <ele>254.19999694824</ele>
        <time>2013-05-11T14:20:50Z</time>
      </trkpt>
      <trkpt lat="43.43718" lon="6.07104">
        <ele>253.80000305176</ele>
        <time>2013-05-11T14:20:51Z</time>
      </trkpt>
      <trkpt lat="43.43703" lon="6.07113">
        <ele>253.80000305176</ele>
        <time>2013-05-11T14:20:54Z</time>
      </trkpt>
      <trkpt lat="43.43692" lon="6.07117">
        <ele>253</ele>
        <time>2013-05-11T14:20:56Z</time>
      </trkpt>
      <trkpt lat="43.43689" lon="6.07118">
        <ele>252.60000610352</ele>
        <time>2013-05-11T14:20:57Z</time>
      </trkpt>
      <trkpt lat="43.43687" lon="6.07119">
        <ele>252.19999694824</ele>
        <time>2013-05-11T14:20:58Z</time>
      </trkpt>
      <trkpt lat="43.43686" lon="6.07119">
        <ele>251.80000305176</ele>
        <time>2013-05-11T14:20:59Z</time>
      </trkpt>
      <trkpt lat="43.43686" lon="6.0712">
        <ele>251.80000305176</ele>
        <time>2013-05-11T14:21:04Z</time>
      </trkpt>
      <trkpt lat="43.43686" lon="6.0712">
        <ele>251.80000305176</ele>
        <time>2013-05-11T14:21:15Z</time>
      </trkpt>
      <trkpt lat="43.43682" lon="6.07119">
        <ele>251.80000305176</ele>
        <time>2013-05-11T14:21:22Z</time>
      </trkpt>
      <trkpt lat="43.43673" lon="6.07118">
        <ele>251.80000305176</ele>
        <time>2013-05-11T14:21:27Z</time>
      </trkpt>
      <trkpt lat="43.4365" lon="6.07115">
        <ele>251.80000305176</ele>
        <time>2013-05-11T14:21:34Z</time>
      </trkpt>
      <trkpt lat="43.43624" lon="6.07109">
        <ele>251.80000305176</ele>
        <time>2013-05-11T14:21:41Z</time>
      </trkpt>
      <trkpt lat="43.43606" lon="6.07105">
        <ele>251.80000305176</ele>
        <time>2013-05-11T14:21:46Z</time>
      </trkpt>
      <trkpt lat="43.43599" lon="6.07102">
        <ele>251.80000305176</ele>
        <time>2013-05-11T14:21:48Z</time>
      </trkpt>
      <trkpt lat="43.43585" lon="6.07099">
        <ele>251.80000305176</ele>
        <time>2013-05-11T14:21:52Z</time>
      </trkpt>
      <trkpt lat="43.43569" lon="6.07094">
        <ele>251.80000305176</ele>
        <time>2013-05-11T14:21:57Z</time>
      </trkpt>
      <trkpt lat="43.43554" lon="6.07088">
        <ele>251.80000305176</ele>
        <time>2013-05-11T14:22:02Z</time>
      </trkpt>
      <trkpt lat="43.43551" lon="6.07087">
        <ele>251.80000305176</ele>
        <time>2013-05-11T14:22:03Z</time>
      </trkpt>
      <trkpt lat="43.43528" lon="6.0708">
        <ele>253.80000305176</ele>
        <time>2013-05-11T14:22:11Z</time>
      </trkpt>
      <trkpt lat="43.43521" lon="6.07078">
        <ele>254.60000610352</ele>
        <time>2013-05-11T14:22:13Z</time>
      </trkpt>
      <trkpt lat="43.43505" lon="6.07074">
        <ele>255.80000305176</ele>
        <time>2013-05-11T14:22:19Z</time>
      </trkpt>
      <trkpt lat="43.43483" lon="6.07067">
        <ele>255.80000305176</ele>
        <time>2013-05-11T14:22:27Z</time>
      </trkpt>
      <trkpt lat="43.4347" lon="6.0706">
        <ele>255.80000305176</ele>
        <time>2013-05-11T14:22:32Z</time>
      </trkpt>
      <trkpt lat="43.43451" lon="6.07056">
        <ele>255.80000305176</ele>
        <time>2013-05-11T14:22:37Z</time>
      </trkpt>
      <trkpt lat="43.43418" lon="6.07047">
        <ele>255.80000305176</ele>
        <time>2013-05-11T14:22:44Z</time>
      </trkpt>
      <trkpt lat="43.43396" lon="6.07041">
        <ele>255.80000305176</ele>
        <time>2013-05-11T14:22:48Z</time>
      </trkpt>
      <trkpt lat="43.43384" lon="6.07038">
        <ele>255.39999389648</ele>
        <time>2013-05-11T14:22:50Z</time>
      </trkpt>
      <trkpt lat="43.43378" lon="6.07036">
        <ele>255</ele>
        <time>2013-05-11T14:22:51Z</time>
      </trkpt>
      <trkpt lat="43.43372" lon="6.07034">
        <ele>254.60000610352</ele>
        <time>2013-05-11T14:22:52Z</time>
      </trkpt>
      <trkpt lat="43.43366" lon="6.07032">
        <ele>254.19999694824</ele>
        <time>2013-05-11T14:22:53Z</time>
      </trkpt>
      <trkpt lat="43.4336" lon="6.0703">
        <ele>253.80000305176</ele>
        <time>2013-05-11T14:22:54Z</time>
      </trkpt>
      <trkpt lat="43.43348" lon="6.07026">
        <ele>253.39999389648</ele>
        <time>2013-05-11T14:22:56Z</time>
      </trkpt>
      <trkpt lat="43.43342" lon="6.07024">
        <ele>253</ele>
        <time>2013-05-11T14:22:57Z</time>
      </trkpt>
      <trkpt lat="43.43337" lon="6.07022">
        <ele>252.60000610352</ele>
        <time>2013-05-11T14:22:58Z</time>
      </trkpt>
      <trkpt lat="43.43332" lon="6.0702">
        <ele>252.19999694824</ele>
        <time>2013-05-11T14:22:59Z</time>
      </trkpt>
      <trkpt lat="43.43327" lon="6.07018">
        <ele>251.80000305176</ele>
        <time>2013-05-11T14:23:00Z</time>
      </trkpt>
      <trkpt lat="43.43308" lon="6.07013">
        <ele>251.80000305176</ele>
        <time>2013-05-11T14:23:04Z</time>
      </trkpt>
      <trkpt lat="43.43304" lon="6.07014">
        <ele>251.80000305176</ele>
        <time>2013-05-11T14:23:05Z</time>
      </trkpt>
      <trkpt lat="43.43278" lon="6.07026">
        <ele>251.80000305176</ele>
        <time>2013-05-11T14:23:13Z</time>
      </trkpt>
      <trkpt lat="43.43265" lon="6.07043">
        <ele>251.80000305176</ele>
        <time>2013-05-11T14:23:20Z</time>
      </trkpt>
      <trkpt lat="43.43262" lon="6.0705">
        <ele>252.60000610352</ele>
        <time>2013-05-11T14:23:22Z</time>
      </trkpt>
      <trkpt lat="43.43258" lon="6.07059">
        <ele>253.80000305176</ele>
        <time>2013-05-11T14:23:25Z</time>
      </trkpt>
      <trkpt lat="43.43243" lon="6.07095">
        <ele>255.80000305176</ele>
        <time>2013-05-11T14:23:37Z</time>
      </trkpt>
      <trkpt lat="43.43233" lon="6.07116">
        <ele>256.20001220703</ele>
        <time>2013-05-11T14:23:45Z</time>
      </trkpt>
      <trkpt lat="43.43224" lon="6.07133">
        <ele>256.20001220703</ele>
        <time>2013-05-11T14:23:53Z</time>
      </trkpt>
      <trkpt lat="43.43217" lon="6.07144">
        <ele>256.20001220703</ele>
        <time>2013-05-11T14:23:58Z</time>
      </trkpt>
      <trkpt lat="43.43212" lon="6.07155">
        <ele>256.20001220703</ele>
        <time>2013-05-11T14:24:03Z</time>
      </trkpt>
      <trkpt lat="43.43203" lon="6.0717">
        <ele>258.20001220703</ele>
        <time>2013-05-11T14:24:10Z</time>
      </trkpt>
      <trkpt lat="43.43197" lon="6.07181">
        <ele>260.20001220703</ele>
        <time>2013-05-11T14:24:16Z</time>
      </trkpt>
      <trkpt lat="43.43195" lon="6.07186">
        <ele>260.20001220703</ele>
        <time>2013-05-11T14:24:19Z</time>
      </trkpt>
      <trkpt lat="43.43191" lon="6.07191">
        <ele>260.79998779297</ele>
        <time>2013-05-11T14:24:23Z</time>
      </trkpt>
      <trkpt lat="43.43189" lon="6.07194">
        <ele>261.60000610352</ele>
        <time>2013-05-11T14:24:25Z</time>
      </trkpt>
      <trkpt lat="43.43188" lon="6.07195">
        <ele>262</ele>
        <time>2013-05-11T14:24:26Z</time>
      </trkpt>
      <trkpt lat="43.43188" lon="6.07195">
        <ele>262.39999389648</ele>
        <time>2013-05-11T14:24:27Z</time>
      </trkpt>
      <trkpt lat="43.43184" lon="6.07204">
        <ele>262.39999389648</ele>
        <time>2013-05-11T14:24:34Z</time>
      </trkpt>
      <trkpt lat="43.43182" lon="6.07214">
        <ele>262.39999389648</ele>
        <time>2013-05-11T14:24:41Z</time>
      </trkpt>
      <trkpt lat="43.4318" lon="6.07221">
        <ele>262.79998779297</ele>
        <time>2013-05-11T14:24:45Z</time>
      </trkpt>
      <trkpt lat="43.43179" lon="6.07226">
        <ele>264.60000610352</ele>
        <time>2013-05-11T14:24:48Z</time>
      </trkpt>
      <trkpt lat="43.43178" lon="6.07229">
        <ele>264.60000610352</ele>
        <time>2013-05-11T14:24:49Z</time>
      </trkpt>
      <trkpt lat="43.43176" lon="6.07241">
        <ele>264.60000610352</ele>
        <time>2013-05-11T14:24:56Z</time>
      </trkpt>
      <trkpt lat="43.43175" lon="6.0725">
        <ele>264.60000610352</ele>
        <time>2013-05-11T14:25:02Z</time>
      </trkpt>
      <trkpt lat="43.43175" lon="6.07253">
        <ele>265.39999389648</ele>
        <time>2013-05-11T14:25:05Z</time>
      </trkpt>
      <trkpt lat="43.43175" lon="6.07255">
        <ele>265.79998779297</ele>
        <time>2013-05-11T14:25:06Z</time>
      </trkpt>
      <trkpt lat="43.43175" lon="6.07258">
        <ele>266.60000610352</ele>
        <time>2013-05-11T14:25:08Z</time>
      </trkpt>
      <trkpt lat="43.43174" lon="6.07267">
        <ele>266.60000610352</ele>
        <time>2013-05-11T14:25:15Z</time>
      </trkpt>
      <trkpt lat="43.43173" lon="6.07271">
        <ele>266.60000610352</ele>
        <time>2013-05-11T14:25:18Z</time>
      </trkpt>
      <trkpt lat="43.43168" lon="6.07275">
        <ele>267.60000610352</ele>
        <time>2013-05-11T14:25:21Z</time>
      </trkpt>
      <trkpt lat="43.43167" lon="6.07275">
        <ele>268.39999389648</ele>
        <time>2013-05-11T14:25:23Z</time>
      </trkpt>
      <trkpt lat="43.43167" lon="6.07275">
        <ele>268.79998779297</ele>
        <time>2013-05-11T14:25:34Z</time>
      </trkpt>
      <trkpt lat="43.43167" lon="6.07275">
        <ele>268.79998779297</ele>
        <time>2013-05-11T14:25:36Z</time>
      </trkpt>
      <trkpt lat="43.43167" lon="6.07275">
        <ele>268.79998779297</ele>
        <time>2013-05-11T14:25:39Z</time>
      </trkpt>
      <trkpt lat="43.43167" lon="6.07275">
        <ele>268.79998779297</ele>
        <time>2013-05-11T14:25:42Z</time>
      </trkpt>
      <trkpt lat="43.43169" lon="6.07276">
        <ele>268.79998779297</ele>
        <time>2013-05-11T14:25:45Z</time>
      </trkpt>
      <trkpt lat="43.4317" lon="6.07275">
        <ele>268.79998779297</ele>
        <time>2013-05-11T14:25:48Z</time>
      </trkpt>
      <trkpt lat="43.43172" lon="6.07274">
        <ele>268.79998779297</ele>
        <time>2013-05-11T14:25:53Z</time>
      </trkpt>
      <trkpt lat="43.43173" lon="6.07271">
        <ele>268.79998779297</ele>
        <time>2013-05-11T14:25:58Z</time>
      </trkpt>
      <trkpt lat="43.43174" lon="6.0727">
        <ele>268.79998779297</ele>
        <time>2013-05-11T14:26:02Z</time>
      </trkpt>
      <trkpt lat="43.43174" lon="6.0727">
        <ele>268.79998779297</ele>
        <time>2013-05-11T14:26:10Z</time>
      </trkpt>
      <trkpt lat="43.43173" lon="6.07266">
        <ele>268.79998779297</ele>
        <time>2013-05-11T14:26:17Z</time>
      </trkpt>
      <trkpt lat="43.43173" lon="6.07265">
        <ele>268.79998779297</ele>
        <time>2013-05-11T14:26:23Z</time>
      </trkpt>
      <trkpt lat="43.43173" lon="6.07265">
        <ele>268.79998779297</ele>
        <time>2013-05-11T14:26:31Z</time>
      </trkpt>
      <trkpt lat="43.43173" lon="6.07266">
        <ele>268.79998779297</ele>
        <time>2013-05-11T14:26:38Z</time>
      </trkpt>
      <trkpt lat="43.43173" lon="6.07269">
        <ele>268.79998779297</ele>
        <time>2013-05-11T14:26:40Z</time>
      </trkpt>
      <trkpt lat="43.43172" lon="6.07272">
        <ele>268.79998779297</ele>
        <time>2013-05-11T14:26:42Z</time>
      </trkpt>
      <trkpt lat="43.43169" lon="6.07275">
        <ele>268.79998779297</ele>
        <time>2013-05-11T14:26:44Z</time>
      </trkpt>
      <trkpt lat="43.43167" lon="6.07275">
        <ele>268.79998779297</ele>
        <time>2013-05-11T14:26:46Z</time>
      </trkpt>
      <trkpt lat="43.43166" lon="6.07274">
        <ele>268.79998779297</ele>
        <time>2013-05-11T14:26:47Z</time>
      </trkpt>
      <trkpt lat="43.43164" lon="6.07271">
        <ele>268.79998779297</ele>
        <time>2013-05-11T14:26:49Z</time>
      </trkpt>
      <trkpt lat="43.43164" lon="6.07268">
        <ele>268.79998779297</ele>
        <time>2013-05-11T14:26:51Z</time>
      </trkpt>
      <trkpt lat="43.43162" lon="6.07266">
        <ele>269.60000610352</ele>
        <time>2013-05-11T14:26:53Z</time>
      </trkpt>
      <trkpt lat="43.43159" lon="6.07263">
        <ele>270.79998779297</ele>
        <time>2013-05-11T14:26:56Z</time>
      </trkpt>
      <trkpt lat="43.43153" lon="6.07254">
        <ele>271.20001220703</ele>
        <time>2013-05-11T14:27:05Z</time>
      </trkpt>
      <trkpt lat="43.4315" lon="6.07252">
        <ele>272.60000610352</ele>
        <time>2013-05-11T14:27:08Z</time>
      </trkpt>
      <trkpt lat="43.43144" lon="6.07246">
        <ele>273</ele>
        <time>2013-05-11T14:27:15Z</time>
      </trkpt>
      <trkpt lat="43.4314" lon="6.0724">
        <ele>274.60000610352</ele>
        <time>2013-05-11T14:27:20Z</time>
      </trkpt>
      <trkpt lat="43.43133" lon="6.07232">
        <ele>275</ele>
        <time>2013-05-11T14:27:28Z</time>
      </trkpt>
      <trkpt lat="43.43125" lon="6.07224">
        <ele>277.20001220703</ele>
        <time>2013-05-11T14:27:38Z</time>
      </trkpt>
      <trkpt lat="43.43123" lon="6.07222">
        <ele>277.20001220703</ele>
        <time>2013-05-11T14:27:41Z</time>
      </trkpt>
      <trkpt lat="43.43119" lon="6.07216">
        <ele>277.60000610352</ele>
        <time>2013-05-11T14:27:47Z</time>
      </trkpt>
      <trkpt lat="43.43118" lon="6.07212">
        <ele>279.20001220703</ele>
        <time>2013-05-11T14:27:51Z</time>
      </trkpt>
      <trkpt lat="43.43116" lon="6.07209">
        <ele>279.20001220703</ele>
        <time>2013-05-11T14:27:54Z</time>
      </trkpt>
      <trkpt lat="43.43109" lon="6.07204">
        <ele>279.20001220703</ele>
        <time>2013-05-11T14:28:02Z</time>
      </trkpt>
      <trkpt lat="43.43106" lon="6.07198">
        <ele>279.60000610352</ele>
        <time>2013-05-11T14:28:06Z</time>
      </trkpt>
      <trkpt lat="43.43103" lon="6.07193">
        <ele>280.79998779297</ele>
        <time>2013-05-11T14:28:09Z</time>
      </trkpt>
      <trkpt lat="43.431" lon="6.07189">
        <ele>281.79998779297</ele>
        <time>2013-05-11T14:28:12Z</time>
      </trkpt>
      <trkpt lat="43.431" lon="6.07187">
        <ele>282.20001220703</ele>
        <time>2013-05-11T14:28:13Z</time>
      </trkpt>
      <trkpt lat="43.43098" lon="6.07185">
        <ele>283</ele>
        <time>2013-05-11T14:28:15Z</time>
      </trkpt>
      <trkpt lat="43.43097" lon="6.07181">
        <ele>283.39999389648</ele>
        <time>2013-05-11T14:28:18Z</time>
      </trkpt>
      <trkpt lat="43.43095" lon="6.07175">
        <ele>283.39999389648</ele>
        <time>2013-05-11T14:28:22Z</time>
      </trkpt>
      <trkpt lat="43.43091" lon="6.07169">
        <ele>283.39999389648</ele>
        <time>2013-05-11T14:28:28Z</time>
      </trkpt>
      <trkpt lat="43.43086" lon="6.07166">
        <ele>284</ele>
        <time>2013-05-11T14:28:33Z</time>
      </trkpt>
      <trkpt lat="43.43082" lon="6.07167">
        <ele>285.79998779297</ele>
        <time>2013-05-11T14:28:37Z</time>
      </trkpt>
      <trkpt lat="43.43078" lon="6.07168">
        <ele>286.20001220703</ele>
        <time>2013-05-11T14:28:41Z</time>
      </trkpt>
      <trkpt lat="43.43077" lon="6.07167">
        <ele>286.60000610352</ele>
        <time>2013-05-11T14:28:42Z</time>
      </trkpt>
      <trkpt lat="43.43075" lon="6.07166">
        <ele>287.60000610352</ele>
        <time>2013-05-11T14:28:44Z</time>
      </trkpt>
      <trkpt lat="43.43074" lon="6.07165">
        <ele>288</ele>
        <time>2013-05-11T14:28:45Z</time>
      </trkpt>
      <trkpt lat="43.43068" lon="6.07166">
        <ele>288</ele>
        <time>2013-05-11T14:28:52Z</time>
      </trkpt>
      <trkpt lat="43.43058" lon="6.07165">
        <ele>288</ele>
        <time>2013-05-11T14:28:58Z</time>
      </trkpt>
      <trkpt lat="43.43054" lon="6.07162">
        <ele>288.39999389648</ele>
        <time>2013-05-11T14:29:01Z</time>
      </trkpt>
      <trkpt lat="43.4304" lon="6.07157">
        <ele>290</ele>
        <time>2013-05-11T14:29:10Z</time>
      </trkpt>
      <trkpt lat="43.43029" lon="6.07155">
        <ele>290</ele>
        <time>2013-05-11T14:29:16Z</time>
      </trkpt>
      <trkpt lat="43.43023" lon="6.07156">
        <ele>290</ele>
        <time>2013-05-11T14:29:19Z</time>
      </trkpt>
      <trkpt lat="43.43012" lon="6.07156">
        <ele>290</ele>
        <time>2013-05-11T14:29:23Z</time>
      </trkpt>
      <trkpt lat="43.42998" lon="6.07155">
        <ele>290</ele>
        <time>2013-05-11T14:29:27Z</time>
      </trkpt>
      <trkpt lat="43.42989" lon="6.07155">
        <ele>290</ele>
        <time>2013-05-11T14:29:29Z</time>
      </trkpt>
      <trkpt lat="43.42975" lon="6.07154">
        <ele>290</ele>
        <time>2013-05-11T14:29:32Z</time>
      </trkpt>
      <trkpt lat="43.42965" lon="6.07154">
        <ele>290</ele>
        <time>2013-05-11T14:29:34Z</time>
      </trkpt>
      <trkpt lat="43.4296" lon="6.07154">
        <ele>290</ele>
        <time>2013-05-11T14:29:35Z</time>
      </trkpt>
      <trkpt lat="43.42934" lon="6.07155">
        <ele>290</ele>
        <time>2013-05-11T14:29:40Z</time>
      </trkpt>
      <trkpt lat="43.42919" lon="6.07155">
        <ele>290</ele>
        <time>2013-05-11T14:29:43Z</time>
      </trkpt>
      <trkpt lat="43.42896" lon="6.07155">
        <ele>288</ele>
        <time>2013-05-11T14:29:47Z</time>
      </trkpt>
      <trkpt lat="43.42885" lon="6.07156">
        <ele>287.39999389648</ele>
        <time>2013-05-11T14:29:49Z</time>
      </trkpt>
      <trkpt lat="43.42863" lon="6.07158">
        <ele>285.60000610352</ele>
        <time>2013-05-11T14:29:53Z</time>
      </trkpt>
      <trkpt lat="43.4283" lon="6.07161">
        <ele>285.60000610352</ele>
        <time>2013-05-11T14:29:59Z</time>
      </trkpt>
      <trkpt lat="43.42807" lon="6.07163">
        <ele>285.60000610352</ele>
        <time>2013-05-11T14:30:03Z</time>
      </trkpt>
      <trkpt lat="43.42801" lon="6.07163">
        <ele>285.60000610352</ele>
        <time>2013-05-11T14:30:04Z</time>
      </trkpt>
      <trkpt lat="43.42788" lon="6.07161">
        <ele>285.20001220703</ele>
        <time>2013-05-11T14:30:06Z</time>
      </trkpt>
      <trkpt lat="43.4276" lon="6.07157">
        <ele>283.60000610352</ele>
        <time>2013-05-11T14:30:10Z</time>
      </trkpt>
      <trkpt lat="43.42739" lon="6.07153">
        <ele>283.20001220703</ele>
        <time>2013-05-11T14:30:13Z</time>
      </trkpt>
      <trkpt lat="43.42717" lon="6.07148">
        <ele>282</ele>
        <time>2013-05-11T14:30:16Z</time>
      </trkpt>
      <trkpt lat="43.42709" lon="6.07147">
        <ele>281.60000610352</ele>
        <time>2013-05-11T14:30:17Z</time>
      </trkpt>
      <trkpt lat="43.42702" lon="6.07146">
        <ele>281.60000610352</ele>
        <time>2013-05-11T14:30:18Z</time>
      </trkpt>
      <trkpt lat="43.42686" lon="6.07144">
        <ele>280.79998779297</ele>
        <time>2013-05-11T14:30:20Z</time>
      </trkpt>
      <trkpt lat="43.42671" lon="6.07141">
        <ele>280</ele>
        <time>2013-05-11T14:30:22Z</time>
      </trkpt>
      <trkpt lat="43.42631" lon="6.07136">
        <ele>278.20001220703</ele>
        <time>2013-05-11T14:30:27Z</time>
      </trkpt>
      <trkpt lat="43.42615" lon="6.07133">
        <ele>277.20001220703</ele>
        <time>2013-05-11T14:30:29Z</time>
      </trkpt>
      <trkpt lat="43.42591" lon="6.07129">
        <ele>276.39999389648</ele>
        <time>2013-05-11T14:30:32Z</time>
      </trkpt>
      <trkpt lat="43.42574" lon="6.07126">
        <ele>274.79998779297</ele>
        <time>2013-05-11T14:30:34Z</time>
      </trkpt>
      <trkpt lat="43.42566" lon="6.07126">
        <ele>274.20001220703</ele>
        <time>2013-05-11T14:30:35Z</time>
      </trkpt>
      <trkpt lat="43.42558" lon="6.07126">
        <ele>273.79998779297</ele>
        <time>2013-05-11T14:30:36Z</time>
      </trkpt>
      <trkpt lat="43.42541" lon="6.07128">
        <ele>272.60000610352</ele>
        <time>2013-05-11T14:30:38Z</time>
      </trkpt>
      <trkpt lat="43.42499" lon="6.07138">
        <ele>270.39999389648</ele>
        <time>2013-05-11T14:30:43Z</time>
      </trkpt>
      <trkpt lat="43.4248" lon="6.07141">
        <ele>269.39999389648</ele>
        <time>2013-05-11T14:30:45Z</time>
      </trkpt>
      <trkpt lat="43.4244" lon="6.07136">
        <ele>267.60000610352</ele>
        <time>2013-05-11T14:30:49Z</time>
      </trkpt>
      <trkpt lat="43.4243" lon="6.07135">
        <ele>267</ele>
        <time>2013-05-11T14:30:50Z</time>
      </trkpt>
      <trkpt lat="43.4242" lon="6.07134">
        <ele>266.39999389648</ele>
        <time>2013-05-11T14:30:51Z</time>
      </trkpt>
      <trkpt lat="43.4241" lon="6.07133">
        <ele>265.79998779297</ele>
        <time>2013-05-11T14:30:52Z</time>
      </trkpt>
      <trkpt lat="43.424" lon="6.07132">
        <ele>265.20001220703</ele>
        <time>2013-05-11T14:30:53Z</time>
      </trkpt>
      <trkpt lat="43.42379" lon="6.07129">
        <ele>265.20001220703</ele>
        <time>2013-05-11T14:30:55Z</time>
      </trkpt>
      <trkpt lat="43.42368" lon="6.07125">
        <ele>265.20001220703</ele>
        <time>2013-05-11T14:30:56Z</time>
      </trkpt>
      <trkpt lat="43.42349" lon="6.07113">
        <ele>264.39999389648</ele>
        <time>2013-05-11T14:30:58Z</time>
      </trkpt>
      <trkpt lat="43.42323" lon="6.07089">
        <ele>261.79998779297</ele>
        <time>2013-05-11T14:31:01Z</time>
      </trkpt>
      <trkpt lat="43.42304" lon="6.07079">
        <ele>260.20001220703</ele>
        <time>2013-05-11T14:31:03Z</time>
      </trkpt>
      <trkpt lat="43.42284" lon="6.07073">
        <ele>259</ele>
        <time>2013-05-11T14:31:05Z</time>
      </trkpt>
      <trkpt lat="43.42265" lon="6.07069">
        <ele>257.60000610352</ele>
        <time>2013-05-11T14:31:07Z</time>
      </trkpt>
      <trkpt lat="43.42255" lon="6.07067">
        <ele>257</ele>
        <time>2013-05-11T14:31:08Z</time>
      </trkpt>
      <trkpt lat="43.42245" lon="6.07065">
        <ele>256.39999389648</ele>
        <time>2013-05-11T14:31:09Z</time>
      </trkpt>
      <trkpt lat="43.42225" lon="6.07062">
        <ele>254.80000305176</ele>
        <time>2013-05-11T14:31:11Z</time>
      </trkpt>
      <trkpt lat="43.42216" lon="6.0706">
        <ele>254.19999694824</ele>
        <time>2013-05-11T14:31:12Z</time>
      </trkpt>
      <trkpt lat="43.42206" lon="6.07059">
        <ele>253.39999389648</ele>
        <time>2013-05-11T14:31:13Z</time>
      </trkpt>
      <trkpt lat="43.42196" lon="6.07058">
        <ele>252.60000610352</ele>
        <time>2013-05-11T14:31:14Z</time>
      </trkpt>
      <trkpt lat="43.42178" lon="6.07055">
        <ele>252.60000610352</ele>
        <time>2013-05-11T14:31:16Z</time>
      </trkpt>
      <trkpt lat="43.42162" lon="6.07046">
        <ele>252.60000610352</ele>
        <time>2013-05-11T14:31:18Z</time>
      </trkpt>
      <trkpt lat="43.42156" lon="6.07042">
        <ele>252</ele>
        <time>2013-05-11T14:31:19Z</time>
      </trkpt>
      <trkpt lat="43.4215" lon="6.07038">
        <ele>251.60000610352</ele>
        <time>2013-05-11T14:31:20Z</time>
      </trkpt>
      <trkpt lat="43.42143" lon="6.07038">
        <ele>251</ele>
        <time>2013-05-11T14:31:21Z</time>
      </trkpt>
      <trkpt lat="43.42138" lon="6.07041">
        <ele>250.60000610352</ele>
        <time>2013-05-11T14:31:22Z</time>
      </trkpt>
      <trkpt lat="43.42135" lon="6.07047">
        <ele>250</ele>
        <time>2013-05-11T14:31:23Z</time>
      </trkpt>
      <trkpt lat="43.42136" lon="6.07064">
        <ele>250</ele>
        <time>2013-05-11T14:31:25Z</time>
      </trkpt>
      <trkpt lat="43.4215" lon="6.07077">
        <ele>250</ele>
        <time>2013-05-11T14:31:28Z</time>
      </trkpt>
      <trkpt lat="43.42164" lon="6.07095">
        <ele>250</ele>
        <time>2013-05-11T14:31:32Z</time>
      </trkpt>
      <trkpt lat="43.4217" lon="6.07121">
        <ele>250</ele>
        <time>2013-05-11T14:31:36Z</time>
      </trkpt>
      <trkpt lat="43.42173" lon="6.07142">
        <ele>250</ele>
        <time>2013-05-11T14:31:40Z</time>
      </trkpt>
      <trkpt lat="43.42178" lon="6.0716">
        <ele>250</ele>
        <time>2013-05-11T14:31:44Z</time>
      </trkpt>
      <trkpt lat="43.42178" lon="6.07169">
        <ele>250</ele>
        <time>2013-05-11T14:31:46Z</time>
      </trkpt>
      <trkpt lat="43.42177" lon="6.07176">
        <ele>250</ele>
        <time>2013-05-11T14:31:48Z</time>
      </trkpt>
      <trkpt lat="43.42176" lon="6.07184">
        <ele>250</ele>
        <time>2013-05-11T14:31:50Z</time>
      </trkpt>
      <trkpt lat="43.42174" lon="6.07195">
        <ele>250</ele>
        <time>2013-05-11T14:31:53Z</time>
      </trkpt>
      <trkpt lat="43.42173" lon="6.07203">
        <ele>250</ele>
        <time>2013-05-11T14:31:55Z</time>
      </trkpt>
      <trkpt lat="43.42172" lon="6.07216">
        <ele>250</ele>
        <time>2013-05-11T14:31:58Z</time>
      </trkpt>
      <trkpt lat="43.4217" lon="6.07228">
        <ele>250</ele>
        <time>2013-05-11T14:32:01Z</time>
      </trkpt>
      <trkpt lat="43.42162" lon="6.07263">
        <ele>250</ele>
        <time>2013-05-11T14:32:07Z</time>
      </trkpt>
      <trkpt lat="43.42154" lon="6.07313">
        <ele>250</ele>
        <time>2013-05-11T14:32:14Z</time>
      </trkpt>
      <trkpt lat="43.42146" lon="6.07365">
        <ele>250</ele>
        <time>2013-05-11T14:32:22Z</time>
      </trkpt>
      <trkpt lat="43.42142" lon="6.07404">
        <ele>250</ele>
        <time>2013-05-11T14:32:29Z</time>
      </trkpt>
      <trkpt lat="43.42139" lon="6.07426">
        <ele>250</ele>
        <time>2013-05-11T14:32:33Z</time>
      </trkpt>
      <trkpt lat="43.42135" lon="6.07441">
        <ele>250</ele>
        <time>2013-05-11T14:32:36Z</time>
      </trkpt>
      <trkpt lat="43.4213" lon="6.07467">
        <ele>250</ele>
        <time>2013-05-11T14:32:42Z</time>
      </trkpt>
      <trkpt lat="43.42126" lon="6.07483">
        <ele>250</ele>
        <time>2013-05-11T14:32:47Z</time>
      </trkpt>
      <trkpt lat="43.42123" lon="6.07488">
        <ele>250.39999389648</ele>
        <time>2013-05-11T14:32:49Z</time>
      </trkpt>
      <trkpt lat="43.42119" lon="6.07491">
        <ele>251.19999694824</ele>
        <time>2013-05-11T14:32:51Z</time>
      </trkpt>
      <trkpt lat="43.42116" lon="6.07492">
        <ele>251.60000610352</ele>
        <time>2013-05-11T14:32:52Z</time>
      </trkpt>
      <trkpt lat="43.42114" lon="6.07493">
        <ele>252</ele>
        <time>2013-05-11T14:32:53Z</time>
      </trkpt>
      <trkpt lat="43.42107" lon="6.07494">
        <ele>252</ele>
        <time>2013-05-11T14:32:56Z</time>
      </trkpt>
      <trkpt lat="43.42097" lon="6.07496">
        <ele>252</ele>
        <time>2013-05-11T14:33:00Z</time>
      </trkpt>
      <trkpt lat="43.42093" lon="6.07497">
        <ele>252</ele>
        <time>2013-05-11T14:33:02Z</time>
      </trkpt>
      <trkpt lat="43.42084" lon="6.07498">
        <ele>252.39999389648</ele>
        <time>2013-05-11T14:33:06Z</time>
      </trkpt>
      <trkpt lat="43.42073" lon="6.07498">
        <ele>254.39999389648</ele>
        <time>2013-05-11T14:33:10Z</time>
      </trkpt>
      <trkpt lat="43.42046" lon="6.07501">
        <ele>254.39999389648</ele>
        <time>2013-05-11T14:33:18Z</time>
      </trkpt>
      <trkpt lat="43.42021" lon="6.07501">
        <ele>254.39999389648</ele>
        <time>2013-05-11T14:33:25Z</time>
      </trkpt>
      <trkpt lat="43.42012" lon="6.07487">
        <ele>254.39999389648</ele>
        <time>2013-05-11T14:33:29Z</time>
      </trkpt>
      <trkpt lat="43.42004" lon="6.07449">
        <ele>254.39999389648</ele>
        <time>2013-05-11T14:33:37Z</time>
      </trkpt>
      <trkpt lat="43.42001" lon="6.07436">
        <ele>254.39999389648</ele>
        <time>2013-05-11T14:33:40Z</time>
      </trkpt>
      <trkpt lat="43.41999" lon="6.07406">
        <ele>254.39999389648</ele>
        <time>2013-05-11T14:33:46Z</time>
      </trkpt>
      <trkpt lat="43.41994" lon="6.07371">
        <ele>254.39999389648</ele>
        <time>2013-05-11T14:33:53Z</time>
      </trkpt>
      <trkpt lat="43.41993" lon="6.07366">
        <ele>254.39999389648</ele>
        <time>2013-05-11T14:33:54Z</time>
      </trkpt>
      <trkpt lat="43.41986" lon="6.07342">
        <ele>254.39999389648</ele>
        <time>2013-05-11T14:33:58Z</time>
      </trkpt>
      <trkpt lat="43.41979" lon="6.07322">
        <ele>253</ele>
        <time>2013-05-11T14:34:01Z</time>
      </trkpt>
      <trkpt lat="43.41976" lon="6.07315">
        <ele>252.60000610352</ele>
        <time>2013-05-11T14:34:02Z</time>
      </trkpt>
      <trkpt lat="43.41973" lon="6.07309">
        <ele>252.19999694824</ele>
        <time>2013-05-11T14:34:03Z</time>
      </trkpt>
      <trkpt lat="43.41966" lon="6.07294">
        <ele>251.80000305176</ele>
        <time>2013-05-11T14:34:05Z</time>
      </trkpt>
      <trkpt lat="43.41962" lon="6.07287">
        <ele>251.39999389648</ele>
        <time>2013-05-11T14:34:06Z</time>
      </trkpt>
      <trkpt lat="43.41959" lon="6.07278">
        <ele>251</ele>
        <time>2013-05-11T14:34:07Z</time>
      </trkpt>
      <trkpt lat="43.41956" lon="6.0727">
        <ele>250.60000610352</ele>
        <time>2013-05-11T14:34:08Z</time>
      </trkpt>
      <trkpt lat="43.41952" lon="6.07262">
        <ele>250.19999694824</ele>
        <time>2013-05-11T14:34:09Z</time>
      </trkpt>
      <trkpt lat="43.41948" lon="6.07254">
        <ele>249.60000610352</ele>
        <time>2013-05-11T14:34:10Z</time>
      </trkpt>
      <trkpt lat="43.41945" lon="6.07246">
        <ele>249.19999694824</ele>
        <time>2013-05-11T14:34:11Z</time>
      </trkpt>
      <trkpt lat="43.41938" lon="6.07233">
        <ele>248</ele>
        <time>2013-05-11T14:34:13Z</time>
      </trkpt>
      <trkpt lat="43.41933" lon="6.0722">
        <ele>246.80000305176</ele>
        <time>2013-05-11T14:34:15Z</time>
      </trkpt>
      <trkpt lat="43.41927" lon="6.07205">
        <ele>244.39999389648</ele>
        <time>2013-05-11T14:34:18Z</time>
      </trkpt>
      <trkpt lat="43.41925" lon="6.072">
        <ele>243.80000305176</ele>
        <time>2013-05-11T14:34:19Z</time>
      </trkpt>
      <trkpt lat="43.41921" lon="6.07197">
        <ele>243.19999694824</ele>
        <time>2013-05-11T14:34:20Z</time>
      </trkpt>
      <trkpt lat="43.41917" lon="6.07195">
        <ele>242.60000610352</ele>
        <time>2013-05-11T14:34:21Z</time>
      </trkpt>
      <trkpt lat="43.41912" lon="6.07196">
        <ele>242</ele>
        <time>2013-05-11T14:34:22Z</time>
      </trkpt>
      <trkpt lat="43.41907" lon="6.07198">
        <ele>241.19999694824</ele>
        <time>2013-05-11T14:34:23Z</time>
      </trkpt>
      <trkpt lat="43.41893" lon="6.07207">
        <ele>240.60000610352</ele>
        <time>2013-05-11T14:34:26Z</time>
      </trkpt>
      <trkpt lat="43.41888" lon="6.07209">
        <ele>240.19999694824</ele>
        <time>2013-05-11T14:34:27Z</time>
      </trkpt>
      <trkpt lat="43.41882" lon="6.0721">
        <ele>239.80000305176</ele>
        <time>2013-05-11T14:34:28Z</time>
      </trkpt>
      <trkpt lat="43.41876" lon="6.0721">
        <ele>239.39999389648</ele>
        <time>2013-05-11T14:34:29Z</time>
      </trkpt>
      <trkpt lat="43.41871" lon="6.07213">
        <ele>239</ele>
        <time>2013-05-11T14:34:30Z</time>
      </trkpt>
      <trkpt lat="43.41868" lon="6.07218">
        <ele>238.60000610352</ele>
        <time>2013-05-11T14:34:31Z</time>
      </trkpt>
      <trkpt lat="43.41864" lon="6.07243">
        <ele>238.60000610352</ele>
        <time>2013-05-11T14:34:35Z</time>
      </trkpt>
      <trkpt lat="43.41863" lon="6.07249">
        <ele>238.60000610352</ele>
        <time>2013-05-11T14:34:36Z</time>
      </trkpt>
      <trkpt lat="43.41863" lon="6.07266">
        <ele>238.60000610352</ele>
        <time>2013-05-11T14:34:40Z</time>
      </trkpt>
      <trkpt lat="43.41861" lon="6.07268">
        <ele>238.60000610352</ele>
        <time>2013-05-11T14:34:43Z</time>
      </trkpt>
      <trkpt lat="43.41861" lon="6.07268">
        <ele>238.60000610352</ele>
        <time>2013-05-11T14:34:44Z</time>
      </trkpt>
    </trkseg>
  </trk>
</gpx>